GFSCGP_850_thetae_000.txt.gz
Theta_e
312 310 311 312 310 312 309 309 310 310 311 313 311 312 313 314 314 311 313 314 315 316 318 317 317 316 315 315 315 314 313 312 310 308 306 304 305 304 303 302 300 300 299 299
311 311 311 310 309 311 311 311 311 311 310 309 311 311 312 310 313 314 313 313 314 316 318 317 316 315 315 315 315 314 313 312 311 309 308 305 306 305 304 302 301 299 299 298
312 312 311 310 310 311 311 311 312 312 310 308 308 311 309 309 311 312 313 314 315 316 316 316 316 315 315 315 315 314 313 312 310 309 306 305 303 303 302 301 300 299 298 297
309 311 311 310 311 311 313 310 311 310 311 312 309 313 310 309 309 309 311 314 314 316 315 316 315 315 315 314 314 313 312 311 309 308 307 306 307 306 306 304 303 300 298 297
310 311 310 310 312 310 313 310 310 311 310 310 311 311 313 309 309 309 311 314 316 316 316 316 315 315 314 314 313 313 311 310 309 308 307 306 305 305 306 304 301 299 298 297
308 308 309 309 309 307 309 311 309 306 308 312 311 311 312 308 310 310 309 313 316 317 318 316 314 314 314 313 313 312 311 310 309 307 306 306 306 306 305 304 302 301 299 297
307 307 307 309 310 308 310 310 310 309 308 313 309 308 313 311 311 308 310 314 317 317 317 315 314 314 314 313 313 311 310 309 308 307 307 308 307 306 306 305 303 301 300 298
308 311 307 306 309 308 308 310 313 311 312 314 304 310 312 309 310 313 312 312 313 313 314 314 314 315 314 313 313 311 310 309 308 309 309 308 308 307 307 305 303 302 300 299
308 310 308 307 308 309 308 309 310 311 297 306 312 310 311 310 309 308 309 311 311 313 312 314 314 314 314 313 312 311 310 310 309 308 308 309 308 307 307 306 304 301 299 298
308 311 309 307 307 307 308 308 311 309 313 311 310 311 314 311 312 307 307 308 312 311 312 312 313 313 313 312 311 310 310 311 311 308 308 308 309 308 306 306 305 302 299 297
309 310 311 307 307 309 307 309 308 310 312 316 316 314 309 309 309 309 307 313 312 310 313 313 313 312 311 311 310 310 310 310 310 309 310 309 309 308 306 306 305 303 300 298
311 313 316 315 308 305 305 309 310 312 313 309 312 314 313 312 311 311 310 312 313 311 312 312 312 312 312 312 311 311 311 310 311 311 310 309 308 308 306 306 305 303 300 297
315 315 317 316 314 310 305 307 308 309 308 314 316 315 312 312 311 312 311 311 311 312 311 311 310 310 311 312 312 311 310 309 310 310 309 308 308 307 306 305 304 303 300 297
314 315 316 316 314 313 312 309 307 308 310 311 311 311 311 311 311 312 312 312 311 310 310 311 311 311 311 312 311 311 311 311 310 310 308 308 308 307 306 305 303 301 300 297
313 316 315 315 315 315 315 315 314 313 313 314 313 312 311 311 312 312 312 312 311 310 310 311 311 310 311 311 311 311 311 311 310 310 309 309 309 307 304 302 302 300 298 296
307 313 314 315 314 312 314 314 314 313 313 313 313 313 313 312 312 311 312 312 311 310 308 307 308 309 310 309 310 310 310 311 311 310 310 309 308 307 304 303 301 299 296 295
306 308 311 313 310 309 311 313 313 313 313 313 314 312 306 305 306 310 309 301 302 302 301 301 301 304 305 309 311 309 311 311 310 310 309 308 308 306 304 302 300 298 296 295
305 306 308 309 309 310 310 310 312 312 313 311 306 300 298 296 296 301 300 298 297 297 297 299 299 301 304 304 308 310 310 311 310 310 308 307 305 304 303 300 299 297 296 295
301 305 307 308 307 308 310 304 303 305 305 298 297 295 294 293 293 301 294 293 294 295 296 297 297 299 302 303 303 306 308 308 309 309 308 307 306 304 303 300 298 296 295 293
296 296 299 299 301 305 299 295 294 298 307 297 294 294 294 293 292 293 292 294 296 297 298 296 295 296 296 300 300 301 303 306 307 307 307 305 304 303 301 298 296 295 293 292
286 288 293 296 297 300 294 294 294 299 295 294 292 291 292 292 292 291 292 294 293 293 293 294 293 294 295 296 298 298 299 301 302 303 303 302 302 300 298 296 295 293 291 290
289 291 290 292 290 295 292 291 289 290 292 293 291 291 291 290 290 291 292 290 288 289 290 292 291 292 293 294 297 296 297 298 299 300 300 299 298 297 296 294 294 292 290 288
287 290 286 293 293 292 291 290 289 291 290 290 289 289 286 287 288 287 284 284 284 285 285 287 289 290 291 292 292 295 296 296 297 298 299 298 297 294 294 292 291 289 289 287
288 289 288 288 289 289 289 289 289 289 288 288 287 285 284 284 283 283 282 282 282 283 283 283 283 284 287 290 290 291 292 295 297 297 297 298 296 295 294 293 290 288 287 286
288 289 288 288 290 289 289 289 289 288 287 286 286 284 283 281 281 280 279 280 281 281 282 280 280 281 284 285 287 289 290 293 294 295 297 297 295 298 297 298 296 292 291 288
289 289 289 288 289 289 289 289 288 286 284 283 281 281 282 279 279 278 278 279 278 277 277 277 278 280 283 282 284 286 286 289 291 293 293 294 296 293 292 292 292 289 284 284

GFSCGP_850_thetae_003.txt.gz
Theta_e
311 309 309 311 309 311 309 308 308 309 309 311 310 311 311 312 313 313 313 313 313 314 315 315 315 315 315 316 316 316 316 315 314 312 310 307 307 306 304 304 304 303 302 300
309 309 310 309 309 309 309 310 310 311 310 308 309 310 309 308 311 312 313 313 313 313 315 316 315 315 315 316 315 315 315 315 314 312 311 309 308 307 306 305 304 303 301 299
312 311 309 309 309 310 309 310 311 311 309 307 307 311 310 307 308 311 313 312 313 314 315 316 315 315 315 315 315 315 315 314 313 312 310 308 306 305 304 303 303 302 300 299
308 310 310 309 309 309 312 308 310 310 310 312 309 312 310 310 310 309 310 312 314 315 316 316 316 315 314 315 314 314 314 314 312 311 310 310 309 309 308 307 305 303 301 299
308 310 309 309 311 308 311 309 308 308 308 309 310 309 312 309 309 308 308 312 316 316 316 316 316 315 316 315 314 314 314 313 312 311 310 310 309 308 308 307 305 303 301 300
307 307 308 308 308 307 308 309 307 305 307 311 310 310 314 309 310 310 309 315 316 315 315 314 315 315 315 315 314 314 313 313 312 310 310 309 309 308 307 307 305 304 302 301
306 306 306 308 309 307 309 308 309 308 308 312 308 308 314 311 309 308 311 310 313 314 314 314 314 315 314 315 314 314 313 312 312 311 310 309 308 308 307 307 306 305 304 303
308 314 306 305 308 308 307 308 310 310 311 313 304 309 314 310 309 310 310 311 313 315 313 313 313 313 313 313 313 313 313 312 312 311 310 309 308 307 306 306 306 306 306 304
307 308 306 305 306 308 307 308 308 310 304 310 311 309 310 308 309 309 308 310 312 314 313 313 313 313 312 311 312 312 312 312 311 311 310 309 307 307 307 306 305 305 305 304
308 309 308 306 306 306 307 307 309 307 311 312 310 311 313 311 312 309 307 306 310 313 314 312 312 312 312 312 312 312 311 311 311 310 310 309 308 308 308 307 306 306 306 305
308 311 313 309 308 312 306 307 307 308 310 314 314 314 313 313 308 307 308 312 312 310 313 314 312 312 312 312 311 311 311 311 311 310 310 309 309 309 308 309 307 306 306 305
311 314 317 315 308 307 307 308 308 310 312 310 312 314 313 313 309 309 311 313 312 313 313 313 312 312 311 311 311 311 311 312 312 311 311 310 309 308 307 309 309 306 306 305
313 314 317 316 311 309 311 312 311 312 310 311 312 313 311 312 312 312 311 311 312 312 311 310 309 307 308 309 310 312 311 310 310 311 310 309 308 307 307 308 308 307 306 305
312 315 317 318 314 313 314 311 311 311 313 312 312 311 311 311 311 311 310 309 304 303 303 304 305 304 305 305 306 308 309 308 309 309 309 309 309 309 309 307 307 306 306 304
310 313 312 312 312 313 313 313 313 314 312 312 313 314 313 312 305 300 301 298 296 296 296 296 298 299 302 305 307 308 308 308 307 306 307 308 309 310 308 306 307 305 303 302
305 307 308 309 307 308 310 310 309 309 307 308 308 309 295 293 293 294 294 292 292 293 294 295 296 296 296 297 299 301 302 304 305 307 307 305 306 307 309 306 306 306 304 300
302 304 304 305 303 303 304 304 304 305 305 304 305 295 293 292 292 291 292 291 292 293 294 295 296 296 294 295 296 296 297 299 301 305 307 307 305 305 306 305 303 303 301 299
301 300 301 301 299 299 299 301 303 302 297 296 295 294 292 291 290 290 294 290 292 293 295 294 297 295 293 293 295 296 296 298 297 299 302 300 301 304 303 304 303 302 300 299
299 300 298 292 291 297 299 297 295 296 296 293 293 293 291 290 289 290 289 290 291 294 292 291 290 291 292 290 291 294 296 296 297 297 297 296 298 299 298 299 299 300 298 298
294 296 294 287 294 297 297 293 294 293 298 293 293 292 291 290 289 288 289 289 291 289 287 286 286 286 287 288 290 291 293 294 295 296 298 297 295 296 295 295 296 296 296 295
282 280 284 280 284 288 289 290 290 288 289 288 292 291 290 290 290 289 288 288 288 286 285 286 286 286 286 285 286 288 290 291 292 294 296 298 298 294 294 294 293 293 292 292
287 281 280 277 281 287 290 289 289 288 289 291 292 289 289 289 288 287 287 286 285 285 284 284 283 283 284 284 284 285 286 288 290 291 292 296 297 298 296 291 291 290 289 290
285 287 283 286 286 291 291 290 290 289 290 290 289 288 287 286 286 285 284 284 284 283 283 284 283 283 283 283 283 284 286 285 286 289 290 293 295 296 298 298 294 289 287 286
288 289 289 287 290 289 289 289 289 289 288 289 288 287 285 283 283 282 282 282 282 283 283 282 281 283 284 284 283 284 284 284 284 284 287 289 293 294 295 298 297 294 290 288
288 288 287 288 289 289 289 289 289 288 288 288 286 285 283 281 281 280 279 279 279 279 279 278 279 280 282 282 283 283 282 282 282 283 284 285 288 291 293 291 293 294 295 295
289 289 289 289 290 289 289 289 289 288 286 285 284 283 282 279 278 278 278 278 277 276 276 275 275 275 278 279 281 283 281 278 278 280 282 281 283 287 289 291 290 288 288 287

GFSCGP_850_thetae_006.txt.gz
Theta_e
310 308 309 310 307 309 308 307 306 307 308 308 310 310 309 310 310 311 311 311 312 312 315 315 315 315 314 314 314 314 314 315 314 314 314 312 311 310 308 308 306 304 304 303
307 308 309 309 308 308 308 308 309 309 309 307 308 309 309 309 310 311 311 312 311 313 314 315 315 315 315 315 314 314 314 314 315 314 314 312 312 311 309 308 306 305 303 303
310 310 309 308 308 309 307 308 310 309 308 306 305 310 307 308 308 310 311 313 311 313 314 315 314 313 313 314 314 314 314 314 314 313 312 311 310 309 308 306 305 304 303 303
308 308 309 308 308 308 310 307 308 309 308 310 307 311 308 308 308 307 309 311 314 315 313 314 314 315 314 314 315 314 313 313 313 313 312 312 312 312 312 310 308 306 305 304
309 309 309 309 309 307 310 309 307 307 307 307 308 307 311 307 309 308 307 312 311 314 314 314 315 315 315 315 315 314 313 312 312 312 313 312 311 310 310 309 308 306 305 303
307 307 307 308 306 306 307 308 306 305 306 309 309 308 314 308 309 310 309 314 313 314 313 314 314 314 313 313 314 315 313 313 312 311 310 310 310 310 310 308 308 306 304 303
307 306 306 307 308 306 308 307 308 308 308 311 307 307 312 310 310 308 307 311 312 313 313 312 313 314 313 312 311 312 312 312 312 311 310 309 309 309 309 309 308 308 305 303
310 319 307 304 307 308 305 308 309 312 309 314 303 309 315 311 309 311 310 310 310 312 313 313 313 312 312 311 310 311 311 311 311 311 310 309 308 308 307 308 308 307 307 306
309 311 306 304 306 307 306 308 308 310 310 309 312 309 309 310 307 307 308 309 310 312 312 313 313 313 312 311 310 311 311 311 311 310 309 309 310 309 308 308 307 306 305 305
310 311 307 306 305 305 306 306 309 307 312 313 310 311 312 312 312 308 306 306 311 312 309 308 310 312 310 308 307 307 308 309 310 310 310 310 309 309 309 307 307 307 306 305
306 310 312 312 308 310 309 307 306 307 310 315 316 314 310 312 311 307 305 311 307 304 305 306 306 306 306 306 306 305 305 305 305 305 305 306 307 308 307 307 307 306 305 305
307 315 317 314 310 307 307 311 310 313 313 310 312 313 310 309 310 306 301 300 301 302 301 302 303 302 304 305 306 305 305 305 306 306 306 306 305 306 306 305 306 306 306 305
313 314 315 314 310 308 312 312 312 313 312 315 316 314 311 309 303 299 296 294 294 294 296 298 299 299 299 298 299 300 300 299 300 303 304 305 305 304 304 305 305 304 305 306
309 311 314 314 312 312 314 312 312 313 315 314 313 312 311 300 297 294 295 292 292 292 293 294 295 296 297 296 296 296 297 297 297 299 300 301 303 307 306 304 302 303 303 302
308 311 311 311 311 310 309 308 307 309 309 311 310 310 306 294 293 293 293 292 292 292 293 294 293 296 295 293 293 293 293 296 297 297 298 299 303 305 305 306 304 302 302 303
304 305 304 303 302 302 304 305 304 305 304 305 306 304 293 292 292 292 292 292 291 291 293 295 292 293 290 291 292 293 292 292 295 297 296 297 298 299 302 303 303 302 300 300
301 303 302 302 300 300 300 300 302 302 302 299 301 294 291 291 291 290 290 292 290 290 291 294 289 288 288 288 288 288 290 290 291 294 294 295 297 298 298 298 298 299 299 299
300 300 299 301 296 298 297 297 297 297 295 294 293 291 290 291 290 289 290 288 289 289 291 289 287 287 288 288 287 287 287 288 288 289 292 293 293 296 298 298 297 294 294 296
297 298 295 295 288 294 297 293 293 295 295 292 292 293 292 291 290 289 288 288 288 288 290 287 286 285 285 285 285 285 286 287 287 287 288 290 291 291 295 297 297 294 291 292
293 296 297 285 292 288 294 291 292 293 292 288 290 290 290 290 287 287 288 288 288 288 287 286 285 284 284 285 285 284 285 285 285 284 285 286 287 290 292 295 297 296 292 289
280 278 287 285 282 285 287 289 289 286 288 288 289 290 290 288 288 288 288 287 287 287 287 286 285 284 284 284 284 284 285 285 285 285 284 285 286 287 290 292 296 296 295 291
288 282 278 274 278 283 289 289 288 287 289 289 288 289 290 289 288 288 287 287 286 285 285 285 283 284 284 284 283 283 284 284 284 284 284 284 284 285 286 289 292 295 294 295
286 287 282 284 284 288 290 289 290 290 289 289 288 289 290 288 287 287 285 285 284 283 283 283 282 282 283 283 282 282 283 281 282 283 283 284 284 284 284 285 289 291 293 293
288 289 289 289 289 289 289 289 290 290 289 289 288 288 288 287 286 284 283 283 282 282 280 280 280 280 281 283 282 280 279 277 277 279 281 283 282 283 282 283 284 288 290 292
289 287 286 288 289 289 289 289 289 289 289 288 288 287 285 283 283 281 281 280 280 279 279 278 277 277 277 277 276 276 276 274 273 274 276 279 280 280 280 281 283 285 288 288
289 289 289 288 289 289 289 289 289 288 287 286 285 285 283 281 279 278 278 277 276 276 276 275 274 273 273 272 272 271 270 269 270 271 273 273 274 276 278 278 281 283 285 286

GFSCGP_850_thetae_009.txt.gz
Theta_e
309 308 309 309 307 307 308 306 306 307 307 307 310 309 309 309 309 309 310 311 311 312 315 314 313 314 315 315 314 314 313 313 313 313 313 312 313 313 313 312 312 311 309 305
307 309 309 307 306 307 307 308 309 308 308 306 308 310 310 309 310 310 310 310 311 313 315 314 313 313 313 314 314 314 313 313 314 313 313 312 313 313 312 312 311 310 309 306
309 310 307 308 308 308 307 308 309 308 306 306 305 308 307 309 308 310 312 311 312 311 312 313 313 314 314 314 314 315 314 313 313 313 312 312 311 311 311 311 310 309 308 306
307 307 308 307 309 307 309 307 307 307 308 309 307 311 308 310 308 307 309 310 312 312 312 312 312 313 314 314 315 314 314 313 312 311 310 311 313 313 313 312 311 309 308 307
309 307 308 308 309 306 309 308 308 307 307 307 307 307 309 307 309 308 308 311 311 312 312 313 313 312 311 311 312 311 312 311 311 311 311 309 309 311 311 311 311 309 308 306
306 306 306 307 306 306 306 307 304 304 306 309 309 308 311 308 310 309 308 313 311 312 312 313 312 311 310 310 309 309 310 308 308 308 308 308 308 308 309 310 310 309 308 306
307 306 306 307 308 305 308 307 309 309 308 311 306 307 311 310 309 308 309 310 308 311 309 308 310 311 310 309 308 308 307 306 305 305 306 306 306 306 307 307 307 308 308 306
312 318 307 304 308 309 305 307 312 313 312 315 302 312 316 307 310 310 308 306 306 305 304 304 305 306 306 307 308 307 306 305 304 304 303 303 303 303 303 305 306 306 307 307
309 310 306 303 305 306 306 307 308 310 308 311 312 310 312 311 306 305 303 301 300 300 301 301 302 302 303 304 304 305 305 305 303 302 303 303 302 302 303 303 303 303 304 305
309 316 309 307 305 305 306 306 309 307 311 313 312 312 313 311 305 302 301 299 296 296 298 299 300 300 299 299 301 303 303 303 303 304 304 303 302 301 301 302 304 305 305 304
307 310 312 310 307 307 306 306 306 307 310 314 316 315 309 304 302 300 297 295 294 294 295 296 298 299 299 297 297 298 300 300 302 302 303 304 303 301 300 301 302 303 303 303
306 312 313 312 309 307 308 310 310 315 316 311 315 316 309 299 298 295 292 292 293 294 294 294 294 294 295 295 295 295 295 295 297 299 300 301 303 303 302 300 299 300 300 301
313 314 315 314 310 309 312 312 311 311 311 315 315 315 306 300 298 295 293 292 291 291 291 293 294 293 293 293 293 294 294 294 293 295 297 298 300 301 302 302 301 300 299 300
309 311 313 314 311 311 312 311 310 311 314 312 313 313 309 298 295 294 294 293 291 291 290 292 293 290 291 291 290 290 290 291 293 293 293 295 294 296 299 300 301 302 300 298
308 310 310 309 308 307 305 304 304 304 305 307 306 305 305 293 292 292 291 293 292 289 289 290 293 289 289 289 289 289 288 288 288 289 291 292 294 295 294 296 299 299 299 298
303 307 303 302 303 301 302 301 301 301 301 302 303 304 292 292 291 291 289 291 290 288 288 288 290 288 288 287 287 288 287 287 286 286 287 288 290 290 294 294 294 296 299 298
302 302 301 303 301 299 300 298 299 299 299 299 300 293 289 290 291 289 289 290 288 288 288 288 289 288 286 286 285 285 286 286 286 286 286 286 286 288 289 292 293 294 295 298
300 299 299 300 291 298 297 295 297 297 294 291 290 288 289 291 291 289 289 288 288 288 288 287 287 287 287 286 285 285 285 285 285 285 285 286 285 285 286 287 288 290 293 295
296 297 294 297 295 295 296 295 294 295 293 290 289 290 291 291 291 289 289 288 288 288 287 287 287 287 286 286 285 284 285 285 285 285 285 285 285 285 284 285 285 286 288 293
293 295 296 287 291 286 292 291 291 291 289 287 288 285 287 290 288 288 288 288 288 288 287 287 287 286 286 286 284 283 284 284 284 284 284 284 285 285 284 284 284 284 284 287
279 280 294 294 294 287 287 288 290 286 287 290 289 289 288 288 289 289 289 289 288 288 287 286 286 285 286 285 284 283 283 283 283 282 283 284 284 284 284 284 284 284 284 284
288 281 276 274 280 287 288 288 288 288 289 289 289 289 288 288 288 289 289 289 288 287 286 286 284 284 285 284 282 281 281 281 280 280 281 282 283 283 284 283 283 283 283 284
287 287 284 284 284 288 289 289 289 289 289 289 289 289 288 288 288 288 288 287 285 284 284 283 281 281 282 282 279 278 280 277 276 276 276 278 279 280 281 281 282 281 282 283
287 287 287 289 289 289 289 290 289 289 289 289 289 288 288 288 287 286 285 284 283 282 280 279 278 278 278 279 276 275 274 273 273 272 273 273 273 275 277 278 279 279 280 280
289 287 286 288 289 289 289 289 289 289 289 289 288 288 287 285 284 282 282 281 279 278 277 276 274 274 273 273 272 271 270 269 269 269 268 268 268 268 270 271 274 275 277 278
290 289 289 289 289 289 289 289 289 289 288 288 287 286 284 282 280 279 279 278 277 276 275 273 271 270 269 269 268 266 266 265 265 264 264 264 264 265 266 266 268 272 273 276

GFSCGP_850_thetae_012.txt.gz
Theta_e
311 314 315 316 315 315 313 314 314 315 314 313 314 314 314 313 313 313 313 313 314 313 312 311 312 312 312 313 313 312 312 312 312 312 311 311 312 313 314 314 314 315 314 312
312 314 315 313 312 312 313 314 314 315 314 311 313 313 313 314 313 314 313 313 313 312 311 310 310 311 311 312 312 313 313 311 311 311 311 310 311 311 312 313 314 315 315 313
315 316 312 311 313 313 313 314 315 315 313 312 312 316 315 315 312 313 311 311 311 310 310 309 310 311 311 311 311 311 311 310 310 309 308 308 309 309 310 311 312 313 314 314
312 310 311 311 312 313 314 314 313 312 312 318 312 319 318 317 315 313 313 312 311 309 308 305 304 306 307 308 308 308 309 309 308 308 306 306 307 307 308 309 310 311 312 314
314 311 310 312 313 311 314 310 310 310 312 312 315 314 319 313 314 314 313 310 309 306 304 303 304 304 304 306 307 309 308 307 306 305 305 305 305 305 304 305 306 307 309 311
312 306 309 312 309 309 308 311 310 310 312 317 317 315 317 315 314 313 310 307 304 304 303 302 302 304 306 307 306 305 305 305 304 303 303 303 303 303 303 304 304 304 305 306
314 310 308 307 310 308 309 312 320 321 320 320 313 313 316 315 312 308 308 305 303 302 302 302 303 302 302 303 304 305 304 303 303 303 302 302 302 301 302 302 302 302 303 304
318 320 311 308 313 318 312 314 319 320 321 319 310 315 316 313 307 305 304 303 301 301 301 302 303 302 301 300 301 301 302 302 302 303 303 301 301 301 301 301 301 301 302 302
319 319 308 306 307 311 312 313 313 315 317 317 316 316 316 313 307 306 303 301 299 298 298 298 298 301 301 300 300 300 300 301 301 301 301 302 302 302 301 301 300 301 300 300
313 317 315 312 306 307 310 311 313 312 315 318 315 315 316 312 309 305 302 299 297 296 296 296 296 296 296 298 298 298 298 297 297 300 300 300 301 301 302 302 301 300 300 300
311 315 316 311 313 313 311 309 309 310 312 317 318 316 312 311 305 303 299 296 295 295 295 295 295 296 296 294 295 296 296 295 296 296 297 299 300 299 301 301 302 302 300 299
314 313 316 314 313 309 309 312 311 313 315 313 313 315 306 302 300 297 295 294 294 294 293 294 294 293 293 292 292 292 292 292 291 291 294 294 296 298 297 298 300 301 302 302
313 314 316 314 313 310 313 314 313 313 312 317 318 316 305 300 298 298 296 294 293 291 290 292 293 290 290 289 289 289 289 289 289 289 289 289 292 292 296 297 295 296 300 300
309 311 313 313 313 312 314 313 309 310 312 313 313 313 311 308 302 297 294 294 293 290 290 290 291 290 289 289 288 288 288 288 288 288 288 288 288 288 289 290 294 295 295 296
308 311 309 309 309 309 309 308 307 307 307 307 307 307 306 306 301 294 291 292 293 289 289 289 289 291 289 288 287 287 287 287 287 286 286 286 286 287 287 287 287 289 291 295
305 306 305 305 305 306 306 306 305 304 304 304 303 303 302 294 292 292 290 291 292 289 289 288 288 289 289 288 286 286 286 286 285 286 286 286 286 286 286 286 286 286 287 288
302 303 303 304 303 303 303 302 301 301 302 302 301 300 293 292 292 292 290 290 291 289 288 288 288 288 289 288 286 286 286 285 285 285 285 285 285 285 285 285 285 286 285 285
299 300 302 302 301 300 300 299 299 299 299 296 294 292 293 291 290 291 290 290 290 289 288 288 288 288 288 287 286 286 286 286 285 285 284 285 285 285 285 285 285 285 285 285
297 298 299 299 299 299 298 297 297 297 298 295 293 291 290 290 291 291 290 290 290 289 288 288 288 287 287 286 285 285 285 285 284 284 284 284 284 284 284 285 285 285 285 285
293 296 296 295 296 295 295 292 293 292 294 293 290 290 290 290 290 291 290 289 289 288 288 288 288 287 286 286 285 284 283 282 282 281 281 281 282 283 283 283 284 284 284 284
291 292 295 296 296 296 294 291 292 293 293 292 290 290 290 290 290 289 289 289 288 289 289 288 286 285 285 284 281 281 281 281 279 279 279 278 278 278 279 280 282 282 283 283
291 292 291 288 291 292 290 290 291 292 290 290 290 289 289 289 289 289 289 289 289 288 287 286 284 283 283 282 279 280 280 278 277 276 276 275 275 275 274 274 276 277 278 280
291 291 292 290 291 291 290 291 290 290 290 290 290 290 289 289 288 288 288 288 287 285 284 282 280 280 282 281 277 275 276 274 274 273 273 272 271 271 271 270 271 271 273 274
291 291 291 291 291 291 290 290 290 290 290 289 289 289 288 288 287 287 286 285 284 282 281 279 279 279 280 278 276 274 274 272 270 269 269 268 267 267 267 267 267 268 269 271
291 290 290 291 291 290 290 290 290 290 289 289 288 288 287 286 285 284 283 282 280 279 278 277 275 276 276 275 273 272 270 268 266 265 264 264 264 264 264 265 265 266 267 268
291 291 291 291 291 290 290 290 290 289 288 288 288 287 286 284 283 282 280 279 278 277 276 276 275 274 274 272 271 270 267 265 263 263 263 263 263 263 263 263 264 265 266 268

GFSCGP_850_thetae_015.txt.gz
Theta_e
314 315 316 318 318 318 317 317 318 318 318 318 317 316 316 317 317 317 317 317 316 314 312 310 308 308 309 310 310 311 310 309 309 310 311 312 315 317 317 318 317 317 316 316
314 315 317 317 315 316 316 317 317 317 318 314 316 317 316 317 317 317 316 315 314 312 310 307 308 309 310 309 309 308 307 308 308 308 312 314 315 316 316 316 315 316 315 315
317 319 316 315 316 316 316 316 316 317 316 316 317 318 320 319 319 318 314 313 311 309 307 306 305 305 306 307 307 308 308 306 305 306 308 309 311 311 312 312 312 313 313 312
317 316 314 314 314 315 316 317 315 315 316 319 316 319 318 319 319 315 312 312 309 307 306 305 304 304 305 305 305 305 306 307 306 305 306 307 308 307 307 307 308 309 309 310
316 314 313 315 315 315 316 312 313 314 316 317 318 319 319 318 318 316 312 309 308 306 305 304 303 302 303 304 304 304 304 303 303 303 303 303 303 304 305 305 304 304 305 306
314 309 311 314 313 312 311 312 314 315 317 320 319 318 318 316 315 312 310 308 306 305 304 303 302 301 300 301 302 303 303 303 304 303 302 302 302 301 302 303 302 302 303 303
318 316 312 310 313 311 311 313 320 322 323 324 319 316 317 317 315 313 310 306 305 304 303 302 301 300 299 298 299 300 302 304 304 304 304 303 302 301 300 300 300 301 301 301
319 319 316 311 313 316 316 317 321 322 323 323 319 319 318 313 310 308 307 305 303 302 301 301 300 299 298 298 299 300 301 302 301 302 302 302 302 302 301 299 299 299 299 299
318 318 317 311 312 312 315 315 314 317 317 319 318 316 316 314 310 307 304 302 301 300 299 299 299 298 297 298 297 298 299 298 298 299 300 300 300 300 300 300 300 299 298 297
315 316 315 313 310 313 313 315 319 316 319 318 315 314 315 315 313 307 304 301 300 299 298 297 297 298 297 296 296 295 295 296 295 294 295 297 298 299 299 298 299 299 299 298
313 315 315 314 314 314 313 312 312 312 313 316 317 316 312 312 310 306 301 299 298 297 296 297 295 294 293 293 293 291 291 289 290 291 291 291 291 293 295 297 298 297 297 298
313 313 314 313 312 313 314 314 314 316 317 314 314 315 313 307 304 301 299 297 296 295 292 293 294 292 291 290 290 289 289 289 288 288 288 289 289 290 290 290 292 294 296 296
312 313 313 312 309 312 314 313 314 315 314 316 316 315 308 303 302 300 300 298 296 293 292 291 293 292 290 290 289 288 288 288 287 287 287 287 287 287 287 288 288 288 289 293
310 309 311 312 309 310 311 312 312 312 313 313 313 311 309 309 306 303 301 297 296 293 291 291 291 291 291 289 288 288 287 287 287 287 287 286 286 286 286 286 286 286 287 287
307 309 307 307 307 307 308 307 307 307 308 309 308 308 307 306 305 301 297 294 294 292 290 290 290 289 290 290 289 287 287 287 286 286 286 286 286 286 286 286 286 286 286 286
304 305 304 303 303 303 304 304 305 306 306 306 305 304 304 298 296 295 294 292 292 293 290 290 289 289 289 289 289 288 287 287 286 286 286 286 286 285 285 285 286 286 286 286
300 301 302 301 301 301 301 301 301 303 303 303 302 301 295 297 295 294 293 291 291 291 290 289 289 289 289 288 288 288 287 286 285 286 286 285 285 285 286 286 286 286 286 286
299 299 300 300 299 299 299 299 299 299 299 300 299 295 293 292 291 291 292 292 291 291 290 290 289 289 289 288 287 286 285 284 284 284 283 284 283 284 284 284 285 285 285 285
297 297 298 298 299 298 298 297 297 297 296 297 297 292 291 291 290 291 292 291 290 290 289 289 289 289 288 287 286 285 285 283 282 281 281 281 281 281 281 281 282 283 283 284
294 296 298 298 297 296 295 295 294 294 295 296 292 291 291 291 291 292 291 290 290 289 289 289 289 288 287 286 285 284 283 282 281 280 279 279 278 278 278 278 278 278 278 279
293 295 297 297 297 296 297 293 293 294 295 294 292 291 291 291 291 290 290 290 289 289 289 289 288 287 285 284 283 283 282 280 279 277 277 276 275 275 275 275 275 275 275 274
292 294 294 293 293 292 292 291 293 294 292 292 291 291 291 290 290 290 290 289 289 289 288 287 286 286 285 282 281 281 281 279 278 277 277 275 273 271 270 270 270 270 271 271
292 292 293 293 293 293 291 292 292 292 292 291 291 291 290 290 290 289 289 289 288 286 285 285 285 284 283 281 280 279 279 277 276 276 275 273 270 269 267 267 267 267 268 269
293 292 292 293 292 292 292 291 291 291 291 291 290 290 290 289 289 289 287 286 285 284 284 283 282 281 282 280 278 277 276 274 273 271 270 267 266 266 265 265 265 265 265 266
293 292 292 292 292 291 291 291 290 290 290 290 290 289 289 288 287 286 284 284 283 283 282 280 280 280 280 277 277 276 274 272 271 268 266 265 265 264 264 264 264 264 265 265
292 293 292 292 292 292 291 291 291 290 290 290 289 289 288 287 286 284 283 283 282 281 280 279 279 278 277 276 276 274 272 269 268 265 264 264 264 264 264 264 264 265 266 267

GFSCGP_850_thetae_021.txt.gz
Theta_e
312 310 310 310 310 311 312 314 313 312 313 313 313 312 311 314 315 313 308 307 307 305 304 306 306 307 307 307 308 308 309 310 311 311 311 312 317 321 322 323 322 322 322 322
311 311 311 311 312 313 313 313 312 312 313 314 312 312 311 312 313 312 308 307 306 305 305 304 305 305 306 305 306 306 306 307 308 309 311 312 314 316 319 320 319 319 319 318
311 313 313 313 314 314 313 313 313 313 312 312 313 312 313 313 308 307 307 306 306 304 303 303 303 304 304 305 305 305 305 306 306 307 309 310 311 314 315 316 316 315 316 316
311 312 313 313 314 313 314 312 313 313 311 312 313 313 312 311 308 306 305 305 304 303 302 302 302 302 302 302 304 305 305 305 305 304 305 305 306 306 307 307 307 307 309 311
315 312 312 313 313 311 312 311 311 312 311 312 312 313 312 309 309 307 304 304 303 302 302 302 302 302 303 303 303 304 304 305 305 305 305 304 303 303 304 305 305 304 304 303
311 310 311 311 311 312 309 311 310 309 310 312 312 313 313 310 310 306 304 303 302 302 301 301 302 302 302 302 302 302 303 303 303 303 303 303 304 303 302 302 301 301 301 301
312 311 310 310 311 310 310 310 314 313 311 314 313 313 313 310 308 306 303 302 302 302 301 301 301 300 300 300 300 300 300 300 300 300 301 301 300 300 300 301 300 300 300 299
315 317 311 309 311 311 310 314 314 316 313 310 312 313 313 304 303 303 302 301 301 300 300 300 299 299 299 298 298 297 297 297 297 297 296 295 296 296 295 295 295 296 296 297
314 315 311 310 310 311 312 313 312 314 305 310 312 312 307 304 302 301 300 301 300 299 298 298 298 297 295 294 293 291 290 290 290 290 290 291 291 290 290 290 290 290 290 291
313 315 312 309 310 311 313 312 314 312 311 311 313 312 311 307 303 300 299 299 299 298 298 298 297 295 293 291 290 290 289 289 288 288 288 287 287 287 288 288 288 288 288 288
312 313 312 311 312 312 311 310 311 312 312 312 309 309 307 307 302 300 299 300 299 300 299 297 296 294 292 290 289 289 288 288 288 287 287 287 287 287 287 287 287 287 287 287
312 312 309 311 309 308 309 310 311 311 310 308 311 311 304 302 302 301 300 301 301 300 299 298 294 292 290 290 289 288 288 288 288 287 287 287 286 286 286 287 287 286 286 286
311 309 304 304 306 310 311 310 309 309 310 311 312 307 302 301 300 301 301 301 299 299 295 292 292 291 291 291 290 289 289 288 288 287 287 287 287 287 286 286 286 286 286 286
309 309 304 305 301 306 305 305 304 307 302 302 304 304 303 303 301 302 302 302 303 300 296 293 292 291 290 289 289 289 288 288 288 288 287 287 287 287 286 286 285 285 285 285
306 303 306 306 305 304 304 303 303 303 303 303 302 301 302 301 298 297 296 297 300 297 295 292 291 290 289 289 289 289 288 288 288 288 287 287 286 286 285 285 285 285 285 284
304 299 301 297 302 301 301 301 300 300 300 299 299 299 299 296 296 295 293 293 293 292 293 291 290 289 289 289 289 289 288 288 288 287 286 286 286 285 284 284 284 284 284 284
299 296 291 294 298 296 293 296 297 297 297 297 297 296 292 294 294 292 292 292 291 291 291 290 290 290 289 289 289 289 288 288 287 286 285 284 283 283 283 283 283 282 282 281
298 293 289 288 286 289 294 294 295 295 295 292 292 289 290 291 291 291 291 291 291 291 291 291 290 290 289 289 289 289 288 287 286 285 284 283 282 281 281 280 280 280 280 280
297 296 289 290 283 290 294 294 294 294 292 291 291 290 292 290 290 290 291 291 291 290 290 290 289 289 289 289 288 288 287 286 285 283 283 282 281 280 279 279 279 279 278 278
294 295 294 280 289 288 291 293 294 292 291 290 291 289 289 290 287 286 290 290 290 290 290 290 289 289 289 289 288 287 286 285 283 282 282 280 279 279 279 278 277 276 275 274
284 282 294 294 288 287 289 291 293 288 290 292 294 291 290 288 290 290 290 290 290 290 290 289 289 289 289 288 287 286 285 283 282 282 281 279 279 278 277 276 275 274 273 271
290 287 285 281 281 289 292 290 290 290 292 292 292 291 291 291 291 291 290 290 290 290 289 289 289 288 288 287 286 284 282 282 281 280 279 279 278 277 275 274 274 272 270 269
289 290 286 289 288 291 291 292 293 292 292 291 291 291 291 291 291 290 290 290 290 289 289 289 288 288 286 285 283 282 282 281 280 279 279 279 277 276 274 273 271 269 269 267
289 290 289 288 289 290 292 292 291 291 291 291 291 291 291 290 290 290 290 289 289 289 289 288 287 286 285 283 282 281 280 280 279 279 278 277 276 275 273 271 270 269 269 267
291 289 288 288 290 291 291 292 292 291 291 291 291 291 290 290 290 290 290 289 289 288 288 287 286 285 284 281 281 280 279 279 279 278 277 276 275 273 272 271 269 268 268 265
292 291 291 291 291 291 291 292 292 291 291 291 291 291 290 290 290 290 289 289 288 287 286 285 284 284 281 281 280 279 278 278 278 277 276 275 274 272 272 270 268 271 269 267

GFSCGP_850_thetae_024.txt.gz
Theta_e
312 309 308 308 309 309 311 311 312 311 311 312 311 311 310 313 312 308 306 305 303 302 302 304 304 305 306 307 307 307 308 309 310 311 312 314 319 321 322 321 321 321 321 322
310 309 309 309 309 310 310 311 311 311 310 312 311 311 310 309 308 307 305 304 302 301 302 303 304 305 305 305 306 306 306 307 308 309 311 312 313 315 318 319 318 318 318 319
310 312 311 311 311 312 311 311 312 312 311 310 312 311 312 306 306 305 305 303 302 301 301 302 303 304 305 305 306 306 306 305 305 305 307 308 310 312 314 316 315 314 314 314
310 311 312 312 313 312 314 311 312 312 311 312 311 311 310 309 306 304 303 302 300 300 300 301 302 303 303 303 304 305 305 305 305 305 306 305 304 305 305 305 306 308 308 309
313 313 312 312 312 311 313 310 311 311 310 310 310 310 309 307 307 304 301 301 300 300 300 300 301 301 301 301 302 302 302 302 302 304 304 304 304 302 301 302 303 302 302 302
310 310 310 310 309 310 309 310 309 307 308 311 310 310 311 309 309 303 301 300 300 300 300 300 299 300 300 301 302 302 302 302 302 301 301 301 302 302 302 302 301 300 299 300
311 310 310 310 310 309 308 310 313 312 310 314 311 311 311 306 305 304 301 300 300 300 300 299 300 299 299 300 299 299 299 299 298 298 299 298 298 298 298 299 298 298 297 297
314 317 310 308 310 311 308 311 312 313 312 311 309 312 310 302 301 301 302 301 301 301 300 300 300 300 300 298 297 295 294 294 293 293 293 292 291 291 290 290 290 291 291 290
313 314 309 309 310 310 311 312 311 311 298 307 311 309 305 302 299 299 299 300 300 300 300 300 300 300 299 296 294 293 292 291 291 290 290 290 289 289 288 288 287 287 287 287
312 315 311 310 310 309 310 310 313 309 309 309 310 311 310 304 301 299 298 299 300 300 300 301 301 299 298 294 292 290 290 290 289 289 288 288 288 288 288 288 288 288 288 288
311 313 312 310 311 311 310 310 311 311 308 308 306 308 306 305 302 300 299 301 301 301 300 300 299 298 295 292 290 289 289 289 288 288 288 288 287 287 287 287 287 287 287 287
311 311 308 311 308 307 309 309 309 308 308 307 308 310 305 304 301 301 301 302 302 300 299 298 297 296 292 291 290 289 289 288 288 288 288 287 287 287 287 287 286 286 286 286
310 309 302 305 306 308 309 309 308 308 304 304 309 308 302 302 301 302 301 301 301 301 298 296 295 293 292 291 290 289 289 288 288 288 288 288 287 287 287 286 286 285 285 285
310 307 307 311 304 306 305 305 304 305 302 302 306 305 303 301 301 301 302 302 301 300 297 297 294 292 292 291 290 289 289 288 288 288 288 288 287 287 286 286 286 285 285 285
308 311 306 305 306 305 305 305 303 304 303 303 301 299 300 299 298 298 299 298 298 300 298 295 293 292 291 290 289 289 289 289 289 288 288 288 287 286 286 285 285 285 284 284
303 301 302 298 301 303 302 302 301 302 302 301 302 301 300 299 297 296 295 295 296 299 298 295 295 292 291 290 290 290 289 289 288 288 288 287 286 286 285 284 284 284 283 283
302 298 296 298 296 295 292 295 298 298 298 297 296 296 292 295 295 295 295 293 292 292 292 292 292 290 290 289 289 289 289 288 288 288 287 286 285 284 284 283 283 282 282 282
298 297 295 291 287 289 294 293 294 295 295 293 293 289 292 295 296 295 293 292 291 291 291 291 291 291 290 289 289 289 288 288 288 287 286 285 284 283 282 282 281 281 282 282
297 296 290 292 286 291 294 294 294 294 293 289 291 289 293 294 290 290 291 290 291 291 291 290 290 290 289 289 289 288 288 288 287 286 285 283 283 282 281 281 281 281 280 280
295 296 295 282 287 289 291 293 293 292 290 289 292 289 291 289 286 287 291 290 290 290 290 290 290 289 289 289 288 288 288 287 286 285 283 283 282 281 280 280 280 279 278 278
287 289 296 293 285 286 289 291 292 288 291 292 293 293 291 287 290 293 291 291 290 290 290 290 290 289 289 288 288 287 286 286 285 283 283 282 280 280 280 280 279 278 277 275
290 290 288 284 288 289 290 290 291 292 292 293 293 293 293 292 292 291 291 291 290 290 290 289 289 289 289 288 288 287 286 285 283 282 282 280 280 279 279 279 278 277 275 274
290 290 286 289 288 291 291 293 294 294 293 292 292 292 292 291 291 291 291 290 289 289 289 289 289 288 288 287 287 286 285 284 282 282 281 279 279 279 278 278 277 276 274 272
288 289 289 288 289 290 292 294 293 292 292 292 292 291 291 291 291 290 290 289 289 289 289 289 288 287 287 286 285 285 284 282 282 281 280 279 279 278 277 277 275 274 273 272
289 288 286 287 290 290 291 291 292 292 292 291 291 291 291 291 290 290 290 290 289 289 289 288 288 287 286 285 284 283 282 281 281 280 279 278 278 277 277 276 274 273 273 271
290 291 290 290 291 291 291 292 292 291 291 292 291 291 291 291 291 290 290 290 289 289 288 288 287 285 284 284 283 282 280 280 280 279 278 277 277 276 275 275 275 274 273 272

GFSCGP_850_thetae_027.txt.gz
Theta_e
311 308 308 308 308 308 309 310 311 310 310 312 310 309 309 311 308 304 303 302 302 301 301 303 304 304 305 306 306 307 308 309 310 311 313 316 319 321 322 319 319 319 320 320
308 308 308 307 307 309 309 310 309 309 309 310 310 310 309 305 304 304 302 301 300 300 301 302 303 304 305 306 306 306 306 306 307 307 309 311 313 314 317 317 315 315 316 316
309 311 309 309 309 310 310 310 311 311 311 309 310 310 311 304 303 303 302 301 300 300 300 301 303 303 303 303 303 304 304 305 305 305 306 307 308 310 312 313 313 312 311 311
309 310 312 310 311 310 312 309 310 311 311 312 309 312 309 306 303 301 300 300 299 300 300 300 300 301 301 301 302 303 303 303 303 303 303 303 304 304 303 303 303 303 303 304
312 312 310 311 311 310 313 309 309 310 309 309 309 309 307 305 305 302 300 299 299 299 300 299 300 300 301 302 302 302 302 302 301 302 302 302 302 302 302 302 302 301 300 300
310 309 309 310 308 309 308 308 308 307 307 310 309 310 310 308 307 302 300 299 299 299 299 299 299 300 301 300 300 300 300 300 300 300 300 300 300 299 299 299 298 297 297 297
311 310 309 309 309 308 308 310 313 312 310 314 309 309 309 305 302 303 300 299 299 300 299 300 300 300 300 300 299 299 298 298 297 297 296 296 296 294 293 292 291 291 291 290
313 316 309 307 309 310 307 310 312 313 311 311 308 312 311 301 300 302 301 301 300 300 299 299 299 300 301 300 297 296 295 295 294 294 294 293 292 292 291 290 290 290 289 289
312 314 308 307 308 309 309 311 309 310 296 306 311 309 304 300 299 299 300 300 300 300 300 300 300 300 300 297 295 293 293 293 292 292 291 291 290 290 290 289 289 288 288 288
312 315 310 309 309 308 309 309 312 308 310 311 310 309 310 302 300 298 298 299 300 301 300 299 299 300 299 296 294 292 291 291 291 290 289 289 289 288 288 288 288 288 288 288
310 312 311 310 310 310 310 311 310 310 307 308 305 308 304 304 301 299 299 300 301 301 300 300 300 300 298 296 293 291 290 290 289 289 288 288 288 288 288 288 288 287 287 287
310 310 307 310 307 305 308 309 309 312 309 305 307 310 303 302 302 301 300 302 303 302 301 300 300 299 298 294 292 290 290 289 289 288 288 288 288 288 288 287 287 287 286 286
310 309 304 310 308 307 308 307 307 305 302 301 308 308 302 301 301 302 302 302 302 302 300 299 298 297 297 294 292 290 289 289 288 288 288 288 288 288 287 287 286 286 285 285
311 309 312 315 309 307 306 306 304 305 307 308 309 308 302 302 301 301 302 302 303 301 301 299 297 296 295 293 292 291 289 289 288 289 289 288 288 288 287 286 286 285 285 284
309 312 306 306 304 305 305 304 302 304 305 308 307 304 303 301 299 301 301 300 299 299 299 298 297 297 294 292 291 290 289 289 289 289 288 288 288 288 287 286 285 284 284 283
302 305 304 304 303 305 306 305 305 305 304 302 302 302 300 299 299 297 297 296 296 297 298 298 297 296 293 292 291 290 289 289 289 288 288 288 288 287 286 285 284 284 283 283
303 301 300 309 297 298 300 297 301 302 301 302 302 301 292 295 294 295 296 295 295 295 295 296 297 295 294 293 291 290 289 289 289 288 288 288 288 287 286 284 283 283 282 282
302 302 301 298 294 302 300 292 294 296 296 294 293 289 292 294 296 296 296 296 295 293 292 292 291 291 291 291 290 289 289 289 288 288 288 288 287 286 284 283 282 282 281 282
298 298 296 300 291 294 297 293 292 293 293 291 294 292 294 294 293 293 294 294 293 292 291 291 291 290 290 290 290 289 289 288 288 288 288 287 286 284 283 282 282 281 281 281
296 297 301 288 293 295 295 292 292 292 291 288 292 290 291 290 288 289 293 293 291 291 290 290 290 290 290 289 289 289 288 288 288 287 287 286 284 283 282 281 281 281 281 280
289 294 300 293 296 291 288 290 292 290 292 291 293 293 291 287 291 293 293 292 291 291 290 290 290 289 289 289 289 288 288 288 287 287 286 285 283 282 281 281 280 280 280 280
291 291 290 288 290 292 290 290 292 292 292 293 292 292 292 292 292 292 292 291 291 291 290 290 290 289 289 289 289 288 288 287 286 286 285 283 282 281 281 280 280 279 279 279
292 292 290 291 291 291 291 293 294 294 294 293 292 292 292 292 292 292 292 291 291 290 290 289 289 289 289 289 288 287 287 286 285 284 282 281 281 280 280 279 279 279 278 277
289 288 290 289 289 289 292 293 293 293 293 294 293 292 292 291 292 291 291 291 290 290 290 289 289 289 289 288 287 286 285 285 284 283 282 280 280 279 278 278 278 278 277 276
289 288 287 287 289 290 291 292 292 292 293 292 292 291 291 291 291 291 291 290 290 290 290 289 289 289 288 287 286 285 284 283 283 282 280 280 279 278 278 278 277 277 276 275
289 289 289 288 292 292 292 292 292 291 291 291 291 291 291 291 290 291 291 290 290 290 290 289 289 288 287 286 284 284 283 283 282 281 279 279 278 277 277 277 277 276 275 274

GFSCGP_850_thetae_030.txt.gz
Theta_e
310 308 309 308 307 309 308 308 310 309 310 311 310 309 309 306 304 302 302 301 301 302 302 302 303 304 305 306 306 307 309 310 311 313 314 316 317 319 320 317 316 317 317 317
307 308 308 307 307 308 309 309 308 308 308 309 309 309 309 304 303 303 301 300 300 301 302 303 304 305 305 305 305 306 306 306 306 307 307 308 311 312 314 315 314 313 313 312
308 311 307 308 307 308 307 308 309 310 310 309 309 309 306 303 302 301 301 300 299 300 301 301 301 301 302 302 303 303 303 303 303 303 304 304 305 307 306 306 307 304 304 304
307 308 310 308 309 307 309 307 309 310 311 313 308 311 308 304 302 300 299 299 299 299 300 300 300 301 302 302 302 302 302 302 301 302 302 302 302 302 302 302 302 302 302 302
312 309 309 310 310 309 311 308 309 309 309 308 309 309 307 304 304 301 299 299 298 299 299 299 300 301 301 300 300 300 301 300 300 300 300 300 300 299 298 297 298 298 297 297
310 309 308 309 307 308 306 308 307 306 307 310 309 310 309 306 306 302 299 299 299 299 298 298 300 300 299 299 298 298 299 300 299 299 299 299 298 297 296 295 295 293 292 292
311 310 308 308 308 307 307 309 313 312 311 314 308 308 309 306 303 302 300 299 298 299 299 298 299 299 298 298 297 298 298 298 297 297 296 296 296 295 294 293 292 291 290 290
312 314 309 307 308 309 307 310 313 315 312 311 308 311 311 301 300 301 302 301 299 299 298 298 298 299 299 297 297 297 296 296 295 294 294 293 292 292 292 291 290 290 289 288
311 313 307 307 307 308 308 309 309 309 295 307 310 309 303 300 299 298 299 300 300 299 299 299 299 299 299 299 296 295 294 294 293 292 291 291 290 290 290 289 289 289 289 289
311 315 309 307 308 308 309 308 312 308 309 310 311 309 311 304 301 298 297 299 300 300 299 299 299 300 300 298 295 294 293 292 291 290 290 289 289 289 288 288 288 288 288 287
309 313 311 308 308 309 310 310 309 309 308 310 307 310 303 304 300 299 299 301 301 301 301 301 300 299 299 297 295 293 291 290 290 289 289 289 289 289 288 288 288 287 287 286
309 309 309 310 306 305 307 309 308 312 310 304 307 312 301 302 300 300 300 302 303 303 302 301 300 299 299 297 296 293 291 290 289 289 289 289 289 288 288 288 287 287 286 286
310 310 305 309 308 306 308 306 306 305 303 304 314 311 301 300 300 301 302 303 303 302 301 301 300 300 299 298 296 293 291 290 289 289 289 289 289 288 288 288 287 286 286 285
311 308 309 314 310 308 308 307 305 308 311 311 311 310 305 303 301 300 302 302 302 302 302 302 301 300 299 297 296 293 291 290 289 288 289 289 288 288 288 288 287 286 285 285
310 311 308 308 305 306 307 307 304 306 308 312 310 306 304 303 301 302 303 303 302 302 301 299 299 299 298 296 295 292 291 290 289 288 289 289 288 288 288 288 287 286 285 284
304 310 306 305 303 305 306 305 303 305 304 303 302 302 300 302 304 302 302 301 300 298 298 298 298 298 297 296 295 293 291 290 289 289 289 288 288 288 288 288 287 286 284 283
305 303 304 312 298 300 307 304 304 303 302 304 304 305 294 296 296 298 299 298 297 297 297 296 296 296 297 296 294 293 291 290 289 289 289 288 288 288 288 287 287 285 284 283
301 301 302 301 299 306 300 292 297 304 302 300 296 292 294 295 297 296 296 296 296 295 294 294 294 294 294 294 293 293 291 290 289 289 288 288 288 288 288 287 287 284 283 282
298 302 298 301 300 300 300 293 292 295 295 291 295 295 294 294 293 293 294 294 294 294 294 293 292 291 291 290 290 290 290 290 289 288 288 288 288 288 287 287 285 283 282 282
297 301 307 294 301 303 296 292 292 293 293 289 292 291 290 291 288 288 292 292 292 293 292 292 291 290 290 290 290 289 289 289 289 288 288 288 288 288 287 286 283 282 281 281
297 296 304 298 301 296 291 290 292 293 297 290 293 293 291 288 291 292 292 292 292 292 292 291 290 290 290 289 289 289 289 289 288 288 287 287 287 287 286 285 282 282 281 280
296 298 297 296 298 300 290 290 293 293 292 294 293 293 292 292 292 292 292 292 292 292 292 291 290 290 290 289 289 289 289 288 288 287 287 287 286 286 285 283 281 280 280 280
295 295 294 297 296 290 291 293 293 294 294 293 293 292 292 292 292 291 291 292 292 292 291 291 290 290 290 289 289 289 288 288 287 287 286 285 285 284 282 281 280 279 279 279
289 288 291 292 290 290 291 293 294 294 293 293 293 293 292 291 291 291 291 291 291 291 291 290 290 290 290 289 289 289 288 288 287 286 285 285 284 283 281 280 279 278 278 278
291 289 288 288 289 290 291 293 293 293 292 292 292 292 292 291 291 291 291 291 291 291 290 290 290 290 289 289 289 288 288 287 286 285 284 283 283 282 280 278 278 277 277 277
289 289 289 289 291 292 292 294 293 292 291 291 291 291 291 291 291 291 291 291 291 290 291 290 290 290 289 289 289 288 287 285 284 284 283 282 282 279 278 278 277 276 276 276

GFSCGP_850_thetae_033.txt.gz
Theta_e
309 309 310 309 307 309 308 309 310 309 309 311 310 309 309 305 304 302 301 301 301 302 302 303 304 305 306 308 309 310 312 314 315 316 318 319 318 318 318 317 316 316 316 316
307 308 308 307 307 308 307 309 308 307 308 309 309 309 307 304 303 303 302 301 301 301 302 302 303 304 305 305 305 306 306 307 307 307 307 308 310 311 312 311 310 308 307 307
307 310 306 307 307 308 307 308 307 310 309 308 309 309 307 302 301 301 300 300 300 301 302 302 302 302 302 303 303 303 303 303 303 303 304 304 304 304 304 304 303 303 303 303
307 308 309 307 308 306 308 306 307 309 310 313 308 313 308 305 302 300 299 299 299 300 300 300 300 301 302 302 302 302 302 302 301 301 302 302 302 302 301 301 300 299 299 299
314 308 309 310 310 307 310 306 307 308 309 309 308 310 308 304 305 302 298 298 298 299 299 299 299 300 300 300 300 300 300 300 300 300 299 299 299 297 295 295 294 294 293 293
310 308 307 309 307 307 305 307 306 305 306 310 310 311 310 307 307 302 299 299 299 298 298 298 299 299 299 299 299 299 299 299 298 298 298 298 298 297 296 295 295 294 292 292
310 309 307 307 307 306 306 309 312 313 312 314 306 308 310 307 304 303 301 299 298 299 298 299 299 299 299 298 298 298 298 298 298 297 297 297 297 296 296 295 293 292 291 291
313 314 308 306 308 309 306 310 313 314 313 312 306 311 312 302 301 302 302 301 299 298 298 299 299 299 299 298 296 297 297 297 296 295 295 295 294 294 293 292 291 290 290 289
312 313 307 306 306 307 308 310 308 307 295 307 310 309 307 300 300 299 300 300 299 299 299 298 299 300 299 298 297 296 295 295 294 293 292 292 292 291 290 290 289 289 289 288
310 314 308 306 307 308 308 307 311 308 311 311 311 311 312 305 303 298 297 298 299 299 298 298 299 300 299 298 297 296 294 292 292 291 290 290 290 289 289 289 288 288 287 287
308 313 310 307 308 309 310 310 308 309 309 312 309 310 304 305 302 300 298 300 301 300 300 300 300 299 299 298 297 294 293 292 291 290 289 289 289 289 289 288 288 288 287 287
308 310 310 309 306 305 307 308 309 313 310 305 307 313 302 302 301 302 301 301 302 302 302 301 301 300 299 299 297 295 294 292 290 289 289 289 289 289 288 288 288 288 287 287
309 311 309 311 309 305 307 306 306 305 304 306 310 311 301 300 300 301 302 303 303 303 302 302 301 300 300 299 297 296 294 291 289 289 289 289 289 289 288 288 288 288 287 287
311 309 312 319 314 308 308 306 305 309 306 310 312 311 303 302 301 300 302 303 303 303 303 302 301 301 300 299 298 296 294 291 289 289 288 289 289 289 288 288 288 288 287 287
310 313 307 309 307 307 308 307 305 309 310 312 312 309 307 303 301 302 304 302 303 303 302 301 301 301 300 299 298 296 294 291 289 289 289 288 289 289 288 288 288 288 288 287
307 314 307 307 305 305 306 305 306 307 308 308 307 306 303 305 303 302 303 302 302 303 302 302 301 298 298 298 298 296 295 292 290 290 289 288 289 288 288 288 288 287 287 287
308 307 310 317 302 305 311 306 305 304 302 307 307 308 297 299 299 302 303 303 303 302 301 298 297 297 296 295 297 296 295 292 291 290 289 289 288 288 288 288 287 287 288 287
305 307 308 299 302 311 301 292 301 305 303 299 297 293 298 300 302 302 301 300 300 298 297 296 294 294 294 295 296 296 294 292 291 290 289 288 288 288 287 287 287 287 287 287
302 305 301 304 304 304 300 292 298 302 302 297 301 298 295 295 295 295 296 296 296 295 293 293 294 294 293 293 292 293 292 292 291 291 289 288 288 287 287 287 287 287 287 286
299 302 310 299 305 308 302 293 292 294 298 289 298 294 290 292 290 290 295 294 292 292 292 293 293 292 291 291 290 290 290 290 289 289 289 288 287 287 287 287 287 287 286 286
299 299 307 302 304 302 296 290 293 300 302 292 294 293 291 290 293 293 292 292 292 292 292 292 292 291 291 290 290 290 289 289 288 289 288 288 288 287 286 286 286 287 286 285
300 302 301 300 301 305 292 291 296 296 292 294 294 295 294 295 294 292 292 292 292 292 292 292 291 291 291 290 290 290 289 289 289 288 288 288 287 286 286 286 286 286 285 284
299 299 300 301 301 291 292 294 294 294 295 294 294 294 294 294 292 292 292 291 291 291 291 292 291 291 291 290 290 290 289 289 289 288 288 287 286 286 285 285 285 285 284 283
291 290 292 294 291 290 292 293 294 294 294 294 294 293 292 292 292 291 291 291 291 291 291 291 291 291 290 290 290 290 289 289 288 288 287 286 285 285 284 284 284 284 283 280
293 290 289 290 289 290 291 293 294 294 293 293 292 292 292 292 292 291 291 291 291 291 291 291 290 290 290 290 290 290 289 288 288 287 286 285 284 284 283 282 283 282 280 278
289 289 291 291 291 293 293 294 294 293 293 292 291 291 291 291 291 291 291 291 291 291 291 290 290 290 290 289 289 289 289 288 288 287 285 284 283 282 282 283 282 279 278 277

GFSCGP_850_thetae_036.txt.gz
Theta_e
311 316 317 317 316 316 316 316 318 315 312 314 317 317 314 309 308 307 305 304 302 302 303 304 305 308 310 313 315 317 319 320 320 320 320 320 319 318 318 316 315 315 316 315
313 316 317 312 312 313 313 316 317 314 311 313 315 315 315 309 310 308 306 303 302 301 302 303 305 307 309 310 310 310 310 311 312 312 312 312 314 313 309 308 306 305 305 305
317 315 311 312 311 313 313 315 316 316 312 311 313 316 316 310 306 305 304 303 301 301 302 303 304 304 305 305 304 304 304 304 304 304 305 305 305 304 303 303 302 302 302 302
313 311 310 311 313 313 316 312 312 312 313 319 313 322 317 313 309 305 303 301 301 299 300 301 302 302 302 302 302 302 302 302 302 302 302 302 302 302 301 300 299 298 297 297
316 311 312 313 314 311 317 310 312 312 314 314 315 317 319 310 311 307 304 301 301 299 299 300 300 301 301 301 301 301 301 301 301 300 300 299 299 298 297 296 295 294 293 293
314 308 311 314 309 311 309 311 311 311 314 318 317 317 320 315 313 311 304 301 300 298 299 299 299 300 300 299 300 300 300 299 299 298 298 297 297 296 296 295 294 294 293 292
313 313 309 308 311 308 311 315 320 319 318 321 310 315 319 315 309 309 306 302 300 298 297 298 299 299 299 299 299 299 298 298 297 297 297 297 297 296 296 295 295 294 293 292
320 321 312 309 315 315 312 317 322 325 321 319 309 315 316 307 304 304 306 302 300 298 297 298 299 299 299 299 298 298 297 297 297 297 297 296 296 295 295 294 293 292 291 291
318 319 309 307 308 313 311 313 314 313 305 317 317 314 312 305 304 303 303 301 299 298 298 299 299 299 299 298 298 297 297 296 296 296 295 295 294 293 293 292 291 290 290 289
316 318 309 307 309 309 311 312 314 314 322 323 318 317 320 310 308 304 303 302 300 299 298 298 299 299 298 297 297 296 295 295 295 295 294 293 292 291 291 290 290 289 288 288
312 315 312 308 311 314 311 312 312 314 316 324 323 319 314 315 310 306 304 303 301 299 299 299 299 299 299 298 297 296 295 294 294 293 292 291 291 290 290 289 288 288 288 287
313 314 316 312 308 306 312 314 313 318 316 313 315 320 306 308 309 307 306 303 302 300 300 300 299 299 299 299 298 296 294 294 293 292 291 291 290 289 289 288 288 288 288 287
312 316 320 316 310 307 310 310 311 313 314 319 322 320 305 304 304 304 305 303 302 301 301 300 299 299 299 299 298 297 295 294 292 291 290 290 289 289 289 288 288 288 288 288
312 315 318 322 320 315 313 311 310 313 317 318 317 317 308 307 306 304 303 304 302 302 302 299 299 300 299 299 298 298 297 294 293 291 290 289 289 288 288 288 288 288 288 288
312 316 315 315 314 312 314 313 311 312 314 318 318 316 313 309 307 307 306 303 302 302 301 300 301 300 300 300 299 298 296 295 294 291 289 289 288 288 288 288 288 288 288 288
309 317 315 315 315 311 312 312 311 312 313 314 315 314 312 309 306 304 304 302 302 302 302 302 302 302 301 301 301 299 298 296 294 292 290 289 288 288 288 288 288 288 288 287
311 314 313 319 315 308 311 312 311 311 312 312 314 313 306 305 305 306 304 303 304 302 302 302 302 302 301 300 298 298 298 296 295 293 290 289 289 288 288 288 288 288 287 287
312 313 314 316 309 315 310 299 310 310 309 308 306 305 305 305 304 304 304 304 303 303 302 302 302 300 297 296 295 295 296 296 294 292 290 290 289 288 288 288 287 287 287 287
305 308 304 309 310 312 300 298 306 308 311 305 307 303 299 298 300 300 302 302 302 302 301 299 297 295 293 293 294 294 295 295 294 293 291 291 290 289 288 288 287 287 286 286
301 305 312 305 314 317 307 297 296 301 308 299 304 301 296 295 304 305 300 298 297 296 295 293 293 293 293 293 293 293 293 294 293 291 291 290 289 289 288 287 286 286 286 285
303 302 310 307 311 308 304 294 294 307 311 296 302 300 295 298 301 297 296 296 294 293 293 292 292 292 293 292 292 291 290 290 290 289 289 288 288 288 287 287 286 285 285 285
305 306 307 306 309 311 293 293 301 301 295 297 296 299 297 296 294 294 293 292 292 292 292 292 292 292 292 291 291 290 290 290 289 289 288 289 288 288 287 286 286 285 285 285
304 305 307 306 307 294 294 295 295 295 296 294 295 295 295 294 294 293 292 292 292 292 292 291 291 291 291 291 290 290 290 289 289 289 289 289 288 288 287 286 285 285 285 284
295 292 300 300 295 293 293 294 295 294 296 296 295 295 295 294 294 292 292 292 292 291 291 291 291 291 291 290 290 290 290 290 289 289 289 288 288 287 286 285 285 284 284 283
296 294 294 293 291 291 292 294 298 296 294 294 293 293 293 293 292 292 292 292 291 291 291 291 291 291 291 291 290 290 290 289 289 289 288 287 287 286 285 284 284 283 283 283
291 292 294 296 293 295 295 298 294 294 293 293 293 293 292 292 292 292 292 291 291 290 291 291 291 290 290 290 290 290 289 289 289 288 287 287 286 285 284 283 283 282 282 282

GFSCGP_850_thetae_039.txt.gz
Theta_e
316 317 319 320 319 320 319 320 321 321 316 316 318 319 319 313 312 313 312 310 308 305 303 306 307 309 313 316 319 320 321 321 321 321 321 321 321 319 319 317 315 314 312 311
316 317 319 319 319 319 318 319 320 320 315 314 318 319 319 316 313 313 313 311 308 304 302 304 307 309 314 316 318 318 318 318 319 319 318 318 317 314 309 306 306 305 304 304
319 319 316 316 316 317 318 318 319 320 316 314 316 318 319 318 315 313 312 311 308 305 303 303 306 308 311 313 313 313 314 315 315 314 313 311 307 305 304 303 303 302 302 301
317 318 315 316 317 317 319 318 317 317 317 321 317 322 321 321 316 312 309 308 306 305 303 302 304 307 308 308 308 308 308 307 306 306 305 304 304 303 302 301 300 299 298 297
318 314 314 315 317 316 318 315 316 317 318 319 320 318 321 321 319 315 310 307 306 304 302 300 300 303 304 304 304 304 303 303 302 302 302 301 301 300 299 298 297 296 296 295
316 311 314 316 312 314 314 315 315 315 318 322 321 321 323 320 317 318 310 307 305 303 301 299 300 302 302 302 302 302 302 301 300 300 299 298 298 298 297 296 296 295 295 294
316 315 313 312 314 311 315 318 324 323 321 324 317 322 322 321 314 315 310 306 305 302 300 298 300 300 301 301 301 301 300 299 299 298 298 297 297 297 296 296 295 294 294 293
322 323 318 313 318 319 315 319 325 328 327 324 311 318 319 315 312 309 310 306 304 302 299 298 300 300 301 301 300 300 299 298 298 298 297 297 296 296 295 295 294 293 293 292
322 323 315 314 315 318 316 318 319 320 312 319 319 317 316 309 307 307 309 306 303 301 299 298 299 300 300 300 300 299 298 298 298 297 297 296 295 294 294 294 293 293 292 292
321 322 314 312 310 312 315 315 316 317 326 326 322 322 321 312 310 308 308 306 303 301 299 298 298 299 299 299 299 298 298 297 297 297 296 295 294 293 293 293 292 291 291 290
318 318 314 310 312 315 313 314 315 317 320 325 325 322 319 319 314 309 307 305 303 301 299 298 298 299 299 299 299 298 297 296 296 296 295 294 293 292 292 291 291 290 289 289
317 318 323 317 313 311 315 316 315 319 319 317 319 322 311 317 316 311 308 306 304 302 300 299 298 299 299 298 298 298 296 296 295 295 294 293 292 291 291 291 290 289 289 288
315 317 322 322 313 309 311 313 314 315 318 321 323 323 309 308 310 310 309 306 305 303 301 299 298 298 298 299 299 298 297 296 295 294 293 292 291 291 290 290 289 289 288 288
314 318 321 325 322 317 314 313 313 314 317 319 320 320 310 309 309 308 308 307 305 303 301 300 298 298 298 299 299 298 298 295 295 294 293 292 291 290 290 289 289 288 288 288
315 319 319 319 320 319 316 315 313 313 315 318 319 319 318 311 310 309 307 307 305 303 302 301 300 298 298 297 297 298 297 297 296 295 294 293 290 289 289 289 289 288 288 288
311 317 316 317 318 318 317 315 315 313 314 315 316 317 317 312 310 310 308 306 305 304 304 303 301 299 298 297 297 298 298 298 297 297 295 292 290 289 289 288 288 288 288 288
311 313 315 319 317 317 315 316 315 315 313 315 316 316 313 312 308 308 307 306 307 306 305 303 302 300 299 298 299 299 300 299 299 297 295 292 290 290 289 288 288 288 288 287
311 310 314 318 314 320 317 314 313 315 315 314 313 310 309 309 307 308 308 307 306 305 304 303 301 300 300 300 301 301 300 299 298 297 295 293 291 290 288 288 288 287 287 287
310 311 314 317 317 317 317 303 309 313 315 314 312 307 303 305 308 309 311 310 307 306 304 303 302 301 301 301 301 298 297 295 295 295 295 294 292 290 289 289 288 288 287 287
303 310 313 310 318 320 313 304 304 308 314 309 309 305 301 301 308 308 305 303 304 303 303 302 301 301 299 296 295 294 294 294 294 295 295 294 293 291 290 289 289 288 287 287
305 307 311 315 315 316 306 297 301 313 316 302 306 302 300 303 306 304 302 300 299 299 298 297 295 294 293 293 293 293 293 292 292 293 291 290 290 290 289 289 288 288 287 286
309 310 310 312 313 315 298 296 307 304 297 300 304 305 303 301 300 298 297 297 296 295 294 293 293 293 292 292 292 292 292 291 290 290 289 289 289 288 288 288 288 287 286 286
308 309 311 310 310 295 296 296 298 298 300 299 302 304 303 301 297 295 296 295 294 293 293 293 292 292 292 292 292 291 291 291 290 290 289 289 289 288 288 288 288 287 286 285
299 297 306 305 298 297 294 297 298 300 300 300 297 299 299 299 294 294 293 293 293 292 292 292 292 292 291 291 291 291 291 290 290 290 290 289 289 289 288 288 287 287 286 285
298 297 300 296 293 293 295 297 300 299 295 296 296 296 295 295 294 294 293 292 292 292 292 292 292 291 291 291 291 291 290 290 290 289 289 289 289 288 288 287 287 286 285 284
294 296 298 301 294 299 296 300 300 299 299 298 295 294 294 294 294 293 292 292 292 292 292 291 291 290 290 291 290 290 290 289 289 289 289 289 288 288 287 287 286 286 285 284

GFSCGP_850_thetae_042.txt.gz
Theta_e
315 315 316 316 316 317 318 318 318 320 314 316 315 315 316 313 312 313 313 312 310 308 307 307 307 308 313 314 317 320 319 320 321 321 322 322 321 321 320 319 317 314 312 311
315 316 317 318 318 318 317 317 317 318 314 314 315 315 316 313 312 312 313 313 310 307 306 306 307 309 314 314 316 317 318 318 318 319 319 320 321 318 316 312 310 306 305 305
317 318 317 317 317 318 317 317 317 318 315 314 313 313 315 316 315 313 313 314 311 308 306 304 306 309 313 315 315 316 317 317 317 319 319 318 317 311 306 304 303 302 301 301
317 317 316 317 317 316 317 317 316 317 316 317 314 318 318 317 316 312 313 314 311 307 305 304 305 308 312 315 316 316 317 317 318 317 316 312 306 304 303 301 300 299 298 297
317 314 314 316 316 316 317 315 316 316 316 317 317 318 318 317 318 315 312 311 310 307 305 303 305 308 310 312 312 312 313 313 311 309 306 304 303 302 301 299 297 297 296 296
315 313 314 315 312 314 313 315 315 315 316 318 318 319 319 319 318 316 312 310 309 306 304 303 303 306 308 309 309 308 307 306 305 303 302 301 301 299 298 297 297 296 296 295
314 313 313 313 313 312 315 316 320 319 317 319 316 319 319 317 315 315 312 310 308 305 303 301 302 304 306 306 306 305 303 302 301 300 299 298 298 298 297 297 296 296 295 294
317 319 314 312 315 315 313 317 320 323 322 320 311 315 317 313 310 312 313 309 307 304 302 301 302 303 303 303 303 303 302 301 300 299 298 298 298 297 297 297 296 295 294 294
319 320 314 312 313 316 315 316 317 317 308 313 317 314 313 309 308 308 309 307 305 303 301 300 301 301 302 302 302 302 301 300 299 298 298 298 298 297 297 296 295 294 294 293
320 322 315 309 311 312 314 314 316 315 316 319 320 319 319 311 309 306 307 306 304 302 301 300 300 301 301 301 301 300 300 299 299 298 298 298 297 297 296 295 294 293 293 292
317 319 313 310 311 314 312 313 314 316 316 319 319 320 315 314 311 307 307 306 304 302 301 300 300 300 301 301 300 300 299 299 298 298 298 297 297 296 294 294 293 292 292 291
316 318 315 312 311 311 314 314 314 316 317 315 315 320 311 311 310 308 307 306 304 303 301 300 300 300 300 300 299 299 299 298 297 297 297 297 296 295 294 293 292 292 291 291
315 317 318 317 312 310 311 311 314 315 313 318 317 319 307 307 309 309 307 306 304 303 301 300 299 299 300 300 299 299 298 298 297 297 296 296 295 294 293 293 292 291 290 290
316 317 318 322 320 315 312 311 312 314 315 315 317 317 310 308 308 308 308 306 305 303 302 300 299 299 300 300 299 298 298 297 297 296 296 296 295 294 293 292 291 290 290 289
315 318 317 318 318 317 313 312 312 313 314 316 317 316 316 311 307 308 309 307 305 303 302 301 300 300 299 298 299 298 297 297 297 296 296 296 295 293 292 291 290 289 289 289
311 316 316 318 316 317 318 317 312 311 312 314 314 315 314 315 311 308 308 307 305 304 303 302 302 300 299 299 298 298 298 297 297 296 297 296 295 294 292 291 290 289 289 288
311 313 315 319 315 316 318 317 317 316 312 313 313 314 312 311 307 308 307 307 306 305 304 303 303 302 300 299 298 298 297 297 298 298 298 297 295 294 292 291 290 289 288 288
311 311 314 318 316 320 316 314 315 316 316 313 312 307 308 310 310 310 309 308 307 306 305 304 303 302 301 299 298 298 297 298 298 298 298 296 295 294 292 291 289 289 288 288
312 311 316 318 320 318 316 304 309 313 316 314 313 310 306 308 307 306 308 308 307 307 307 308 307 306 305 302 299 299 298 297 297 298 298 297 296 294 292 291 290 289 288 288
304 311 314 313 319 321 308 300 305 308 314 308 311 311 302 306 309 307 308 311 311 311 310 312 310 306 302 301 300 299 298 299 299 297 295 294 294 294 293 292 290 289 288 288
308 310 312 315 316 313 301 296 305 312 309 301 308 304 303 307 307 311 311 311 311 311 307 304 303 302 301 300 300 299 298 295 294 293 294 294 294 294 293 291 290 289 288 288
308 309 310 312 314 316 298 299 307 302 298 304 305 303 303 305 307 308 308 306 304 303 301 301 300 299 297 295 293 293 293 292 292 292 293 291 290 290 289 289 289 288 288 288
309 308 310 310 310 296 297 296 298 298 299 304 305 305 305 303 302 302 302 301 300 298 297 295 293 293 292 292 292 292 292 292 291 291 291 290 289 289 289 288 288 288 288 288
298 298 304 304 300 296 295 297 298 298 299 300 300 304 303 301 299 297 297 296 295 294 293 292 292 292 292 292 292 291 291 291 291 290 290 290 290 289 289 289 288 288 288 288
298 299 300 294 294 296 296 298 300 300 301 299 298 297 300 300 297 296 295 295 293 293 292 293 293 292 292 292 291 291 291 291 290 290 290 290 289 289 289 289 289 288 287 286
294 298 300 302 296 299 300 301 302 303 303 297 296 296 295 296 295 294 294 293 293 293 293 293 292 292 291 291 291 290 290 290 290 289 289 289 289 289 288 288 288 287 286 285

GFSCGP_850_thetae_045.txt.gz
Theta_e
314 311 312 312 311 313 315 316 316 315 314 313 312 312 311 313 312 311 311 311 310 310 309 309 309 309 310 311 312 314 318 319 320 321 322 322 322 321 321 321 320 318 316 314
313 313 313 313 313 314 314 314 314 314 313 312 312 312 312 311 311 312 312 312 311 309 308 308 308 308 310 312 312 316 318 318 320 320 321 321 320 320 320 319 316 313 309 307
313 315 315 314 315 316 315 315 314 315 313 312 312 312 312 312 312 313 312 313 311 311 310 308 307 308 311 312 313 317 317 317 318 318 319 319 318 319 317 313 308 304 303 302
313 314 315 314 315 314 315 314 315 315 315 315 312 316 314 313 312 309 312 311 312 310 309 309 308 308 311 313 313 315 316 316 316 316 318 318 319 316 308 304 303 301 299 298
314 314 314 315 315 313 315 314 315 314 314 315 314 314 314 314 315 315 312 310 311 311 310 309 308 308 310 313 313 313 314 315 316 317 318 318 314 306 303 301 300 298 297 296
313 313 312 313 310 313 311 313 313 313 313 315 315 315 316 317 316 316 314 311 311 310 309 309 307 306 309 313 314 314 315 316 317 316 316 310 305 304 302 299 298 297 296 296
313 312 312 312 312 312 313 313 316 317 315 319 314 315 318 315 314 313 312 310 310 310 308 307 306 306 307 311 313 314 315 315 314 312 306 303 302 301 299 298 297 297 296 295
316 316 312 310 312 313 312 314 316 319 318 317 311 315 316 314 315 312 313 314 310 307 307 306 306 306 306 309 310 311 311 311 308 304 302 301 299 298 297 297 297 297 296 295
315 315 311 310 313 314 312 315 315 317 302 310 315 313 312 309 308 309 310 309 307 306 306 305 305 305 306 308 309 308 308 306 303 301 300 298 298 297 297 297 297 296 295 295
316 320 311 309 312 312 313 312 315 312 314 315 316 316 318 313 310 306 306 306 305 304 305 305 305 304 305 306 306 305 304 302 302 300 299 298 298 297 297 297 296 295 295 294
315 318 312 309 311 313 313 313 314 315 313 317 317 318 312 314 311 307 306 307 307 305 304 304 304 303 303 303 304 303 302 301 300 299 298 298 297 297 297 296 295 295 294 293
314 316 310 312 309 309 312 314 312 317 315 311 313 320 309 311 309 309 308 307 307 306 305 304 303 303 302 301 301 301 301 300 299 298 297 297 297 297 296 296 295 294 293 292
315 317 318 315 312 309 311 311 314 313 307 316 315 319 307 308 310 310 308 307 306 305 303 303 302 302 301 300 300 300 300 300 298 297 297 297 297 296 296 295 295 294 293 291
315 316 319 321 320 313 311 311 311 314 316 315 317 318 312 310 310 307 307 308 307 305 304 302 302 302 301 300 299 299 299 298 298 297 297 297 297 296 295 294 294 293 292 291
316 318 316 318 316 313 312 311 312 313 314 316 317 316 316 313 308 308 311 307 306 304 304 304 303 302 301 300 299 299 299 298 297 296 296 297 296 295 294 294 293 291 291 290
313 316 316 318 316 315 316 312 312 313 313 314 315 315 312 314 313 309 311 309 307 306 306 304 302 300 301 300 300 299 298 297 297 296 296 295 295 294 294 293 292 291 290 289
313 315 315 320 315 315 318 317 316 314 312 312 314 314 311 312 311 309 309 309 308 309 307 304 303 302 301 301 301 299 298 297 296 296 295 295 294 294 294 293 291 291 290 289
310 314 314 319 316 320 317 313 316 317 316 313 311 313 307 311 313 314 313 312 310 309 307 306 305 304 303 301 300 299 298 299 297 296 295 294 294 293 293 292 292 290 289 289
313 313 314 318 320 317 315 306 312 314 316 315 315 314 313 311 309 308 311 310 310 309 308 307 306 305 304 302 301 301 299 298 297 296 296 295 294 293 293 293 292 290 289 289
312 315 315 313 320 321 312 304 303 309 318 310 312 314 313 305 310 311 310 309 308 308 307 306 306 306 306 306 304 306 306 300 298 296 296 295 295 295 295 294 292 291 290 289
312 314 316 317 319 314 303 297 304 316 312 298 306 309 307 307 312 311 311 308 307 307 309 310 310 311 311 310 309 307 301 299 299 297 296 296 296 295 294 293 293 291 290 289
312 314 313 314 316 319 302 301 310 303 300 302 305 306 306 307 308 310 308 309 310 310 307 308 309 307 304 302 301 300 299 299 298 297 296 294 293 293 294 293 292 291 290 289
310 308 309 310 311 301 299 302 302 299 299 303 304 305 305 305 306 308 308 308 307 306 305 303 302 302 301 300 299 299 297 295 293 293 292 292 293 291 290 290 289 289 289 288
300 299 305 305 301 296 295 297 298 298 298 301 303 305 304 304 303 303 302 302 302 302 301 301 299 298 295 293 292 292 292 292 292 291 291 291 290 290 290 289 289 288 288 288
300 300 301 300 295 297 299 297 299 301 303 303 299 300 303 302 300 300 301 300 299 298 296 295 293 292 292 292 292 291 291 291 291 291 291 290 290 290 289 289 289 288 288 288
295 299 303 304 299 302 303 301 303 305 301 298 296 297 298 300 300 297 297 296 295 294 293 292 292 292 292 292 291 291 291 291 290 290 290 290 289 289 289 288 288 288 288 287

GFSCGP_850_thetae_048.txt.gz
Theta_e
313 311 311 311 309 312 313 313 315 314 313 312 310 311 311 311 310 310 311 311 311 312 311 310 309 310 310 311 312 312 312 315 320 322 321 321 322 321 321 320 320 322 320 319
311 312 311 311 311 311 312 313 312 312 312 311 312 311 310 310 310 311 312 313 313 311 310 309 309 309 310 311 312 312 313 315 319 319 320 320 320 320 320 319 320 320 317 315
312 314 313 313 313 313 313 312 313 314 313 311 311 310 310 311 311 313 314 315 314 313 312 309 309 309 309 310 312 313 315 316 318 319 319 319 319 318 318 318 318 314 311 307
312 313 313 313 314 313 314 312 314 314 314 314 311 315 312 311 310 309 313 312 313 312 310 310 309 309 309 310 312 314 316 317 317 318 319 319 319 319 318 318 314 307 303 302
313 313 313 314 314 312 314 313 313 313 312 314 313 313 312 312 312 312 314 314 314 312 312 311 310 310 309 310 312 314 316 317 316 317 317 317 319 318 317 311 305 302 299 297
312 312 312 313 311 312 311 313 312 311 312 314 314 313 313 314 315 313 314 315 316 315 312 310 310 309 308 311 313 314 315 314 314 314 315 315 318 317 311 304 302 299 297 296
312 312 311 311 312 312 312 313 314 316 314 317 312 313 316 313 312 313 315 317 316 314 311 308 309 308 308 310 312 313 312 312 312 313 314 316 317 314 306 303 300 298 297 296
315 315 311 310 313 313 312 312 314 316 316 315 311 315 316 311 314 314 315 314 313 311 309 308 308 308 308 309 311 313 311 310 313 314 316 315 313 305 303 301 298 297 296 296
314 315 311 310 311 313 312 314 314 315 299 310 315 313 312 310 309 310 312 311 309 311 309 307 308 308 308 308 309 312 313 313 314 315 314 310 304 302 300 297 296 296 296 295
313 315 310 310 312 311 311 311 314 311 314 314 315 315 318 313 311 310 309 307 309 309 306 306 307 307 307 307 308 311 313 314 314 313 310 303 301 299 297 296 296 296 296 295
313 315 312 310 311 312 312 312 313 314 312 315 314 316 310 314 311 310 309 312 310 308 308 307 307 307 306 306 306 309 311 311 311 309 304 301 299 297 296 296 296 296 295 295
312 316 310 311 309 308 311 313 312 314 313 311 312 319 310 310 311 311 312 314 312 310 309 308 307 306 305 304 305 307 308 308 308 305 301 299 298 296 296 296 296 295 295 295
313 314 312 313 312 309 310 311 314 312 308 313 316 320 306 306 309 311 312 314 310 308 307 306 306 305 305 304 304 306 307 306 304 300 299 298 297 296 296 296 295 295 295 294
314 315 315 318 317 312 311 310 311 315 317 317 316 318 312 311 310 309 311 311 311 308 307 307 306 305 304 303 303 304 304 302 300 298 297 296 296 296 296 296 295 295 294 293
314 317 314 316 315 313 312 311 312 314 315 318 318 316 317 314 309 311 313 312 309 308 307 307 306 305 304 303 302 302 302 301 299 297 297 296 296 295 295 295 294 294 293 292
312 317 316 317 315 313 314 311 312 313 314 315 316 317 312 314 315 310 313 313 310 311 312 311 307 305 305 304 302 301 301 300 299 297 296 295 295 295 294 294 293 293 292 291
316 316 317 320 316 313 317 316 313 312 313 313 315 315 311 312 311 311 312 312 312 313 315 313 311 309 306 306 304 302 300 299 298 296 295 294 294 294 293 293 293 292 292 291
311 315 316 320 316 321 317 315 316 316 313 311 311 312 308 311 313 313 312 313 313 314 314 313 311 308 305 304 303 301 300 299 297 295 295 294 294 293 293 293 292 292 293 290
314 314 316 318 320 318 315 309 312 314 317 315 314 313 313 313 310 310 313 314 314 314 314 313 312 308 305 303 301 300 299 298 297 296 295 294 294 293 294 293 292 291 294 291
314 314 314 313 319 321 314 307 310 310 318 312 313 314 314 310 311 314 314 314 313 313 312 311 309 306 305 304 302 301 300 299 299 298 297 295 295 297 293 292 292 295 295 294
313 316 315 316 318 316 303 297 310 317 315 299 306 307 309 308 313 310 312 313 312 311 310 308 307 307 306 304 303 301 302 305 307 305 305 304 300 297 293 291 293 295 293 289
312 316 317 316 318 319 303 302 313 306 300 302 304 306 306 308 309 310 310 311 309 308 306 306 305 304 304 306 306 306 309 308 307 303 298 295 294 293 293 292 293 292 291 290
310 311 311 311 312 304 303 304 305 303 303 304 306 306 306 306 307 308 306 305 305 305 306 307 306 306 306 305 304 304 304 301 298 297 296 295 295 294 294 293 293 292 291 291
302 300 308 307 304 300 299 300 300 298 300 303 305 305 305 305 305 306 306 307 308 308 308 307 306 305 304 301 300 299 299 298 297 296 295 294 293 293 293 293 292 291 290 289
302 302 304 303 300 298 301 300 299 297 298 300 299 302 303 303 303 303 305 305 305 304 302 301 301 300 298 295 294 293 293 292 292 292 292 291 291 291 291 290 289 289 288 288
297 301 305 306 302 304 304 305 299 299 300 298 302 299 300 301 300 300 301 301 300 300 298 297 294 293 292 292 292 292 291 291 291 291 291 291 290 290 290 289 289 288 288 288

GFSCGP_850_thetae_054.txt.gz
Theta_e
310 309 310 310 308 310 309 311 312 310 311 311 309 308 309 312 310 310 313 314 314 314 316 314 313 313 312 311 311 311 312 312 312 313 314 323 321 322 322 323 321 323 322 323
309 309 309 309 308 311 311 312 311 309 310 311 310 310 309 309 309 312 314 314 315 316 317 316 314 313 312 312 311 311 311 312 312 312 315 322 319 321 322 321 322 322 321 320
310 312 309 310 310 311 310 310 310 312 311 308 309 309 308 309 310 312 313 314 315 316 317 317 315 314 313 313 312 311 311 311 312 312 315 321 319 320 320 321 320 319 318 318
310 310 311 310 311 310 311 308 310 311 313 312 310 312 309 310 309 308 313 314 316 316 316 316 315 315 314 314 312 311 310 311 312 313 318 320 317 319 320 319 319 319 318 318
311 310 311 312 311 309 312 309 309 311 311 312 310 312 310 310 311 311 312 315 317 317 317 316 316 315 314 313 312 310 309 310 312 313 315 316 318 319 319 318 318 317 317 317
310 310 310 311 310 310 308 310 309 308 309 313 311 311 312 311 312 311 312 315 316 316 316 315 315 314 313 312 311 309 308 310 312 313 314 316 317 318 317 317 317 317 316 314
311 310 310 311 311 310 311 312 313 312 311 315 309 311 314 310 310 309 311 315 315 315 315 316 317 316 315 313 310 309 308 309 312 313 315 315 316 317 316 317 316 315 315 310
311 311 310 308 311 312 310 312 313 312 310 310 309 312 312 309 310 313 313 315 314 314 315 316 316 315 314 312 310 309 308 309 312 313 315 315 316 315 315 315 316 315 314 309
310 310 309 308 310 311 311 312 312 312 296 307 310 309 309 308 309 310 312 313 315 315 316 317 316 315 313 312 310 308 308 308 311 313 315 315 314 315 315 314 315 315 314 304
310 312 309 309 310 310 310 310 313 309 311 309 311 311 313 314 311 310 308 313 315 316 316 317 316 315 313 312 309 308 307 308 310 313 315 314 313 314 314 314 314 313 307 299
310 312 310 309 309 310 311 312 311 311 310 310 309 313 308 311 311 311 310 315 315 316 317 316 316 315 313 310 309 308 307 308 311 313 315 313 312 313 313 313 312 310 302 297
309 311 313 310 308 306 308 310 310 311 310 308 309 315 309 309 308 309 313 315 315 316 315 314 314 315 313 312 310 308 307 307 309 312 314 312 310 310 310 311 311 306 298 295
311 314 312 313 311 307 309 308 310 308 305 310 311 316 306 307 306 311 312 314 315 315 316 316 315 315 314 313 311 309 307 307 309 311 313 312 309 309 309 310 310 302 295 294
313 313 314 317 313 310 309 308 309 312 313 315 313 314 313 311 309 308 312 313 314 316 315 315 316 316 313 313 311 309 308 307 308 310 311 311 310 309 310 310 307 299 295 293
314 314 313 314 311 310 309 309 310 312 313 313 315 313 314 312 310 312 316 314 315 316 315 316 316 316 314 313 312 310 308 307 307 307 309 310 309 310 310 309 304 296 293 292
313 315 312 315 313 311 312 309 309 311 312 312 313 313 314 313 313 311 314 316 315 315 315 316 316 315 316 315 313 311 309 307 306 306 306 308 310 310 309 306 299 295 293 292
314 313 314 318 314 312 315 314 315 313 311 312 313 314 312 313 311 312 313 314 315 316 316 316 316 315 315 316 315 312 311 308 306 304 304 305 308 308 306 303 297 294 292 292
312 311 313 317 314 319 315 311 313 314 313 312 312 313 313 313 313 313 314 314 314 314 314 315 314 314 315 315 314 311 309 308 305 303 303 303 305 305 303 300 297 293 291 291
314 312 315 318 318 317 313 311 311 311 314 312 312 312 312 312 311 312 313 313 313 313 313 313 314 313 312 312 312 309 307 306 304 303 302 302 303 303 302 299 296 293 292 291
310 314 314 315 319 318 314 310 311 310 317 313 312 313 313 312 312 314 313 314 314 314 314 313 313 312 312 311 310 307 306 304 303 301 300 300 301 301 301 297 294 293 291 292
313 313 316 316 318 314 305 299 310 316 313 302 309 312 311 310 313 312 312 313 314 314 313 313 313 311 310 309 307 306 304 303 301 299 298 297 298 298 297 295 293 294 294 291
313 313 316 315 317 318 303 305 311 306 302 302 305 306 307 308 309 309 310 310 310 310 310 310 309 308 307 306 304 302 301 299 298 297 296 295 295 295 293 293 297 297 292 289
311 310 312 313 313 307 306 308 312 312 311 309 308 310 310 308 307 306 307 308 308 307 307 307 306 305 304 303 301 301 299 298 297 296 294 294 293 293 293 293 293 290 290 290
301 302 307 309 306 307 308 306 305 306 308 308 309 311 311 309 307 305 306 306 305 304 304 304 303 302 302 300 299 298 299 298 298 299 298 298 297 294 293 292 292 293 294 294
300 300 303 305 304 302 306 307 310 308 308 309 308 305 305 306 305 305 305 305 305 304 304 303 302 302 302 301 300 301 303 303 303 302 301 300 298 298 297 297 296 295 294 292
299 301 306 306 304 304 304 304 305 305 306 306 304 302 301 302 302 301 301 304 305 305 304 302 302 303 303 301 300 300 300 299 298 298 296 295 295 294 293 292 292 291 290 290

GFSCGP_850_thetae_057.txt.gz
Theta_e
310 309 310 309 308 309 308 310 311 309 309 311 310 309 309 312 310 310 314 315 316 316 318 316 314 314 314 313 313 313 312 312 312 312 312 312 316 316 324 322 324 324 325 324
308 309 309 308 307 310 310 311 311 309 309 310 309 310 310 309 312 313 314 315 316 317 318 318 317 315 314 314 313 313 312 312 311 312 312 313 315 319 321 322 323 326 324 325
309 310 308 309 308 309 309 310 310 311 310 308 308 309 309 308 309 312 314 315 315 316 317 317 317 317 315 314 314 314 313 312 311 311 312 314 315 321 320 322 322 321 321 321
309 309 310 309 310 309 310 307 309 311 312 312 309 311 310 309 309 308 313 314 316 317 316 317 317 316 316 316 315 314 312 311 311 310 311 313 313 318 319 319 321 321 320 321
310 309 310 310 310 308 310 307 308 310 310 311 310 312 311 309 310 310 311 314 316 316 316 316 316 316 315 315 314 314 312 311 310 310 311 312 313 319 318 319 320 319 319 318
309 309 309 310 309 309 307 309 308 307 309 312 310 311 311 309 311 311 310 315 315 315 315 315 315 315 315 314 313 312 312 311 310 309 310 312 312 319 319 318 319 319 318 318
310 310 309 310 310 309 310 311 312 311 312 315 308 310 313 310 309 309 311 315 315 315 315 316 317 317 317 316 315 313 311 310 309 309 310 312 314 319 317 318 318 317 317 317
311 310 309 308 310 311 309 311 311 310 309 309 308 312 312 308 310 311 312 314 314 313 314 315 316 317 317 316 315 314 312 309 308 308 310 312 315 317 316 316 317 316 316 316
308 309 308 307 309 310 310 312 310 310 296 307 308 307 307 307 308 309 312 313 313 314 316 317 317 317 317 316 315 313 312 309 308 308 310 312 313 315 315 316 316 316 316 315
309 310 309 309 310 309 309 309 312 309 310 308 309 308 311 312 312 309 308 311 314 315 316 317 317 317 316 315 314 313 311 309 308 307 309 311 313 315 315 316 315 315 315 315
309 310 309 309 309 309 311 311 310 310 309 310 308 311 306 309 309 309 308 313 315 316 317 317 317 317 317 316 315 313 311 309 307 307 308 310 311 315 315 315 314 314 314 314
309 311 311 309 307 305 307 309 310 311 309 307 308 314 309 307 309 310 311 312 314 316 315 317 316 317 316 316 315 314 311 310 308 307 308 310 312 314 315 313 313 313 313 312
310 313 308 313 310 307 308 307 308 307 305 308 312 315 306 306 307 310 310 313 313 315 316 315 315 316 316 316 316 315 313 311 308 307 307 309 311 313 313 312 312 312 312 310
312 313 313 317 313 309 309 307 309 312 313 314 311 313 312 311 309 309 312 314 314 315 314 315 315 316 316 317 316 315 314 312 310 308 307 309 311 311 311 310 311 311 311 309
314 315 314 313 312 310 310 309 310 311 313 314 314 313 313 312 311 312 315 314 314 315 315 315 314 316 316 316 315 314 314 313 311 308 307 308 310 312 311 309 309 309 309 308
312 313 314 315 312 313 311 309 309 310 312 312 313 313 313 313 311 310 313 314 314 315 316 316 316 316 316 315 315 315 314 313 311 309 308 307 309 311 311 309 308 308 308 305
312 312 313 317 314 313 314 313 312 311 310 311 312 312 312 311 311 310 312 313 314 314 315 315 315 315 315 315 315 315 314 312 310 308 307 307 308 309 310 309 308 308 308 305
309 308 311 316 313 317 315 312 313 314 313 311 311 312 312 313 313 313 313 312 313 313 314 314 314 314 314 313 313 313 312 311 309 308 307 306 306 307 307 308 308 308 306 303
307 309 312 316 317 314 312 310 309 312 314 313 313 312 312 312 311 312 312 312 313 313 313 312 312 313 313 314 313 312 311 309 307 306 306 305 304 304 305 306 307 306 303 298
306 309 310 311 314 316 312 309 310 309 315 310 310 312 311 310 310 312 312 313 313 313 313 313 313 313 313 313 313 312 310 308 307 305 304 303 301 301 302 303 304 302 298 294
308 310 313 315 315 314 308 301 309 316 312 305 307 310 308 308 312 313 311 312 313 313 312 311 312 312 312 311 310 310 309 306 304 302 301 299 298 298 299 300 300 299 295 292
306 307 311 311 315 316 305 305 311 310 304 308 309 311 310 310 310 311 310 309 309 310 310 310 309 309 309 308 306 305 304 302 300 298 297 296 296 296 296 296 296 295 292 292
306 308 311 311 312 307 308 307 311 311 312 312 308 309 308 307 309 309 309 308 308 308 309 309 307 306 305 304 302 300 299 298 298 297 295 295 294 294 294 294 293 292 290 291
302 303 306 306 301 303 305 307 308 309 309 307 306 307 309 310 308 308 307 307 306 305 305 305 304 303 301 300 299 298 298 298 297 296 295 294 293 293 292 292 292 291 292 295
298 299 302 301 302 303 305 306 306 308 310 308 307 307 308 307 307 306 305 304 305 303 302 301 300 300 299 298 298 299 298 301 303 302 300 299 297 295 294 293 294 294 293 293
299 300 302 302 302 303 303 303 304 303 304 306 305 303 302 301 301 302 302 302 304 303 301 300 300 299 299 300 302 302 301 301 301 302 301 300 299 297 296 295 295 293 291 291

GFSCGP_850_thetae_060.txt.gz
Theta_e
311 316 317 317 316 314 314 315 315 315 313 314 317 317 317 316 315 315 315 315 316 316 318 317 315 315 314 314 314 314 314 314 313 313 312 311 312 311 314 322 319 325 324 324
314 315 316 312 312 313 314 316 316 315 312 313 316 316 316 316 315 316 316 316 316 316 317 317 317 316 315 314 314 314 314 313 313 312 312 311 312 312 315 319 320 324 323 324
314 315 311 312 312 313 314 316 315 315 313 312 314 316 317 316 314 314 314 315 315 316 316 315 316 316 317 316 315 314 314 313 313 312 311 311 311 312 315 319 319 321 323 323
314 312 312 312 313 314 315 313 314 314 315 316 313 315 316 316 316 315 315 316 315 315 315 314 314 316 316 317 316 315 314 313 313 311 311 311 311 312 315 315 318 322 322 324
314 312 312 314 314 313 315 311 313 313 316 315 315 316 315 314 315 316 316 316 316 316 315 315 316 316 316 315 316 315 314 313 313 312 311 311 311 312 314 315 319 322 322 322
312 309 312 314 310 311 310 313 313 314 316 317 316 315 315 316 316 316 315 315 315 315 315 315 315 315 315 315 315 314 314 313 312 312 311 310 310 311 314 316 319 321 321 321
312 312 310 310 313 311 313 316 316 318 319 318 313 315 315 315 314 314 315 315 314 313 314 315 316 317 317 317 315 314 314 313 312 311 310 310 310 310 313 314 319 319 320 320
314 313 312 312 314 315 314 315 316 319 317 315 310 315 316 315 313 312 312 314 313 313 313 314 316 316 317 317 317 316 314 314 312 310 309 309 309 310 313 315 318 318 319 319
312 312 309 309 311 314 313 314 314 315 307 313 314 315 315 314 312 312 313 314 314 314 315 315 316 318 318 317 317 316 316 314 313 311 308 308 309 309 311 312 317 318 318 318
312 312 310 309 310 310 312 313 315 314 320 318 314 314 316 316 316 316 314 313 313 313 314 315 316 318 318 317 317 316 315 314 312 310 308 308 308 309 310 313 316 316 316 316
313 312 312 310 312 313 312 313 313 313 315 317 317 315 315 315 316 314 314 312 313 314 315 316 317 317 317 316 316 316 316 314 313 311 309 308 308 308 311 313 317 315 315 316
312 313 315 314 310 310 312 314 314 315 316 314 315 317 311 314 314 312 313 313 315 314 315 317 317 317 317 317 317 317 317 316 314 312 310 308 307 308 310 312 313 315 315 316
312 315 318 317 313 309 311 312 312 314 313 319 319 317 313 312 312 313 312 314 315 315 316 316 316 316 316 315 316 316 316 316 316 312 311 309 307 308 309 310 312 315 315 314
312 314 317 320 317 314 313 312 313 314 316 316 316 316 316 315 314 313 313 313 314 315 316 315 315 316 315 316 316 315 315 316 315 314 311 310 308 308 308 309 312 314 314 312
313 315 315 316 316 313 314 314 313 313 314 316 316 316 316 315 315 314 314 313 313 314 314 314 314 314 314 314 314 314 315 316 315 314 313 311 309 307 308 309 311 313 312 311
311 312 314 315 316 316 316 314 313 313 314 314 315 316 316 315 314 315 313 312 312 313 314 315 314 314 314 314 314 314 314 315 314 313 313 310 309 307 308 309 311 311 310 310
311 311 312 314 315 315 316 315 316 315 314 315 316 316 315 315 315 314 314 313 312 313 313 313 314 314 314 314 314 314 313 313 313 313 312 310 309 307 307 308 309 311 309 309
307 309 310 315 314 316 316 314 315 315 316 315 313 314 315 315 315 313 313 312 313 313 312 313 313 313 313 313 313 313 312 312 312 311 309 308 307 306 306 307 308 310 309 308
306 308 310 311 314 313 313 314 314 315 316 315 315 315 314 314 313 313 313 313 313 313 313 313 313 313 314 314 314 314 313 312 311 311 309 307 306 305 305 306 307 308 308 307
306 308 309 310 311 311 310 311 309 312 315 314 314 314 314 314 315 315 314 313 313 313 313 313 313 313 314 314 314 314 313 312 311 309 307 305 303 302 303 304 305 306 306 305
306 306 308 308 310 310 309 309 308 314 314 306 310 313 313 313 313 314 312 312 312 312 312 311 310 310 311 311 312 312 311 311 309 306 304 302 300 300 300 300 301 302 302 301
303 306 308 310 311 312 305 307 313 308 308 305 305 307 308 308 309 311 311 310 310 310 309 309 308 308 308 309 308 308 307 305 303 301 300 299 298 297 296 296 297 297 298 297
303 305 306 307 307 308 307 308 307 304 304 304 305 305 305 305 306 308 309 308 307 308 308 309 308 307 306 305 304 302 302 301 300 298 297 296 295 295 294 294 295 295 294 292
303 303 305 304 305 305 304 304 304 304 305 306 307 306 308 305 306 308 309 307 306 306 305 305 305 304 303 302 301 299 298 297 297 296 295 294 293 293 292 292 293 293 292 290
299 301 303 303 303 302 303 303 304 304 305 306 307 307 307 304 306 305 306 306 304 304 304 303 302 300 299 298 298 297 296 296 296 296 295 294 293 293 293 292 293 293 293 294
299 300 299 301 300 300 302 302 303 302 302 303 304 306 306 303 301 303 303 301 301 303 303 301 299 297 297 297 299 298 298 299 301 302 302 301 301 298 296 294 294 292 291 290

GFSCGP_850_thetae_066.txt.gz
Theta_e
315 314 314 314 314 315 316 315 314 316 314 316 315 314 313 316 316 316 317 317 317 317 317 318 317 317 316 316 318 322 323 322 321 322 325 328 328 327 326 326 330 330 328 331
314 314 315 316 316 316 316 315 314 314 314 315 314 313 313 314 315 316 317 317 317 317 317 317 317 318 317 316 316 319 321 320 318 320 320 322 322 321 320 321 322 322 323 325
315 315 315 316 315 316 315 314 314 314 315 313 313 313 313 314 315 315 316 317 317 317 317 317 317 317 317 317 316 315 316 316 316 317 318 320 322 321 318 316 315 317 318 319
314 314 314 315 315 314 314 314 314 315 314 313 315 313 313 313 312 314 317 317 317 317 316 316 317 317 318 317 317 316 315 315 315 315 316 316 315 315 314 314 313 313 313 315
314 314 314 314 314 314 315 314 314 315 315 316 315 313 312 311 312 312 315 317 317 317 318 318 318 317 317 317 317 316 315 314 314 314 314 314 314 314 314 314 313 313 312 312
314 312 314 314 312 314 314 315 316 316 315 312 313 313 311 311 314 315 316 317 317 317 317 317 317 317 317 316 316 316 315 314 313 313 313 313 313 313 313 313 313 312 312 311
314 313 312 313 313 313 315 314 313 316 316 314 314 312 312 313 313 314 315 316 316 315 316 315 315 315 315 315 315 314 314 314 313 312 312 313 313 313 313 313 312 312 312 311
317 317 313 311 313 313 313 313 313 314 316 314 310 312 313 314 315 315 315 315 315 315 315 315 316 315 314 315 316 315 314 313 312 312 312 312 312 312 312 312 312 312 312 311
316 317 312 312 313 313 314 314 314 314 305 311 313 312 313 313 313 313 315 315 315 315 316 315 315 315 314 315 315 316 315 314 313 313 313 313 312 312 312 312 311 311 311 311
315 315 312 311 311 312 313 313 314 313 313 312 311 311 312 313 313 312 313 316 316 316 316 316 315 315 314 314 314 316 316 315 315 314 314 314 314 313 312 311 311 311 311 311
314 314 312 311 311 312 312 311 313 313 312 314 312 311 313 313 313 313 314 316 315 316 315 315 314 314 314 314 315 315 316 315 316 315 315 315 315 313 312 312 311 310 310 310
313 314 312 312 311 310 311 311 312 312 313 310 311 314 313 312 312 313 315 315 315 315 316 315 314 314 315 315 315 315 316 316 316 316 316 316 315 314 313 312 311 311 310 310
314 314 312 315 315 311 312 312 312 311 309 312 312 313 311 312 312 314 315 315 315 315 315 315 315 314 314 314 315 316 316 316 314 314 315 316 315 314 314 314 312 310 310 309
314 315 315 316 317 316 315 315 315 314 314 313 313 313 313 313 312 313 314 315 315 316 315 315 315 315 314 314 315 314 314 314 314 313 314 314 315 314 314 313 312 310 310 308
313 313 313 313 314 315 314 315 316 317 317 316 315 314 314 314 313 314 315 315 315 315 315 315 315 315 315 314 314 314 314 313 313 313 313 313 313 313 313 312 311 310 309 308
309 311 309 307 310 309 308 308 309 312 314 315 316 315 313 314 314 314 314 314 315 315 315 315 315 315 314 314 313 313 313 313 312 312 312 312 312 312 311 311 310 309 308 307
310 309 309 305 307 308 311 308 308 310 310 312 314 314 313 313 314 314 314 314 314 314 314 314 315 314 314 314 314 313 313 312 312 311 311 311 310 310 310 310 308 307 307 306
304 306 304 303 301 306 307 305 308 310 310 313 314 314 313 314 314 314 315 313 313 313 314 314 314 314 314 313 313 312 312 311 310 311 312 311 310 309 308 307 307 306 305 305
305 304 298 302 301 302 303 302 302 303 305 309 309 309 308 307 308 310 310 309 307 308 309 311 311 311 311 311 312 312 312 312 312 312 312 311 310 309 308 306 305 303 302 302
303 304 304 296 298 296 302 302 304 303 304 304 306 306 306 306 307 308 309 308 307 306 307 308 309 310 310 310 309 309 309 309 310 310 310 310 309 308 307 305 303 301 300 300
302 299 304 303 304 303 302 302 304 304 303 304 303 303 303 304 305 305 305 306 307 308 308 308 308 308 307 307 308 308 308 308 308 308 308 308 307 305 303 301 299 299 298 297
298 297 299 299 304 303 305 306 308 306 304 304 304 302 303 304 304 304 305 305 305 307 308 308 308 308 307 308 307 306 306 306 305 305 304 303 303 302 300 298 297 296 295 294
297 297 293 298 298 302 302 301 301 303 303 305 304 302 304 304 303 303 303 305 306 305 305 307 308 308 305 304 305 306 305 304 302 302 301 300 299 298 298 296 295 295 293 294
296 299 296 297 297 298 299 300 300 300 298 298 298 299 300 300 301 301 302 304 305 305 305 304 305 306 307 307 303 301 301 302 301 299 297 297 296 295 294 294 293 293 294 292
295 296 295 295 297 298 299 298 300 299 298 299 299 297 296 298 300 301 302 302 303 302 302 301 300 301 301 301 300 298 298 298 297 297 295 294 293 293 292 292 292 292 291 291
295 295 295 296 296 296 297 297 297 296 296 297 297 296 296 297 299 300 301 301 301 301 299 297 298 299 299 297 297 297 296 293 294 295 295 295 295 294 293 292 291 291 291 292

GFSCGP_850_thetae_069.txt.gz
Theta_e
314 310 310 310 310 311 314 314 313 313 313 314 312 311 311 314 314 313 315 316 316 317 316 317 317 317 317 316 316 320 326 328 329 330 330 328 328 329 330 330 330 327 328 331
310 310 311 311 313 313 314 314 312 312 313 313 312 311 310 310 312 314 314 314 315 316 316 317 317 317 317 317 316 316 318 323 326 327 326 327 324 324 327 328 330 328 330 328
311 313 312 314 314 314 314 313 312 312 312 311 310 309 310 311 313 314 314 315 315 315 316 316 316 317 317 317 317 317 316 316 320 323 325 327 326 326 328 327 328 327 326 327
313 312 313 313 313 312 313 312 312 312 311 310 311 309 310 312 310 309 313 315 316 316 316 316 316 316 316 317 317 317 317 316 316 320 323 324 322 321 320 323 326 326 327 326
311 311 312 313 313 311 312 313 313 313 313 314 312 310 309 309 310 309 311 314 315 317 316 317 317 317 317 316 317 317 317 316 316 317 318 319 320 320 320 321 322 323 323 323
311 312 312 311 311 311 311 313 313 312 311 310 310 309 308 309 310 312 313 315 316 316 315 315 315 315 317 317 316 317 317 316 315 315 315 316 316 316 316 317 316 316 315 314
313 312 311 312 311 311 313 310 309 312 312 310 309 309 309 310 310 312 314 314 314 314 314 314 315 315 315 315 316 316 316 316 315 314 314 314 314 314 314 314 314 314 314 313
314 315 311 310 311 312 311 309 309 311 314 312 308 311 312 309 312 313 314 314 315 316 316 315 315 315 315 315 314 314 314 314 314 313 313 313 313 313 313 313 313 313 313 313
314 315 310 310 311 311 311 313 310 311 300 308 309 309 309 309 309 313 313 314 315 314 315 316 316 316 316 314 314 314 314 314 313 313 313 312 312 312 312 312 312 312 312 312
313 314 310 310 311 311 311 310 312 310 309 310 309 309 311 310 310 311 313 315 314 315 315 316 316 316 315 314 314 314 313 313 313 313 313 313 313 313 313 312 312 312 312 312
312 312 311 310 310 310 310 311 311 311 310 311 309 310 307 309 311 312 313 314 314 315 315 315 315 315 314 314 314 315 315 315 315 314 314 314 314 314 313 313 312 312 312 312
312 311 309 310 309 309 309 310 310 311 310 308 309 313 309 308 309 311 312 314 314 314 314 315 314 315 315 315 314 315 315 315 315 315 314 314 314 314 314 315 314 313 312 312
312 311 305 310 311 311 311 310 309 309 306 309 308 313 309 309 310 312 312 314 314 314 315 314 315 315 315 315 315 315 315 315 314 314 314 313 313 314 315 315 314 313 313 312
313 312 309 310 314 314 314 313 314 315 307 311 311 311 311 310 311 312 313 313 314 314 314 314 314 315 315 315 315 314 314 314 314 313 313 313 313 314 314 313 313 313 312 311
312 313 312 312 312 313 315 314 314 315 315 316 314 315 315 313 312 312 312 313 313 313 314 314 313 313 313 314 314 314 314 313 313 313 313 312 312 312 312 311 311 311 310 309
309 309 309 309 310 311 310 310 310 311 312 313 313 314 312 312 312 311 312 313 313 312 311 311 312 313 313 313 314 314 314 313 313 313 313 312 312 311 310 310 310 309 309 309
308 307 307 300 306 305 304 306 307 307 307 309 310 310 309 310 311 311 310 309 308 308 308 309 309 310 310 311 312 313 313 313 312 312 312 311 311 312 311 310 309 308 308 307
307 306 305 296 296 297 302 302 303 306 307 307 308 309 308 306 306 306 308 305 306 307 308 308 308 309 309 310 310 311 311 311 312 311 311 311 311 311 311 311 311 310 308 306
303 303 303 300 291 297 300 299 301 300 300 300 301 304 304 303 305 306 307 305 305 305 307 308 309 308 308 308 308 308 308 309 309 309 309 309 309 310 309 309 308 307 305 303
304 303 300 285 291 294 297 299 300 300 300 303 303 302 302 302 303 302 304 304 304 305 305 305 307 308 308 308 308 308 308 307 308 309 309 309 308 307 308 307 306 305 304 302
300 302 304 302 302 298 298 299 301 300 300 304 303 303 302 301 303 303 304 303 303 303 303 304 305 305 306 307 308 308 307 306 305 306 307 307 307 306 305 304 303 301 300 299
298 300 296 302 302 302 302 302 304 302 302 302 302 302 303 301 299 300 299 300 300 302 303 304 304 305 306 306 306 307 307 307 306 304 303 303 303 303 302 301 300 299 297 296
294 296 295 297 297 300 299 298 298 299 300 301 303 299 299 299 298 298 297 296 299 302 303 303 302 303 303 303 302 305 306 306 307 306 302 301 300 298 298 299 298 297 296 293
294 296 294 295 295 296 298 299 298 299 298 297 296 296 297 297 296 295 295 295 296 300 301 301 301 301 302 301 300 300 301 303 301 301 300 298 296 296 295 294 294 295 293 292
293 295 292 293 295 297 297 298 297 297 296 296 296 294 296 296 295 294 295 297 298 299 299 299 299 300 299 299 298 299 299 299 298 298 296 295 294 294 293 293 292 291 291 291
293 293 293 293 294 294 295 296 296 295 294 294 295 296 296 294 294 294 296 297 296 296 297 297 297 298 297 297 298 298 297 296 294 293 293 294 291 291 292 291 291 290 290 291

GFSCGP_850_thetae_072.txt.gz
Theta_e
312 309 310 309 309 310 311 312 313 312 313 313 311 310 309 313 313 313 314 314 314 315 315 316 316 316 316 316 316 317 322 326 329 331 332 332 332 331 331 331 331 330 328 328
309 309 308 309 309 311 312 312 312 311 312 312 311 310 308 309 311 313 313 314 314 314 314 314 316 316 316 316 316 316 317 320 325 329 330 332 331 331 331 330 330 330 329 329
309 311 310 312 312 312 312 311 311 311 311 309 310 306 307 309 311 313 313 313 314 315 315 315 315 315 316 316 316 316 316 316 317 323 330 331 332 332 331 330 329 332 331 329
312 312 311 312 312 311 312 311 311 311 310 309 309 307 308 309 308 308 312 311 313 314 315 316 316 316 316 316 316 316 316 316 316 318 322 326 328 329 328 327 328 328 331 331
311 311 311 312 311 310 310 311 312 312 311 312 310 309 307 307 309 307 309 312 316 316 316 316 315 315 316 317 316 316 316 316 316 317 319 321 324 325 327 327 327 326 328 330
310 311 310 310 310 310 310 311 309 309 307 308 308 307 305 307 309 311 311 313 313 314 314 314 314 314 314 314 316 316 316 316 316 317 318 318 318 321 324 325 325 324 323 326
312 312 311 311 311 311 309 307 308 309 309 308 307 307 307 308 308 311 310 312 315 315 316 316 316 316 315 315 314 314 315 316 315 315 316 316 317 320 321 321 320 319 319 320
312 314 310 310 310 311 309 307 308 308 310 308 307 310 310 309 310 311 311 313 314 314 315 316 316 316 315 315 314 314 314 314 314 315 314 314 314 315 315 315 315 314 314 314
312 313 310 310 309 310 311 311 307 308 297 307 308 307 308 308 308 309 311 314 314 314 315 315 315 315 315 315 314 315 315 314 313 313 313 313 313 313 312 313 313 313 313 313
312 313 309 309 310 309 310 309 311 308 307 307 307 308 309 309 310 308 309 313 313 314 314 314 314 314 315 315 315 315 315 315 314 314 313 313 312 312 312 312 312 312 312 312
309 311 311 309 309 310 310 310 310 309 308 309 308 309 305 309 308 308 310 312 313 313 314 314 314 313 314 313 313 314 314 315 315 314 314 314 314 314 313 314 314 314 313 313
311 309 308 310 308 307 308 309 309 310 309 307 309 310 307 306 307 310 311 312 313 313 314 314 314 314 314 314 314 314 315 314 314 315 315 314 314 313 313 314 314 313 313 313
311 311 308 311 311 310 310 310 309 307 305 308 308 311 306 307 310 311 311 312 312 313 313 314 314 314 314 314 314 314 314 313 313 314 314 314 313 313 313 313 313 313 312 312
312 311 310 312 312 312 312 313 314 310 307 310 310 311 309 310 311 312 311 311 312 312 313 313 314 314 313 313 313 313 313 313 313 313 313 313 313 312 312 312 312 312 311 311
311 309 311 312 311 313 313 313 312 313 313 313 313 313 312 311 310 311 310 311 311 311 311 310 311 312 312 313 314 314 314 313 313 313 313 313 312 312 311 311 310 310 311 310
308 310 309 308 309 311 311 309 309 311 311 312 312 312 310 309 309 309 308 308 307 307 307 308 309 309 310 311 311 312 313 312 312 312 312 312 312 312 312 311 310 309 309 309
309 307 305 303 304 304 302 305 308 307 307 309 309 308 306 306 307 305 306 305 304 305 305 306 307 308 308 309 309 309 310 311 311 311 311 310 310 311 311 311 311 311 310 309
303 301 298 296 296 304 303 301 303 305 305 305 306 306 304 304 302 303 305 304 303 304 304 304 305 305 307 307 308 308 309 309 309 309 309 309 308 309 309 309 309 310 310 309
303 303 300 298 292 298 302 300 299 300 301 301 301 302 302 302 303 303 305 303 303 302 301 302 302 303 304 305 305 306 307 307 308 308 308 308 308 308 308 308 307 307 308 308
303 303 303 290 300 296 297 299 299 299 297 302 302 302 302 301 300 299 302 301 298 297 299 300 302 303 303 305 305 306 306 306 306 307 307 308 307 307 307 306 305 304 304 304
305 305 306 298 301 296 296 299 300 297 298 303 304 302 301 300 301 301 298 297 297 296 296 297 302 302 303 303 303 304 305 306 306 306 307 306 306 306 307 306 305 304 302 300
299 300 297 301 302 301 299 298 299 298 301 301 300 300 301 302 301 298 297 296 296 295 295 295 298 299 298 300 300 301 302 303 304 304 305 306 304 304 305 304 303 303 302 300
296 296 295 297 298 299 299 298 298 299 299 299 302 299 296 296 295 295 295 295 295 293 294 296 298 298 297 297 299 300 300 301 302 302 302 302 302 301 301 300 298 297 298 299
293 295 294 294 294 295 297 297 299 298 300 297 296 295 294 294 294 296 295 295 294 293 293 296 297 296 296 297 298 299 299 299 299 300 300 300 300 298 297 296 296 295 294 292
295 294 292 292 295 296 297 297 296 296 295 295 294 294 294 295 295 294 293 293 293 293 294 296 296 296 297 296 297 298 297 297 298 298 299 299 296 295 294 294 293 293 292 291
293 293 294 292 294 295 294 295 293 294 293 293 293 294 294 293 293 292 292 292 293 294 294 294 294 294 295 295 296 297 296 296 297 297 297 297 294 293 292 291 291 291 291 290

GFSCGP_850_thetae_075.txt.gz
Theta_e
311 309 308 309 307 307 308 311 312 311 311 312 311 309 309 312 312 312 314 314 314 314 314 314 315 315 315 315 316 317 319 321 326 330 332 333 332 332 331 331 331 332 332 332
308 309 308 308 308 310 311 311 311 310 311 312 310 309 307 308 311 312 312 313 313 313 314 314 313 313 315 315 315 315 316 317 319 324 326 330 330 331 331 331 331 331 331 330
308 309 308 310 309 310 310 309 310 310 309 308 308 306 305 306 309 312 312 311 311 312 313 315 314 314 314 314 315 316 316 315 316 318 324 328 331 331 332 332 331 331 331 332
310 310 309 311 311 309 312 309 310 310 308 307 307 306 306 307 306 306 309 310 314 314 314 315 315 315 315 315 315 315 315 315 315 317 320 323 324 327 326 328 330 331 332 332
310 310 310 311 311 309 310 310 310 310 308 310 309 307 306 305 307 308 308 311 312 313 314 314 314 314 314 314 316 315 315 315 314 315 318 321 323 325 328 329 330 331 331 331
309 310 309 309 309 309 308 308 306 307 305 306 306 305 304 305 308 308 308 313 314 315 315 316 316 316 315 314 314 314 314 315 315 314 315 318 321 323 325 325 327 328 329 329
311 311 310 310 310 310 307 306 307 307 307 306 306 306 305 306 307 308 309 313 313 314 315 314 314 314 314 314 314 314 314 313 314 315 315 315 317 322 324 324 325 325 326 327
310 312 310 309 309 310 307 306 306 307 307 307 307 309 308 308 307 309 312 312 313 313 313 313 314 314 314 314 314 315 314 315 314 314 313 314 314 315 317 319 321 322 322 321
309 310 309 309 308 309 310 308 306 306 295 305 306 307 307 305 306 310 310 312 313 313 314 314 313 313 313 314 314 314 314 314 314 314 314 313 313 313 313 313 313 313 313 313
310 313 309 309 309 309 309 308 309 306 306 306 306 308 308 308 308 308 308 310 312 313 313 313 313 313 314 314 314 314 314 314 314 314 314 314 314 313 313 313 313 313 313 312
309 312 310 309 309 309 309 310 308 308 307 309 307 308 305 308 308 308 310 311 312 312 313 313 313 313 313 314 314 313 314 314 314 313 313 314 314 313 313 313 313 313 313 313
309 309 309 309 308 307 308 308 307 310 308 306 308 309 306 306 307 309 310 310 311 311 312 313 313 313 313 313 313 313 313 313 313 313 313 313 314 313 313 313 312 312 312 312
310 310 309 313 310 309 308 309 307 306 305 306 309 309 305 306 308 310 309 309 311 311 312 312 313 313 312 312 312 312 313 313 313 313 313 313 313 313 312 312 311 311 311 311
311 310 311 315 312 310 312 313 311 308 307 308 309 309 305 305 308 308 309 310 310 310 310 311 312 312 312 312 312 312 312 312 312 312 312 312 312 312 313 312 312 312 311 311
311 313 312 312 311 312 312 312 312 311 309 309 311 311 311 309 308 307 308 308 307 307 307 308 308 309 309 309 309 309 309 309 310 310 310 311 311 311 311 311 312 311 311 310
309 311 310 310 308 311 311 309 309 310 311 311 311 311 308 308 308 307 307 306 305 305 305 305 305 305 307 307 308 308 308 308 309 309 310 310 310 309 309 309 309 310 311 311
308 307 307 309 304 307 308 307 307 307 308 308 309 308 306 305 306 304 305 303 303 303 302 302 302 303 304 304 305 306 307 307 308 309 309 308 308 309 309 309 308 308 308 309
304 303 303 302 299 307 304 300 302 306 306 305 305 304 304 303 302 302 303 303 302 301 299 299 300 301 302 302 303 304 304 305 305 305 306 307 307 307 307 307 308 307 307 307
303 303 300 304 294 300 302 299 299 301 301 301 302 302 301 302 301 302 303 301 300 297 297 296 296 299 301 302 302 303 303 303 303 304 305 305 306 307 307 307 307 307 307 306
303 302 303 292 296 297 297 298 299 298 297 298 300 300 302 301 300 298 301 300 297 297 296 295 295 295 296 298 298 298 299 301 301 301 301 303 305 305 306 306 307 305 305 304
305 304 306 296 298 296 296 298 299 295 297 301 302 303 301 299 300 301 300 297 296 295 295 294 294 294 294 295 296 297 296 296 298 299 300 301 303 304 304 304 304 304 304 302
304 303 302 302 303 303 297 296 298 297 301 303 301 300 300 300 300 299 296 296 295 295 295 294 293 293 293 293 295 296 296 297 296 297 299 299 301 302 302 302 303 303 302 301
299 299 297 299 300 298 299 299 299 299 299 299 299 300 296 295 296 296 296 295 295 295 294 292 292 292 292 293 294 295 296 297 297 297 298 299 299 300 301 301 301 301 298 297
293 294 295 296 296 297 297 298 298 299 299 297 296 295 295 294 294 294 294 294 294 293 292 292 292 292 292 293 293 294 294 295 296 296 297 298 298 298 298 298 296 297 297 296
293 294 292 293 294 295 296 297 298 297 296 294 294 293 293 293 293 293 293 293 293 292 292 291 292 292 292 292 291 291 293 294 295 295 296 296 296 296 296 295 294 294 292 292
293 293 295 293 295 296 296 296 294 293 293 292 292 292 292 292 292 292 292 292 291 291 291 291 291 291 291 291 292 291 291 292 293 294 294 294 294 295 294 293 292 291 289 289

GFSCGP_850_thetae_078.txt.gz
Theta_e
310 308 308 309 306 305 306 308 310 310 310 311 310 309 308 312 310 311 313 313 313 313 313 313 313 314 314 314 316 317 318 319 324 328 332 333 332 331 331 331 330 330 330 331
308 307 307 306 307 308 309 310 311 309 310 311 308 308 307 308 309 310 310 311 311 311 311 311 313 313 313 314 314 314 315 316 317 322 324 329 329 330 330 331 330 331 330 330
308 308 306 308 308 309 309 309 309 310 308 306 305 305 304 306 307 308 308 308 310 311 311 312 313 313 313 312 313 314 314 314 315 318 322 326 329 329 330 329 330 330 331 331
308 308 308 308 308 307 310 308 308 308 308 308 305 305 306 305 304 305 308 310 311 312 313 313 313 313 314 314 315 314 314 314 314 314 318 320 322 324 322 324 326 328 330 330
309 309 308 310 310 308 310 308 308 308 307 308 308 306 305 303 307 305 307 311 312 313 314 314 314 314 314 314 314 314 314 314 314 313 313 315 319 322 324 325 326 327 328 329
308 309 309 308 308 308 306 306 305 305 304 305 306 304 304 305 307 308 308 311 312 313 313 314 314 314 314 314 314 314 314 313 314 314 314 313 314 316 320 323 325 326 327 328
310 310 309 309 309 308 306 305 306 307 306 305 305 305 304 306 306 308 308 310 312 312 313 313 313 313 314 314 314 314 314 314 314 314 313 313 314 316 318 320 323 325 327 328
309 311 310 309 309 309 306 306 306 306 305 306 306 308 306 305 305 309 310 311 312 313 313 313 313 313 314 314 314 314 314 314 314 314 314 313 312 313 313 315 316 318 320 320
308 309 309 308 308 309 309 307 304 305 294 305 305 306 306 306 307 308 310 311 312 312 312 312 313 313 313 313 313 313 314 314 314 314 314 314 313 313 313 312 312 312 313 313
309 310 308 308 309 308 308 305 308 304 303 305 305 306 305 309 309 308 308 310 311 312 312 313 313 313 313 313 313 313 313 313 313 313 313 313 313 313 313 312 312 312 312 312
308 311 309 309 309 308 308 308 306 307 306 307 306 306 303 308 307 307 308 310 311 311 312 312 312 312 312 312 312 312 312 313 313 313 313 313 313 313 313 312 312 312 311 311
309 309 309 309 307 306 307 308 307 308 307 305 307 308 306 306 307 308 309 309 310 311 312 312 311 311 311 311 311 311 311 311 311 311 312 312 312 313 313 313 312 312 311 311
308 309 305 310 309 307 308 307 306 305 305 306 309 308 304 306 307 308 308 309 310 310 310 310 310 310 310 309 309 308 308 308 307 307 307 307 308 308 310 311 312 312 312 312
310 308 311 313 312 308 310 310 306 308 309 309 308 306 305 305 306 307 308 308 308 308 307 307 307 307 307 307 307 307 307 307 307 306 306 307 307 308 309 310 310 310 311 311
310 309 311 310 310 310 310 310 308 308 309 310 309 306 309 306 306 307 307 305 305 305 305 305 305 305 305 305 306 306 306 306 306 305 305 306 307 308 308 308 308 309 309 309
309 312 310 311 310 310 311 310 309 310 310 311 311 311 308 309 307 305 305 304 303 303 302 302 302 303 303 303 303 303 303 303 303 303 303 304 304 305 305 306 307 307 307 308
309 309 312 313 307 310 314 308 308 308 308 308 311 308 305 306 306 306 305 303 303 302 301 301 300 300 300 301 301 301 301 301 301 301 302 303 303 303 304 304 305 305 306 307
307 308 308 303 306 313 304 299 303 308 307 307 305 304 304 305 306 303 303 303 301 299 298 297 297 298 298 298 298 299 300 300 300 300 301 301 301 301 301 302 302 303 305 305
304 304 300 305 305 302 302 301 301 305 305 304 304 301 302 302 301 302 302 301 299 297 296 296 295 295 296 295 295 295 296 296 296 297 298 298 298 299 299 299 300 301 304 305
303 303 307 298 302 303 301 298 299 299 300 298 303 300 300 300 299 296 302 300 297 296 296 296 295 295 295 294 294 294 294 294 294 294 295 296 296 296 298 299 299 300 302 303
305 302 304 295 295 295 296 296 298 297 298 297 299 301 300 298 300 302 301 299 297 296 295 295 295 294 294 293 292 292 292 292 293 293 293 295 296 296 296 298 299 300 301 301
307 307 306 300 302 303 298 297 298 297 299 301 302 302 299 299 299 299 299 296 295 295 295 294 293 293 292 292 292 292 292 292 292 292 292 293 294 296 296 297 298 298 298 298
301 301 301 302 303 297 297 298 299 300 302 301 299 299 299 297 296 295 294 294 293 293 293 293 293 292 292 291 291 291 291 292 291 291 291 292 293 294 296 296 296 296 296 296
293 295 296 298 296 296 298 298 299 300 299 299 299 297 296 296 296 295 294 294 293 292 292 292 291 291 290 290 291 290 290 290 291 291 291 292 292 293 294 294 294 295 295 295
294 294 293 293 293 296 296 297 299 298 298 297 295 295 294 294 293 293 292 292 291 291 291 290 290 290 290 290 290 289 289 289 289 290 290 291 291 292 293 293 292 293 293 292
293 293 295 294 295 296 297 298 298 297 296 294 294 293 292 291 291 291 291 290 290 290 290 289 289 289 289 290 290 290 289 288 288 289 289 289 290 291 291 291 291 291 290 290

GFSCGP_850_thetae_081.txt.gz
Theta_e
309 308 309 308 305 304 305 305 307 308 309 310 310 308 308 310 310 310 311 311 312 311 312 312 312 313 313 314 315 316 318 319 322 324 327 331 331 331 332 331 330 329 329 329
307 307 306 306 305 306 307 308 310 308 308 310 308 309 307 306 307 307 307 308 309 310 311 310 311 312 313 313 314 314 314 317 319 320 321 324 326 328 329 330 330 329 329 330
307 308 306 307 307 308 308 308 308 309 307 305 304 305 304 305 306 308 307 308 309 310 311 312 312 312 312 312 312 313 313 313 314 318 320 322 326 328 329 328 328 326 326 327
307 306 306 305 307 307 310 307 307 307 307 308 305 306 305 304 306 305 308 310 311 311 311 312 312 313 313 314 313 313 312 313 313 312 314 317 320 322 321 323 325 325 324 325
308 307 307 308 308 306 308 306 307 306 307 307 308 306 305 302 307 306 307 309 310 311 312 312 313 313 313 313 313 313 314 314 313 312 312 312 314 316 319 322 323 325 326 326
308 308 308 308 306 307 305 305 304 304 304 306 306 304 304 304 307 308 307 309 310 311 311 312 312 313 313 313 314 314 314 313 313 313 313 313 314 315 317 319 321 323 325 326
309 309 308 308 308 307 305 305 306 308 306 306 303 304 304 305 305 307 307 309 310 311 312 313 313 313 314 314 314 314 314 314 314 314 313 313 313 313 314 316 318 321 325 327
309 310 309 308 308 308 305 306 307 306 306 306 305 307 305 304 305 308 309 310 310 311 312 312 312 312 312 313 313 313 313 313 313 313 313 313 312 312 312 312 312 313 314 315
307 307 308 307 307 308 307 307 304 305 293 304 305 305 305 306 306 307 308 310 310 311 311 312 312 312 312 312 312 312 313 313 313 313 312 312 312 312 312 312 312 312 312 312
307 309 308 308 308 307 306 304 308 304 303 305 303 305 306 308 307 306 306 308 309 310 311 312 312 311 311 312 312 312 312 312 312 312 312 312 312 312 313 313 312 312 311 311
307 310 309 308 308 308 307 307 306 306 306 305 304 306 301 308 306 305 306 308 309 310 311 311 311 311 311 311 311 311 311 310 310 309 308 307 307 307 308 309 311 312 312 312
308 309 311 310 307 306 307 307 306 307 306 303 305 307 306 305 306 307 308 308 310 310 310 310 310 310 310 310 309 309 309 308 307 307 306 305 305 306 306 306 307 308 309 310
308 309 307 310 309 306 307 305 305 304 305 304 307 306 304 305 306 308 308 309 309 309 309 309 308 308 308 307 307 307 306 306 305 305 304 304 304 304 304 305 307 308 308 309
309 307 309 310 310 307 309 307 305 307 309 307 308 306 304 305 305 306 308 309 308 308 307 307 306 306 305 305 305 304 304 303 303 302 302 302 302 302 303 303 303 304 304 306
309 309 310 309 310 308 308 308 305 308 308 309 308 307 309 306 305 307 308 307 306 305 305 304 303 303 303 302 302 301 301 301 300 300 300 300 300 300 300 300 301 301 301 302
308 311 309 310 309 309 311 309 307 308 306 310 304 307 306 307 306 306 306 305 304 303 302 301 300 300 300 300 300 300 299 299 299 299 299 299 299 299 299 299 299 300 300 300
310 310 309 307 308 309 313 309 308 308 307 308 310 308 305 304 305 306 305 304 303 301 299 298 298 298 298 298 297 297 297 298 298 298 297 297 298 298 298 298 298 299 299 299
308 308 309 306 308 316 308 299 305 308 307 306 305 305 307 307 307 306 305 303 301 299 298 298 298 297 297 297 297 297 298 298 297 296 296 296 296 296 296 296 296 296 296 297
306 305 302 307 307 305 304 300 305 308 308 305 304 303 304 304 303 301 303 302 300 298 297 297 296 296 296 297 297 297 297 295 294 293 293 293 293 293 293 293 294 295 296 296
304 305 306 300 309 309 304 299 299 301 303 301 305 303 300 301 300 298 302 300 297 296 296 295 296 296 296 295 294 293 292 292 292 291 291 291 291 291 291 292 292 293 295 296
306 304 306 304 306 300 298 296 299 304 302 297 304 302 300 298 300 300 301 298 296 295 295 295 295 294 293 292 292 291 291 290 291 291 290 290 291 291 291 291 292 293 294 295
307 306 306 298 304 306 297 296 300 299 297 299 301 302 301 300 300 301 299 297 295 295 295 294 293 293 292 291 290 290 290 290 290 290 290 289 289 290 291 291 292 292 293 293
302 302 303 303 304 298 297 298 299 299 300 301 301 300 300 299 300 300 298 296 295 294 294 293 292 291 290 290 290 290 290 290 290 290 291 291 290 290 289 290 291 292 293 293
295 295 299 300 297 297 297 298 299 300 301 301 300 299 298 296 295 295 294 293 293 292 292 291 290 290 290 289 289 290 289 288 288 289 290 290 290 290 290 289 290 290 291 292
295 295 294 293 294 295 296 298 300 301 300 299 298 298 297 297 295 294 293 292 291 290 290 289 289 289 289 289 289 288 288 288 288 288 288 288 288 288 289 288 288 288 289 290
293 294 297 298 295 297 298 299 298 299 298 298 298 296 296 295 294 293 291 290 290 289 289 289 289 288 288 288 288 288 287 287 288 288 288 288 288 288 288 287 289 288 289 288

GFSCGP_850_thetae_084.txt.gz
Theta_e
310 314 314 314 313 309 313 311 312 310 311 313 313 314 314 313 311 313 312 311 310 311 311 311 312 313 313 314 316 318 321 324 328 329 331 332 331 330 330 330 330 330 330 330
312 313 313 310 308 310 311 311 312 312 310 312 312 314 314 309 309 308 308 308 308 309 310 310 310 311 312 312 313 314 318 320 323 325 327 328 329 329 330 330 329 330 331 331
312 310 309 310 309 311 311 312 312 313 309 309 309 313 310 308 309 309 309 308 309 309 310 311 311 312 312 311 311 312 313 314 316 320 323 324 326 326 326 327 327 326 329 330
311 307 309 310 311 312 312 310 311 311 313 313 309 312 311 309 311 311 311 311 310 310 311 312 312 313 313 312 311 311 311 312 312 312 315 318 320 322 324 327 327 328 328 328
311 308 309 311 311 310 311 310 311 311 313 313 312 312 312 309 313 312 311 310 310 310 310 311 312 312 312 313 313 313 313 312 312 311 312 313 315 322 322 325 325 325 325 325
310 307 309 310 307 309 308 310 310 311 312 312 312 312 311 310 313 312 310 309 309 309 310 311 312 312 312 313 313 313 313 313 313 313 313 313 314 315 317 318 321 323 324 325
311 310 309 309 310 309 309 313 312 313 313 312 306 309 311 308 311 312 311 310 309 309 311 312 312 313 313 313 313 313 313 313 313 313 313 313 313 313 314 314 315 316 317 317
312 312 311 310 312 312 311 312 314 315 312 311 306 311 311 307 307 310 310 309 309 309 311 311 312 312 312 312 313 313 313 313 312 312 312 312 312 312 312 312 311 312 312 312
311 310 309 308 308 311 310 310 309 309 302 313 311 310 308 307 309 309 309 309 309 309 310 311 311 311 311 312 312 312 312 312 312 312 312 312 312 312 312 312 312 312 312 311
310 311 309 308 308 308 309 309 311 310 316 315 309 310 313 310 311 311 309 310 309 309 310 310 310 310 311 311 311 311 311 310 309 308 308 307 307 306 307 307 308 309 310 310
309 313 310 309 310 311 308 309 308 310 311 318 313 311 310 311 312 311 310 309 309 308 309 309 309 309 310 310 309 309 309 308 308 307 306 305 305 305 305 305 306 306 307 308
310 312 313 311 308 307 308 310 310 312 311 308 311 314 308 312 312 311 309 308 308 308 309 309 309 309 309 309 308 308 308 307 306 305 304 304 303 303 303 303 303 303 303 304
310 313 315 313 310 307 309 308 309 308 311 314 317 313 307 310 309 309 308 308 308 308 308 308 308 307 307 306 306 305 305 304 303 302 302 301 301 301 301 300 300 300 300 300
310 310 313 312 311 312 311 309 308 310 313 312 311 311 310 309 310 308 308 308 307 307 307 307 306 305 305 304 303 303 302 301 301 300 300 300 299 299 299 299 298 298 298 298
310 314 311 311 311 310 311 311 309 310 311 312 312 310 312 311 310 309 309 307 306 306 305 305 304 303 302 302 301 301 300 299 298 298 298 297 297 297 297 297 297 297 297 297
310 313 311 311 310 311 312 311 310 311 311 311 310 310 311 310 309 308 307 306 305 304 304 303 302 302 301 300 299 297 297 298 298 298 297 296 296 295 295 295 295 295 295 295
312 311 312 315 310 311 314 313 311 311 311 311 311 311 308 310 308 308 308 306 305 304 302 301 300 299 298 297 297 297 297 297 297 296 296 295 295 294 294 293 293 293 293 293
310 311 312 312 312 317 312 302 309 311 310 309 309 309 309 309 308 308 308 307 305 303 301 299 297 296 295 296 297 297 297 297 295 295 294 294 293 292 292 292 292 292 292 292
309 311 309 313 315 314 309 302 308 310 312 309 310 308 307 307 306 305 306 306 304 302 299 297 295 295 296 296 297 297 296 295 294 293 292 291 291 291 291 291 291 291 291 291
306 306 314 306 316 317 310 302 303 306 314 308 308 307 305 304 308 307 305 304 302 297 296 296 296 296 296 296 296 295 294 292 291 290 290 290 291 291 290 290 290 290 290 291
308 308 311 310 313 311 305 299 300 313 314 304 307 305 303 307 308 307 304 301 298 297 296 296 296 296 295 295 294 292 290 290 290 290 290 290 290 291 291 291 291 291 291 290
308 308 310 307 312 313 298 297 305 305 297 301 305 304 303 302 301 302 301 299 297 296 296 296 295 294 293 292 290 290 289 290 290 290 289 289 289 289 289 289 290 290 290 290
308 308 309 309 310 300 298 299 300 300 299 300 304 304 304 301 300 301 299 297 296 295 295 294 294 292 290 289 289 289 289 289 289 289 289 289 289 289 289 289 289 289 289 289
299 297 305 305 302 299 297 299 299 299 300 300 302 304 303 300 300 299 297 296 295 295 294 293 291 290 289 289 288 288 288 289 289 289 289 288 288 289 289 289 289 289 288 288
300 298 300 300 295 296 297 299 300 300 300 301 301 300 300 300 300 299 297 295 295 293 292 290 289 289 288 288 289 288 288 288 288 289 289 288 288 288 289 289 288 288 288 287
295 298 302 306 298 300 300 299 299 300 301 300 300 298 297 297 297 296 295 294 292 291 289 289 289 288 288 289 288 288 288 288 288 289 289 288 288 287 287 287 288 287 287 286

GFSCGP_850_thetae_090.txt.gz
Theta_e
312 312 313 313 312 314 315 314 314 313 313 314 313 314 312 314 314 315 315 315 315 314 313 313 314 322 329 329 331 332 333 332 326 324 325 326 328 327 328 331 333 331 334 332
313 313 313 313 313 313 312 314 313 312 312 313 313 313 313 313 314 314 314 314 313 312 312 311 311 311 312 315 324 330 331 332 331 329 325 327 328 329 329 331 332 329 330 330
313 313 313 314 312 312 313 313 312 314 312 312 313 312 312 311 311 312 312 312 312 313 312 312 311 310 310 310 311 319 328 331 332 332 329 331 332 332 331 331 331 330 329 327
313 311 312 312 312 312 313 313 313 312 311 310 310 307 311 309 310 312 313 312 312 312 313 313 312 311 311 310 310 310 315 327 330 332 330 327 331 329 328 327 325 327 325 325
312 309 311 313 313 312 313 312 313 313 313 313 312 309 312 309 311 312 313 313 313 313 312 312 312 312 312 311 310 309 311 319 326 328 330 329 326 326 324 323 323 323 323 324
310 309 311 312 310 312 312 313 313 314 313 310 312 308 309 308 310 311 313 312 312 312 311 311 311 311 312 312 311 309 309 311 313 320 323 325 324 323 323 321 323 320 321 321
310 310 310 310 310 311 312 311 311 311 311 312 307 310 310 310 312 312 311 312 311 311 311 311 311 311 311 312 313 313 312 312 312 312 314 317 316 314 312 312 311 311 311 311
311 312 310 310 311 310 311 310 313 313 314 310 307 308 310 310 314 313 313 311 312 312 311 311 310 310 310 310 311 312 312 312 312 312 312 311 311 311 311 311 311 310 310 309
310 312 310 309 310 311 311 311 311 308 303 310 308 309 309 309 311 312 312 312 312 311 311 310 310 310 310 310 310 311 311 311 311 311 311 310 308 307 307 306 306 305 305 304
311 311 310 309 310 310 310 309 308 310 308 313 309 310 309 308 311 311 311 312 312 311 310 310 310 310 310 310 310 310 310 309 308 307 306 306 305 304 304 303 303 302 301 301
311 313 310 309 310 310 309 309 310 310 312 314 311 308 309 308 311 311 310 312 312 311 310 309 309 309 309 309 309 308 307 307 306 305 305 304 303 302 301 301 301 300 300 300
311 311 311 310 309 308 309 310 309 311 310 308 312 310 310 309 310 311 311 312 312 310 309 309 309 309 308 308 307 307 306 306 304 303 302 301 301 300 300 300 300 299 299 298
310 312 311 311 311 309 309 309 310 309 310 307 307 308 308 308 310 311 311 312 311 310 309 308 308 308 307 307 307 305 304 303 301 301 300 300 300 299 299 298 299 299 299 298
310 313 312 311 311 310 310 309 308 309 310 309 310 310 309 309 309 311 312 312 311 310 309 308 307 307 306 305 304 302 301 300 300 299 299 299 299 298 298 298 298 298 297 295
310 310 310 310 311 311 310 310 309 309 310 309 310 308 309 308 309 312 311 311 310 309 308 308 306 306 305 304 302 301 300 299 299 299 298 298 298 298 298 297 296 295 293 293
310 310 311 310 312 312 311 310 309 309 309 309 308 308 308 311 311 312 311 311 310 309 308 307 306 306 304 302 301 300 299 299 298 298 298 298 297 297 295 294 293 293 292 292
310 310 311 312 310 311 310 310 310 309 309 309 309 309 310 309 311 311 310 311 310 309 308 307 306 304 302 301 300 299 298 298 298 298 297 297 296 294 293 292 292 292 292 291
310 309 311 310 309 311 310 308 309 310 309 309 309 308 308 310 311 312 312 311 310 309 308 306 305 303 301 300 298 298 298 298 298 297 296 295 293 292 292 291 291 291 291 291
310 308 311 310 310 309 310 307 307 308 310 308 309 309 310 311 310 310 311 311 311 309 308 306 305 303 300 298 298 298 298 297 297 296 294 292 291 291 291 291 291 291 290 290
308 309 309 311 306 309 309 306 309 308 310 308 309 307 308 310 310 309 311 311 310 308 307 306 303 301 299 298 298 298 297 297 296 293 292 291 290 290 290 290 290 290 289 289
310 310 313 312 313 311 306 304 310 311 311 311 311 310 309 309 310 310 311 310 309 307 305 305 301 299 298 298 298 298 297 296 293 291 290 290 290 290 289 289 289 289 289 289
312 314 314 314 315 315 302 306 310 308 305 309 310 311 309 309 309 310 310 309 308 305 304 302 299 298 298 298 298 297 296 293 291 290 290 290 289 289 289 289 289 289 289 290
310 310 312 312 311 302 304 304 304 303 304 304 309 310 310 309 307 308 307 306 304 304 301 299 299 298 298 297 297 296 292 290 290 290 290 289 289 289 288 288 289 289 290 289
303 301 306 306 302 302 302 301 304 303 301 301 303 307 308 307 306 304 302 302 302 301 299 298 297 298 297 296 295 292 290 290 289 289 289 289 289 288 288 288 289 289 289 289
303 301 303 302 300 299 302 302 302 302 302 300 301 303 306 306 304 304 302 302 301 299 297 298 297 297 297 295 293 290 289 289 289 289 289 289 288 288 288 288 288 289 288 287
298 301 304 304 303 303 302 303 303 302 301 300 301 303 304 305 305 304 304 303 300 298 298 297 297 297 296 293 291 289 289 289 288 288 288 288 288 288 288 288 288 288 287 286

GFSCGP_850_thetae_093.txt.gz
Theta_e
311 310 312 310 309 311 311 312 312 311 311 312 310 310 309 312 313 311 312 314 315 314 316 324 327 329 330 331 331 331 332 334 334 332 327 328 331 331 332 333 330 328 328 327
311 311 310 311 310 311 311 311 311 311 311 312 311 312 310 310 311 313 313 313 313 313 313 315 319 327 329 330 331 332 332 333 332 331 329 325 332 332 330 328 327 326 327 327
312 312 311 312 311 311 309 310 310 310 311 311 310 309 312 310 311 312 312 312 312 312 312 312 312 312 315 324 329 330 331 332 332 331 332 329 330 329 327 327 327 326 326 325
310 311 311 311 311 310 310 311 311 310 309 308 307 306 307 307 308 310 311 311 312 312 312 312 312 311 311 310 311 322 329 330 331 331 330 330 328 327 325 325 324 324 323 323
310 310 310 310 311 309 311 311 310 310 310 308 310 305 304 306 309 308 310 312 311 312 312 312 312 311 311 311 310 309 318 329 329 329 328 327 325 324 323 324 322 323 322 323
309 309 310 311 310 310 310 311 310 310 309 309 308 305 305 307 309 308 311 312 312 312 312 312 311 311 312 312 310 309 310 322 327 328 327 327 324 323 322 321 321 320 320 319
309 310 309 310 310 310 310 308 309 310 309 308 306 305 306 306 307 309 310 311 311 312 311 311 311 311 312 313 311 308 309 315 323 327 327 325 323 321 320 315 312 312 312 311
310 310 308 309 310 310 309 308 308 310 311 309 305 309 309 308 311 312 312 312 311 311 310 310 310 310 311 312 314 313 311 311 313 318 320 322 316 311 311 310 310 309 308 307
310 310 309 308 310 310 309 310 309 307 298 307 305 306 308 309 309 310 310 311 311 311 311 310 310 310 310 311 312 313 314 314 314 314 312 311 310 309 307 306 305 304 303 302
308 310 309 309 309 309 309 308 309 306 306 308 307 307 306 308 310 308 308 310 311 311 310 309 309 309 309 310 310 310 310 311 310 310 309 307 305 304 303 302 302 301 300 300
310 311 310 308 309 310 308 307 308 309 307 308 306 306 304 307 310 309 309 311 311 310 310 309 309 309 309 309 309 309 309 308 307 306 305 304 303 302 301 300 300 299 299 299
310 309 310 309 309 308 308 308 308 308 308 308 309 308 309 306 309 310 310 310 311 311 309 309 309 308 308 308 307 307 306 306 305 304 303 302 301 300 299 299 299 299 299 298
310 310 310 310 309 309 309 308 308 308 305 306 307 307 307 306 308 310 309 311 311 310 309 309 308 308 307 307 306 305 304 303 302 301 301 300 299 298 299 299 298 298 297 297
310 311 310 311 309 309 309 308 307 308 308 307 306 307 308 306 307 308 309 311 311 310 309 308 308 308 307 306 305 304 302 301 300 299 299 299 298 298 298 298 297 296 295 295
309 309 309 310 310 309 309 309 307 308 310 309 309 306 307 305 307 309 310 310 311 310 309 308 308 307 306 305 303 302 301 300 299 299 298 298 298 298 297 296 295 295 294 294
309 307 309 309 311 310 310 308 308 309 308 307 306 306 305 309 308 310 310 310 309 310 309 309 308 307 306 304 303 301 300 299 298 298 298 298 297 297 296 295 294 293 293 292
310 310 309 308 307 308 309 309 308 308 308 309 308 309 304 307 308 309 310 310 311 311 310 309 308 307 306 304 303 300 299 298 298 298 298 297 297 297 295 293 293 292 292 292
309 311 309 314 309 312 309 306 308 309 308 308 307 307 307 309 310 311 312 312 311 310 310 310 309 307 306 304 301 299 298 298 298 297 297 297 296 295 293 292 292 292 291 291
307 307 309 310 306 309 308 306 307 307 309 306 307 308 307 309 310 310 311 312 312 312 312 311 309 308 306 303 300 298 298 298 297 297 297 296 294 293 292 292 291 291 291 290
307 308 308 308 308 308 307 308 307 307 310 307 308 306 305 308 308 308 311 312 311 311 310 310 309 307 305 302 299 298 298 297 297 297 296 294 292 292 291 291 291 290 290 290
310 309 310 303 302 305 304 304 308 309 309 309 309 308 307 308 309 310 310 311 311 310 310 309 308 307 305 300 297 297 297 297 297 296 294 292 292 291 291 290 290 289 289 289
311 311 311 305 303 310 303 305 309 308 307 309 310 309 309 309 309 310 310 310 310 310 309 308 307 306 303 299 297 297 297 297 296 294 293 292 291 290 290 289 289 289 289 289
310 308 310 310 310 303 304 304 305 305 304 304 308 310 310 309 309 309 309 310 310 310 308 306 306 305 299 297 297 297 297 296 294 293 291 290 290 289 289 289 289 288 288 289
302 301 304 306 303 302 303 302 304 302 302 302 303 305 307 309 309 309 309 308 308 307 306 305 305 302 297 296 296 296 296 295 292 291 290 290 289 289 289 289 288 288 288 289
302 302 303 303 303 300 302 302 302 302 304 304 303 302 304 306 307 308 308 307 306 305 304 304 302 299 297 297 296 296 295 292 291 290 289 289 289 289 288 288 288 288 288 288
299 303 306 307 303 305 304 305 303 304 304 302 301 301 302 304 305 306 306 306 305 304 303 302 299 297 296 297 296 295 294 291 290 289 289 289 289 288 288 288 288 288 288 288

GFSCGP_850_thetae_096.txt.gz
Theta_e
311 310 312 312 309 309 310 311 312 311 310 311 309 311 309 311 310 310 311 312 317 321 324 326 329 330 329 330 331 331 331 330 332 332 332 330 334 332 329 329 328 327 326 326
309 311 310 310 310 311 310 311 310 311 310 311 309 310 310 309 310 311 311 312 315 319 322 326 328 329 330 330 330 331 330 330 331 333 332 332 327 329 328 327 326 326 326 325
311 311 310 311 310 311 309 309 308 311 310 309 309 309 311 310 310 311 311 312 314 315 315 318 325 328 329 329 330 331 331 331 332 333 333 331 329 327 326 326 326 325 325 325
312 311 310 311 311 310 309 308 309 309 308 309 307 309 305 307 308 309 311 311 312 312 312 313 316 321 327 328 329 330 331 331 332 332 330 328 326 325 325 325 324 324 324 323
313 311 310 311 311 309 310 309 309 308 307 308 308 306 304 306 307 308 309 310 311 311 312 312 312 312 311 312 320 328 329 330 331 332 329 328 327 325 324 323 323 322 322 321
313 309 310 311 310 309 309 310 308 309 308 308 307 306 305 306 308 309 308 310 311 311 311 312 312 312 312 311 310 310 314 326 329 330 328 328 326 324 322 322 321 320 320 319
309 309 308 311 311 310 310 310 310 311 311 309 305 304 307 305 305 306 308 310 310 311 312 312 311 311 311 311 311 310 309 313 326 329 327 326 324 321 320 320 320 318 318 315
310 311 308 308 310 310 308 310 309 309 309 307 305 308 308 306 307 308 310 311 311 311 311 311 311 311 311 312 311 308 309 312 323 327 327 324 324 321 320 320 312 312 310 308
310 310 308 308 309 309 310 308 306 307 297 307 304 304 305 309 309 308 309 310 311 311 311 311 310 311 311 313 313 310 310 314 321 325 326 324 324 319 312 310 308 306 304 302
308 310 309 308 309 309 309 307 310 306 309 308 306 306 306 308 310 307 307 308 310 310 310 310 310 310 311 313 315 315 313 314 317 319 321 321 312 310 308 305 303 302 301 300
309 310 309 309 309 309 308 308 306 307 307 309 305 306 302 306 309 308 308 308 310 310 310 310 309 309 310 311 312 314 315 315 315 314 312 310 307 304 303 301 300 300 299 299
309 309 309 309 308 307 307 307 307 309 307 305 306 306 306 304 305 309 308 309 310 310 310 309 309 309 309 309 308 309 310 310 310 309 307 305 303 301 300 300 299 299 298 298
309 309 310 310 309 308 308 307 307 306 306 308 310 307 305 306 305 309 308 310 310 310 310 309 308 308 308 308 308 308 308 307 305 304 303 302 300 299 299 299 298 298 297 296
310 309 310 310 309 308 309 308 307 308 308 306 305 307 307 306 306 307 309 310 310 310 310 309 308 307 307 307 307 306 305 304 303 302 301 300 299 298 298 298 297 296 295 295
309 309 308 309 308 308 308 309 308 308 309 308 309 304 305 305 306 308 309 309 309 310 309 309 308 308 307 307 305 304 303 302 301 300 299 299 298 298 297 296 296 295 294 294
307 305 308 309 310 309 309 307 307 308 308 305 306 305 304 307 307 308 308 309 308 310 310 309 309 308 307 306 305 303 302 301 300 299 298 298 298 297 296 295 294 294 293 293
309 307 305 304 306 308 310 309 307 308 308 308 308 309 303 305 306 308 308 309 310 311 310 310 309 309 308 306 305 303 302 300 298 298 298 297 297 296 296 294 293 293 293 293
312 310 309 309 307 310 309 306 307 307 307 307 307 306 305 307 309 310 310 310 311 310 310 310 310 309 308 307 304 303 300 299 298 297 297 297 297 296 294 293 293 293 292 292
307 312 311 315 314 312 312 307 307 307 307 306 306 307 305 308 309 308 309 311 311 311 311 312 311 310 309 307 305 301 299 298 297 297 297 297 296 295 293 293 292 292 292 292
306 308 312 304 312 312 309 309 307 306 311 309 307 307 304 306 307 308 310 310 311 311 311 310 310 309 309 307 304 301 299 298 297 297 297 296 295 293 292 292 292 292 291 291
308 305 311 303 303 305 304 304 308 310 310 309 309 308 306 305 309 310 309 310 310 311 311 310 310 310 309 307 304 300 298 298 298 297 296 295 293 292 292 291 291 291 290 290
309 309 306 301 304 309 303 304 308 307 306 308 308 307 307 308 308 308 309 309 310 310 310 310 310 309 308 307 305 301 298 298 297 296 295 294 292 291 291 291 291 290 290 290
310 308 307 308 307 303 304 303 304 306 304 304 307 309 310 308 307 307 308 309 310 310 310 310 309 308 307 306 304 302 298 297 297 296 294 292 291 291 291 290 290 290 289 289
301 301 304 307 303 303 303 302 303 303 302 301 301 303 306 307 308 308 309 309 309 309 309 308 308 307 306 304 303 300 298 297 296 295 293 291 291 290 290 290 289 289 289 289
301 302 300 301 303 301 300 302 302 302 303 303 303 302 302 303 304 306 307 308 308 308 307 307 307 306 305 304 301 297 296 296 295 293 292 293 290 290 289 289 288 288 288 288
301 303 306 304 304 304 304 306 305 304 304 305 303 302 301 301 302 304 305 306 306 306 306 305 304 304 304 302 298 295 295 295 294 293 293 290 290 289 289 288 288 288 288 288

GFSCGP_850_thetae_099.txt.gz
Theta_e
316 315 315 315 313 310 318 311 312 310 310 310 309 309 308 309 309 316 323 327 327 327 325 327 329 330 331 331 331 332 332 331 332 332 332 331 332 328 328 327 327 326 325 325
313 316 313 311 310 310 310 311 311 310 310 310 309 309 309 307 308 310 312 314 322 324 326 328 330 331 331 332 331 331 332 332 331 331 331 331 331 328 327 327 326 325 325 324
314 311 310 310 311 311 309 312 309 311 309 308 309 309 310 309 309 310 310 310 311 314 319 325 326 328 329 330 329 329 331 331 331 330 331 331 330 328 325 326 325 325 325 324
313 311 310 310 311 311 311 308 309 309 309 310 308 309 306 307 307 308 310 310 310 313 316 320 323 326 328 329 329 329 331 331 330 330 331 330 329 326 325 324 324 324 324 323
314 311 309 310 311 309 311 308 309 309 309 308 307 306 305 305 307 306 309 311 311 312 314 317 318 323 327 328 329 329 330 330 331 331 329 330 329 326 324 324 324 323 323 322
312 310 309 310 309 309 308 309 308 308 308 308 308 307 307 304 306 308 308 311 312 311 313 313 313 316 320 325 327 328 329 330 330 331 329 329 328 326 324 323 322 322 320 320
311 311 308 310 313 310 309 310 311 312 310 311 304 305 311 305 304 306 308 311 312 311 311 311 312 311 312 312 312 313 318 325 328 330 331 328 326 326 324 322 320 319 319 318
313 315 309 309 312 312 310 311 311 312 312 308 304 307 307 305 306 307 308 310 311 311 311 311 311 311 312 311 311 311 310 310 314 328 330 328 326 324 323 319 319 319 317 316
309 311 307 307 308 311 310 310 308 308 299 308 305 304 304 304 307 309 308 308 309 310 311 311 311 311 311 311 311 311 310 309 310 322 328 326 324 323 322 318 319 315 313 308
307 309 308 308 309 308 309 309 311 308 309 308 305 304 306 306 307 307 306 308 308 310 310 311 311 311 311 311 312 311 310 311 317 327 326 324 322 322 321 320 312 309 305 302
306 309 309 308 309 312 310 307 307 309 308 310 306 306 302 305 307 307 308 308 309 309 310 311 311 310 310 311 313 313 313 316 320 324 324 322 321 322 315 310 306 302 300 300
308 307 308 309 308 307 310 308 308 311 308 305 307 306 305 302 302 307 308 308 308 310 311 311 310 310 310 311 313 315 315 317 319 322 323 322 322 312 308 303 301 300 299 298
308 309 308 310 309 307 307 308 307 305 306 310 309 310 303 305 305 306 308 309 309 310 310 310 310 310 309 310 312 314 315 315 317 318 318 315 309 306 302 301 299 299 298 297
309 309 309 310 309 308 310 307 306 309 308 308 307 308 307 305 305 306 307 309 310 310 310 310 310 309 309 309 309 311 312 312 312 310 308 306 303 301 300 299 298 298 296 296
308 308 308 308 308 308 309 310 307 307 309 309 310 305 306 305 305 306 308 308 309 309 310 310 309 308 308 308 308 308 308 308 307 306 304 302 301 299 299 298 297 296 295 294
305 303 307 306 309 308 307 307 308 309 309 308 306 304 303 306 306 307 308 308 308 309 310 310 310 309 308 308 308 307 306 305 304 303 301 300 299 298 298 297 296 295 294 294
308 304 302 301 305 307 310 308 307 308 308 309 307 308 304 304 305 307 308 309 309 310 310 310 310 310 309 308 308 307 305 304 302 300 299 299 298 298 297 296 295 294 294 293
309 309 305 303 301 309 309 306 307 307 308 308 307 306 304 306 309 309 309 310 310 310 310 310 311 310 310 308 308 307 305 303 301 299 298 298 297 297 296 295 294 293 293 293
306 310 313 313 298 306 309 309 306 306 307 305 305 306 305 307 307 307 309 310 310 310 311 311 311 311 310 309 308 307 304 302 300 299 298 297 297 297 296 295 293 293 292 292
305 310 313 311 314 309 309 307 307 307 311 307 305 305 304 306 306 307 310 310 311 310 310 310 310 310 310 310 309 307 305 302 300 299 298 297 297 296 295 293 292 292 292 291
303 304 313 312 311 304 303 304 308 312 311 308 308 307 306 305 309 311 309 310 310 310 310 310 310 310 310 309 309 307 305 303 301 298 297 296 296 295 293 292 292 291 291 291
307 306 309 304 312 312 303 304 309 307 305 308 308 307 307 308 308 309 308 308 308 309 309 309 309 309 309 309 309 308 306 304 300 298 296 296 295 294 292 291 291 290 290 291
308 306 306 309 309 303 303 303 303 305 304 304 306 307 308 309 309 309 308 308 308 308 309 309 309 309 309 308 308 307 307 304 300 297 296 295 294 293 291 290 290 291 291 290
301 301 303 305 303 302 304 303 304 302 302 302 302 302 303 305 305 306 307 308 309 308 308 308 308 308 308 307 306 306 306 303 299 297 296 295 293 291 290 290 295 293 289 289
301 301 300 300 302 300 301 302 301 302 302 303 302 302 302 302 303 304 304 305 306 307 308 307 306 306 306 306 305 305 305 302 298 296 295 294 292 290 290 296 291 289 288 288
301 303 303 302 303 302 303 304 303 303 303 303 303 303 302 301 301 301 302 303 304 305 306 305 305 304 304 304 304 304 302 300 298 295 294 293 291 292 297 293 290 288 288 288

GFSCGP_850_thetae_102.txt.gz
Theta_e
314 315 318 318 322 317 323 317 313 310 310 311 310 310 310 309 311 322 326 328 329 329 327 329 329 330 331 332 332 331 332 331 331 331 331 329 328 327 326 326 326 325 325 324
314 316 315 316 316 320 313 322 318 310 309 310 310 311 308 306 308 313 320 325 327 327 326 326 328 330 330 330 329 330 331 332 332 332 331 331 329 328 327 325 325 325 324 324
320 317 314 313 315 312 316 314 312 312 309 308 309 310 309 307 308 310 311 316 321 323 322 323 325 327 328 328 329 330 330 331 332 332 332 330 329 329 327 325 324 325 324 323
314 315 316 314 314 313 314 309 310 309 311 313 307 312 308 306 306 306 310 311 312 313 317 320 322 325 327 328 329 330 331 331 331 332 332 331 328 327 327 325 324 324 324 323
315 311 313 312 313 314 316 308 309 310 309 309 308 308 310 305 306 305 307 311 312 312 311 312 315 321 323 326 327 329 329 329 330 332 332 330 329 327 327 325 323 323 323 323
312 310 309 310 309 313 308 310 309 308 307 310 310 307 308 306 305 306 308 311 313 313 311 311 313 318 321 323 326 328 329 328 329 330 331 330 328 328 327 325 323 323 322 322
313 313 309 308 310 308 311 310 313 313 309 312 304 305 311 307 303 306 309 313 313 312 311 311 313 316 319 322 326 327 328 328 329 329 330 330 327 328 328 325 323 322 321 320
316 317 312 310 311 309 310 312 311 313 311 311 303 307 309 305 307 308 308 310 311 312 312 311 312 314 315 316 320 323 325 326 327 327 329 330 327 327 327 325 323 321 319 317
314 316 309 307 310 311 310 315 309 307 299 306 305 304 304 304 303 306 307 307 310 311 312 312 312 312 312 312 312 312 311 311 312 318 326 330 329 327 326 323 322 319 317 317
307 310 307 309 310 309 310 310 312 310 308 308 305 304 308 306 307 306 306 308 310 310 310 311 310 310 311 311 311 311 311 311 310 310 313 327 330 325 325 322 322 315 318 315
305 308 308 307 309 311 311 312 310 310 308 310 309 308 301 306 306 307 307 310 310 310 310 309 311 311 311 311 311 311 311 311 310 311 313 323 327 325 324 322 320 318 314 308
305 306 307 308 307 309 311 312 313 314 312 304 307 309 304 302 302 305 305 308 309 310 309 309 310 310 311 311 310 310 311 311 311 313 319 324 323 323 322 320 319 311 306 301
306 307 306 309 308 306 310 308 309 312 307 311 311 311 303 303 305 307 307 307 308 309 309 309 309 310 311 311 310 311 313 312 314 320 319 321 320 320 319 318 310 305 300 299
309 308 308 310 309 307 307 310 308 309 312 313 312 310 306 306 306 305 307 307 308 308 309 310 310 311 311 310 309 311 313 314 315 317 317 319 319 319 318 309 303 300 299 298
308 309 306 307 307 308 308 309 310 310 310 311 311 307 305 305 305 306 308 308 308 309 309 310 310 310 309 309 309 310 313 314 316 318 317 317 318 317 308 302 300 299 298 296
304 303 306 304 307 307 307 307 308 310 311 310 310 311 309 308 307 307 309 308 309 310 310 310 310 310 309 309 309 309 311 313 314 315 316 315 313 306 301 299 298 298 296 295
306 303 302 304 303 306 305 307 306 307 307 309 309 310 304 304 303 305 307 308 309 310 310 310 310 310 310 310 309 309 309 311 311 311 309 306 303 300 299 298 298 296 295 295
308 304 303 303 302 309 307 306 305 307 307 308 309 307 306 307 307 307 309 309 309 309 310 310 310 310 310 310 309 308 308 308 308 307 304 302 300 298 298 298 297 295 295 294
306 308 308 307 300 306 309 307 305 305 307 305 306 306 306 306 306 307 309 309 310 310 310 310 310 310 311 310 310 308 307 307 306 305 303 301 299 298 297 297 296 295 294 293
306 307 310 304 313 308 307 306 307 305 309 305 305 304 304 304 305 306 309 309 310 310 310 310 310 310 309 310 310 309 308 307 306 305 303 300 298 297 297 296 295 294 293 292
303 307 311 312 312 305 304 305 306 310 308 305 306 306 303 305 306 307 308 309 309 310 309 309 309 309 309 309 309 309 308 308 307 305 302 299 297 296 296 295 294 293 292 291
307 309 307 303 312 312 303 303 309 307 306 307 307 306 306 307 307 308 308 308 308 308 308 308 308 308 308 308 308 308 309 308 306 305 302 299 297 296 295 294 293 292 291 290
307 305 306 310 310 305 303 303 303 304 305 304 306 307 307 308 309 309 309 309 308 308 308 308 308 308 308 308 308 308 308 307 307 304 301 298 296 295 295 294 292 291 290 290
299 301 302 304 302 303 303 303 302 302 303 302 302 302 303 304 305 305 305 305 306 307 308 308 308 307 307 307 307 306 306 306 305 304 301 297 295 295 294 293 291 290 289 291
299 301 298 299 301 301 301 302 301 301 302 302 302 301 300 301 301 302 303 303 303 304 305 307 307 307 306 306 306 305 305 304 303 302 300 297 295 294 293 292 290 290 293 296
300 300 303 300 300 301 302 301 302 302 302 302 302 302 302 302 301 301 301 302 302 304 305 305 306 306 305 304 304 303 303 302 302 301 298 296 294 293 292 291 290 293 296 299

GFSCGP_850_thetae_105.txt.gz
Theta_e
314 319 325 322 323 322 322 321 322 311 310 310 310 310 313 310 313 321 323 325 326 326 323 325 326 327 329 331 332 331 331 330 329 329 329 329 328 326 326 325 325 324 324 323
314 319 318 319 321 317 322 323 320 314 309 310 310 310 311 307 308 312 319 323 325 325 325 325 325 326 327 328 330 332 331 331 331 331 330 330 328 327 326 325 325 324 325 323
317 317 315 319 320 323 317 324 322 321 309 308 308 312 310 307 308 310 311 315 321 323 323 325 325 323 325 326 328 330 330 330 331 331 331 330 330 328 326 325 325 324 323 323
319 316 314 316 318 320 321 315 311 310 311 321 308 314 311 308 307 305 310 311 314 319 321 322 323 322 321 322 326 327 328 329 330 331 332 332 329 327 326 326 326 324 323 323
317 314 315 315 316 314 318 314 313 310 310 307 306 310 312 305 307 307 307 311 314 314 316 317 318 319 319 320 323 325 327 328 329 330 330 331 331 329 326 326 326 324 323 322
312 310 313 313 311 315 310 313 313 312 310 316 310 312 310 314 309 308 307 311 315 315 314 314 313 315 318 320 322 325 327 328 329 330 330 330 331 330 329 325 326 325 323 322
313 312 310 308 309 311 313 315 317 318 315 315 303 308 314 308 305 308 310 313 315 316 314 314 313 312 312 314 319 322 325 327 328 329 329 329 331 330 329 327 326 326 324 322
318 318 312 309 308 311 314 315 316 318 315 311 302 309 310 306 310 308 308 310 312 314 314 314 314 313 312 312 316 319 320 323 326 328 328 328 330 331 330 326 326 326 323 322
318 318 310 309 310 309 310 314 308 309 296 305 306 305 306 304 304 305 308 308 310 312 313 314 313 312 311 312 315 318 320 323 326 327 327 328 329 330 328 326 327 326 323 322
310 311 309 310 310 310 309 311 314 313 312 307 306 304 309 307 307 306 305 308 312 312 311 311 311 312 311 311 314 317 317 319 322 324 325 326 327 328 329 328 328 324 323 321
306 307 306 306 310 312 312 312 313 312 308 310 307 308 301 306 306 306 306 308 310 311 311 310 310 309 310 310 312 313 312 313 312 311 311 311 314 326 329 329 327 324 322 319
305 305 307 310 306 308 310 311 312 316 313 306 307 308 303 302 302 304 306 307 308 309 309 310 310 310 310 309 310 311 311 311 311 311 310 310 310 323 327 326 323 322 321 317
305 306 305 310 308 306 310 309 311 310 310 313 315 317 303 303 304 306 307 309 310 310 310 309 310 309 309 310 310 311 311 311 310 311 311 312 316 323 325 325 322 321 320 316
308 307 308 311 309 308 310 310 310 312 315 313 313 314 307 307 307 306 307 308 309 310 310 309 309 309 308 310 310 310 310 310 311 312 311 314 315 318 322 322 321 319 318 310
307 305 305 307 306 307 309 310 308 312 313 314 314 312 311 310 309 310 306 308 308 309 310 310 310 310 309 309 310 310 310 310 312 312 314 316 318 321 321 320 318 318 311 301
304 303 305 304 306 306 307 309 310 309 310 311 311 309 306 308 308 307 311 309 308 309 309 309 310 310 310 310 310 310 309 310 313 312 315 315 316 319 318 318 317 312 302 298
305 304 302 299 302 304 303 307 308 310 310 309 310 310 307 305 306 309 310 310 309 311 310 310 310 310 311 311 310 310 309 309 311 314 315 314 315 316 316 315 311 303 298 297
308 302 299 299 300 306 308 304 306 308 308 309 310 309 307 308 309 308 309 309 309 310 310 310 310 310 310 310 310 310 309 309 310 313 314 314 314 314 314 310 303 298 297 297
303 304 301 304 296 304 306 304 303 304 306 305 305 306 307 308 307 308 309 309 310 310 309 309 309 309 309 310 310 310 309 308 309 311 313 314 314 313 309 304 299 297 297 295
304 305 305 293 302 306 306 304 305 304 309 305 304 304 303 303 304 307 307 308 308 308 308 308 308 308 309 309 309 310 310 308 308 309 310 311 310 308 304 300 298 297 296 294
299 301 308 297 304 302 303 303 305 307 307 304 305 305 304 302 305 306 307 308 308 309 309 309 309 308 308 308 308 308 309 309 309 308 308 308 306 304 300 298 297 296 295 293
305 304 301 296 299 309 303 303 308 306 304 307 306 305 305 304 305 306 307 308 309 309 308 308 308 308 307 307 307 308 308 308 308 307 307 306 304 302 298 296 296 295 294 293
307 304 305 307 306 304 304 303 304 305 304 305 306 306 306 307 307 307 307 307 307 308 309 309 308 307 307 307 307 307 307 307 307 306 305 305 303 300 297 296 295 294 293 292
299 301 303 304 302 303 302 302 303 304 303 302 302 302 303 303 303 303 303 304 304 304 305 306 308 308 307 306 306 306 306 305 305 304 304 304 302 300 297 295 294 294 293 292
300 300 298 298 301 301 301 301 302 301 301 301 301 301 301 301 301 301 301 302 302 303 303 304 305 306 306 305 304 304 304 304 304 303 302 302 300 298 296 294 294 293 292 291
299 300 303 302 301 302 301 301 301 301 302 301 301 302 302 302 301 301 302 302 303 303 304 304 304 305 305 305 303 302 303 302 302 301 301 301 300 299 296 294 293 292 290 289

GFSCGP_850_thetae_108.txt.gz
Theta_e
318 323 326 325 324 326 324 327 328 321 312 314 318 318 317 316 312 318 321 324 326 327 326 328 329 330 330 331 330 328 320 319 322 325 327 328 327 326 326 325 325 324 324 323
318 324 324 324 324 324 325 326 328 326 316 315 318 317 316 316 313 313 317 321 324 326 325 323 325 329 329 330 330 330 330 329 327 328 328 328 327 327 326 325 324 325 324 324
323 322 320 323 324 324 323 326 327 327 313 312 316 324 324 320 312 312 312 315 321 325 323 322 322 325 326 327 329 330 329 329 330 330 330 330 329 328 326 325 325 325 324 324
320 317 322 323 325 325 324 319 322 322 321 327 319 329 327 325 323 313 312 312 315 321 320 323 321 321 322 324 326 327 329 330 329 330 331 331 330 328 327 325 324 323 324 323
319 317 320 324 323 323 321 315 316 313 318 313 318 316 324 317 318 317 314 313 315 315 316 318 319 318 318 319 322 324 327 328 329 330 330 331 331 330 329 327 326 325 325 324
315 312 317 319 316 320 315 314 314 313 316 322 321 316 325 323 319 320 316 313 313 316 316 315 317 318 318 318 318 319 323 326 327 329 329 330 331 331 331 329 328 327 326 325
315 314 311 313 315 313 315 319 319 320 321 327 311 316 321 320 316 317 318 316 316 315 316 316 315 316 316 317 317 318 321 323 325 327 328 329 330 330 330 330 329 326 325 325
318 318 312 310 317 315 316 319 320 325 322 322 305 316 318 313 310 313 310 311 312 313 314 316 316 315 315 315 314 317 319 322 324 325 326 328 329 330 330 330 329 329 326 326
319 318 312 309 310 314 315 318 315 314 305 312 314 313 313 312 312 309 310 309 309 312 312 313 314 315 314 313 312 312 316 319 323 324 325 327 328 329 328 330 330 330 328 327
317 316 312 311 311 311 316 314 317 315 321 321 319 313 316 314 312 313 311 311 313 310 310 311 312 313 314 313 312 311 310 314 320 322 323 325 327 328 328 329 331 332 328 327
314 313 310 309 311 314 314 315 315 316 314 319 319 319 313 314 313 311 310 309 308 309 310 311 312 311 311 311 312 311 310 314 318 320 322 324 326 327 328 329 330 331 329 327
309 311 315 313 308 309 313 314 315 318 317 315 311 317 309 309 308 307 308 308 309 310 310 310 310 310 310 310 310 311 310 313 316 319 320 321 323 322 325 326 329 329 329 327
309 311 314 312 310 309 313 313 314 315 314 318 320 321 317 309 308 308 309 308 309 311 311 310 310 310 310 309 310 310 310 311 313 313 313 312 311 311 311 317 325 323 325 322
309 310 314 317 314 312 312 314 313 314 317 318 318 319 316 310 311 311 310 309 309 310 312 312 311 310 310 309 308 309 309 310 311 311 311 311 310 310 311 313 321 323 323 321
311 312 310 310 310 312 313 313 313 315 316 317 317 316 316 316 315 314 314 312 311 312 311 312 312 310 310 310 309 309 309 310 310 310 310 310 311 311 310 312 319 320 320 320
307 312 309 308 308 310 311 313 313 314 314 315 315 315 314 313 313 313 313 312 310 310 311 311 311 311 310 310 310 309 310 310 310 310 310 311 312 311 315 319 320 318 319 318
308 309 312 314 307 309 312 312 313 313 314 314 315 315 312 311 311 311 311 311 310 311 311 311 310 310 310 309 310 310 310 310 310 310 311 312 313 315 317 318 318 318 317 316
310 309 312 309 307 313 311 310 311 312 312 313 313 313 311 311 310 310 310 309 309 310 310 310 309 309 309 309 309 310 310 310 309 309 310 312 313 314 316 317 316 315 313 312
309 310 308 313 313 312 309 306 308 311 311 311 311 311 311 310 309 309 309 309 308 308 308 308 308 308 308 309 309 309 310 309 309 309 309 312 312 314 314 315 315 313 313 307
306 310 314 305 313 313 310 308 306 307 310 309 309 309 309 306 307 309 307 307 307 307 308 308 308 308 308 308 308 309 309 309 310 309 309 310 313 313 314 314 314 312 308 300
308 310 312 311 314 314 306 304 306 312 312 304 305 306 305 306 307 305 306 306 307 308 309 308 308 308 308 308 308 308 308 308 309 309 308 308 310 313 313 312 312 310 303 297
310 311 311 311 312 312 305 304 310 309 305 306 306 305 304 304 304 305 305 307 308 309 309 310 309 308 307 307 307 307 307 307 307 307 307 307 308 310 310 310 308 302 297 295
310 310 312 311 312 306 304 307 305 306 306 306 307 306 307 306 305 305 305 305 305 305 306 306 307 308 308 307 307 307 306 306 306 306 306 306 305 306 306 305 302 298 295 294
304 302 310 309 306 304 304 304 305 305 305 304 305 304 305 305 304 303 303 303 303 303 303 304 304 305 307 307 307 306 306 305 305 305 304 304 303 303 302 300 298 296 295 294
306 304 304 304 301 301 301 303 303 303 303 302 302 302 302 301 301 301 302 302 302 303 303 303 304 304 305 306 306 306 305 304 304 303 303 303 302 301 301 299 297 295 294 294
301 305 309 311 305 306 304 302 301 302 301 301 302 301 301 301 301 301 302 302 302 302 303 303 303 304 304 304 304 305 304 304 302 301 300 300 300 300 299 298 297 295 293 292

GFSCGP_850_thetae_111.txt.gz
Theta_e
322 324 327 326 325 327 327 326 329 328 322 319 323 325 325 324 319 318 319 321 324 326 328 330 331 333 333 333 331 325 318 317 317 317 318 319 320 322 326 327 326 324 324 324
321 326 324 324 324 326 327 328 329 328 315 316 323 324 321 321 322 318 318 319 321 324 326 328 330 332 333 333 333 330 323 318 319 319 320 321 325 326 325 325 325 325 324 323
322 322 323 325 325 326 327 328 329 330 322 320 324 327 327 325 321 319 317 316 318 321 324 326 329 331 333 333 333 332 328 324 320 320 322 325 327 328 328 327 326 324 324 324
320 321 324 326 327 326 328 323 326 326 325 329 322 330 328 328 327 323 319 317 316 318 322 324 327 329 330 331 332 332 331 329 328 327 326 327 328 329 329 327 325 324 324 324
322 321 323 325 324 325 324 322 323 317 322 321 325 325 326 325 327 326 325 320 317 316 319 319 324 322 319 324 325 328 329 330 330 329 329 329 329 329 329 328 327 325 324 323
317 315 322 323 322 324 317 316 316 318 321 327 325 325 324 325 324 323 322 322 321 317 317 317 316 319 320 320 320 323 325 325 328 329 329 330 330 330 331 330 328 327 326 324
317 318 314 318 318 317 317 323 323 326 326 327 317 325 324 323 323 322 319 320 320 318 316 316 317 317 316 318 319 320 321 322 325 327 327 329 330 331 331 331 331 330 328 326
320 319 314 317 318 317 318 322 324 328 325 324 311 323 322 320 317 312 317 315 314 316 317 315 315 316 317 315 317 319 320 320 321 324 326 328 328 330 330 332 331 330 330 329
319 319 313 314 316 317 318 321 319 319 310 320 320 318 317 317 317 316 315 314 314 312 313 314 314 313 313 314 315 317 318 319 320 320 323 325 327 328 329 330 332 329 330 331
317 318 313 311 315 313 319 317 320 320 326 324 321 322 321 317 318 318 316 314 315 314 313 312 311 311 312 312 312 313 314 316 317 319 320 322 323 325 327 328 330 329 329 330
317 317 314 312 316 317 317 318 318 320 321 322 322 321 316 319 316 315 312 310 311 311 310 310 310 311 311 311 311 312 311 311 312 312 316 319 321 323 325 327 328 328 328 329
315 315 314 314 310 312 316 317 318 321 320 319 320 320 313 313 312 311 311 311 311 311 311 311 311 311 311 310 310 310 310 309 309 310 311 317 320 323 323 324 326 328 328 329
313 316 315 313 312 312 314 317 318 318 317 322 323 321 319 313 311 311 311 311 311 311 311 312 312 312 312 310 310 310 310 310 309 309 312 317 319 320 322 323 326 326 328 327
311 315 316 317 316 314 314 315 315 317 319 320 320 320 318 316 315 313 312 313 313 312 312 313 312 312 312 311 310 311 310 309 309 309 313 316 317 319 319 320 320 320 322 325
314 316 315 314 314 314 314 314 315 316 318 319 319 318 318 318 318 317 316 315 314 314 313 312 312 311 311 311 310 310 310 309 309 309 310 312 312 311 311 311 310 311 313 315
312 318 313 311 313 314 315 316 315 315 316 316 317 317 316 315 315 314 314 314 313 313 312 311 311 311 310 309 309 309 310 310 309 309 310 310 310 310 310 311 311 312 313 315
312 311 315 314 312 312 314 314 316 316 315 316 317 317 314 314 314 313 313 312 312 312 311 311 310 309 310 309 309 309 309 310 310 310 310 310 310 310 310 311 311 312 316 318
312 313 312 309 312 313 314 310 314 315 315 315 315 316 315 315 314 313 312 312 311 310 309 309 308 308 308 309 308 308 309 310 310 310 310 310 309 310 312 312 311 314 316 317
312 314 312 313 314 314 309 309 312 314 314 314 314 314 314 313 312 312 311 311 310 309 308 307 307 307 307 307 308 308 308 309 309 310 309 309 309 310 312 313 314 315 316 315
311 312 314 314 315 315 312 310 311 312 312 312 312 313 313 312 312 311 307 307 307 307 308 308 308 308 307 307 307 308 308 308 308 309 309 308 308 309 311 312 313 314 315 313
311 312 314 316 318 319 310 308 309 312 314 308 311 312 311 311 310 307 306 306 307 308 308 308 308 308 307 307 307 307 307 307 307 307 308 308 307 307 310 311 312 313 313 311
311 313 314 316 315 313 307 307 310 311 306 307 307 307 307 308 306 305 305 306 307 307 306 306 307 308 308 308 307 306 306 306 307 307 307 307 307 307 307 309 311 311 310 309
313 312 314 313 314 309 307 309 308 308 307 307 307 307 306 305 304 304 305 305 304 304 304 305 305 305 306 307 308 307 307 307 307 306 306 305 305 305 305 306 307 310 308 305
307 307 314 310 309 308 307 306 307 307 307 307 308 307 307 306 305 304 303 303 303 303 303 303 303 304 304 304 305 306 307 307 307 306 306 305 304 303 302 302 303 304 304 304
308 306 309 308 304 304 306 306 305 305 306 306 305 305 305 304 302 302 302 302 302 302 303 303 303 304 304 304 304 305 305 305 305 305 304 304 303 302 301 300 301 301 301 299
305 309 310 311 307 308 308 305 304 303 303 303 304 302 301 301 301 301 301 301 301 301 300 300 300 301 302 303 303 303 303 303 303 303 302 301 300 300 300 299 299 298 297 296

GFSCGP_850_thetae_114.txt.gz
Theta_e
322 323 324 323 325 327 327 327 328 326 321 320 321 322 322 323 318 318 319 320 324 327 328 330 331 331 333 331 327 324 322 316 314 316 318 319 318 318 319 320 320 323 323 323
322 324 322 322 324 325 327 327 328 327 316 317 320 321 321 322 324 324 319 319 320 324 326 328 329 326 332 332 332 328 324 318 316 316 315 315 316 317 319 321 325 326 326 322
321 320 321 323 323 325 327 328 326 328 319 320 320 322 323 323 323 321 321 318 319 320 324 326 328 326 329 331 332 331 329 324 318 317 317 317 318 319 322 324 326 326 324 324
320 319 321 321 323 323 326 325 325 326 325 329 321 325 325 324 324 322 320 319 317 317 320 324 326 327 324 328 332 332 330 329 325 319 319 319 320 321 324 325 325 325 325 324
321 319 322 323 324 323 325 323 324 320 322 322 325 324 323 322 324 323 323 321 319 318 317 320 324 324 323 325 327 330 331 330 329 326 322 319 320 322 324 326 327 327 326 324
318 317 320 322 323 322 317 318 318 317 322 326 324 324 324 323 321 322 324 323 322 320 318 317 320 323 324 325 325 326 329 330 330 330 328 327 326 325 326 327 328 328 327 325
319 320 314 319 322 317 319 322 323 326 325 326 318 323 323 321 319 320 320 319 320 322 320 318 318 321 322 322 321 321 324 327 329 331 330 328 328 328 328 327 328 329 328 327
321 320 316 319 321 319 321 322 320 323 323 321 311 320 321 321 320 319 319 320 318 317 319 319 317 317 320 322 322 322 321 320 324 327 327 328 328 329 329 328 329 330 330 329
318 319 314 318 316 318 319 323 318 316 307 316 316 316 316 316 314 313 313 314 315 315 314 316 316 316 317 320 323 323 323 323 324 323 323 326 327 327 328 328 329 330 330 328
316 317 314 310 316 315 318 317 321 319 318 320 319 319 319 315 315 314 313 315 314 315 313 313 313 313 314 313 313 315 317 318 320 323 324 324 324 324 326 329 330 330 330 331
315 316 314 313 318 317 317 319 320 320 320 320 319 317 312 316 314 313 309 310 312 311 310 310 311 310 310 310 310 311 311 312 313 314 317 322 324 325 327 329 330 331 331 331
315 314 314 315 311 315 317 319 318 321 319 317 317 316 311 309 308 311 310 311 311 311 311 312 313 313 312 312 310 310 310 310 311 311 311 314 319 324 325 326 329 331 332 331
313 314 315 314 311 310 317 317 318 315 314 315 316 316 311 308 309 310 310 311 311 311 311 312 313 312 312 312 312 310 310 309 309 309 310 310 311 314 320 323 324 325 329 327
314 314 314 316 316 313 315 316 317 317 315 316 317 316 309 308 309 309 311 311 314 315 314 314 312 311 311 310 310 311 310 310 309 309 309 309 309 310 311 314 319 320 325 326
314 312 314 314 314 314 315 317 317 318 317 317 316 316 315 314 313 315 314 315 315 314 313 312 311 311 311 310 310 310 310 309 310 309 309 309 310 311 313 316 317 318 321 323
312 312 310 307 313 314 314 315 315 317 317 316 315 315 314 315 315 315 315 314 313 312 312 312 311 310 310 310 309 309 309 309 309 309 309 309 309 311 311 311 311 311 310 310
313 311 313 309 309 310 310 313 314 314 315 316 316 315 311 311 313 314 314 313 313 312 312 311 310 309 309 309 308 308 308 308 309 309 309 309 309 309 310 310 310 310 310 310
312 310 310 309 310 311 310 312 313 313 313 313 314 314 313 312 314 314 314 312 312 311 310 310 309 308 307 308 308 308 308 308 308 309 309 309 309 309 309 309 310 310 311 311
310 311 309 311 312 311 309 307 313 313 313 313 313 313 313 314 314 313 313 312 311 310 309 308 307 307 307 307 307 307 308 308 308 308 309 309 309 309 309 309 310 312 312 312
311 311 311 312 308 311 311 307 311 310 310 311 312 312 312 313 312 309 311 309 307 307 307 307 307 308 307 307 307 307 307 307 307 307 308 308 308 308 308 308 310 311 312 312
311 311 312 309 306 308 308 306 311 308 307 309 312 312 312 309 311 311 308 307 306 307 308 308 308 308 308 308 307 307 307 307 307 306 306 306 307 306 306 307 308 311 311 311
311 312 312 305 304 308 306 308 309 308 308 308 310 311 312 311 309 308 306 306 306 307 306 306 306 306 307 307 307 307 307 307 307 306 306 306 306 306 306 306 306 308 309 310
309 310 310 310 307 306 307 309 309 310 308 307 309 309 310 309 307 306 305 305 305 305 305 304 304 304 305 305 305 306 306 306 307 306 306 305 305 304 304 303 303 304 305 307
306 307 305 305 306 304 307 307 309 309 309 308 308 308 308 307 305 304 304 303 303 303 303 303 303 303 303 304 304 304 304 305 305 305 305 305 304 303 303 302 302 301 301 301
304 305 303 303 303 304 306 307 308 307 308 308 308 308 307 306 304 304 302 302 302 303 303 303 303 303 303 303 303 304 304 304 304 304 304 303 303 302 301 299 298 298 298 297
303 305 306 305 304 306 307 307 306 306 307 307 308 306 305 305 305 302 301 301 301 301 300 300 300 300 300 300 300 300 301 302 302 302 302 302 301 301 300 299 299 297 297 297

GFSCGP_850_thetae_117.txt.gz
Theta_e
321 322 323 321 321 323 323 324 325 322 321 320 321 319 317 320 319 317 319 319 323 328 325 327 328 334 334 333 332 332 331 328 324 322 316 319 319 318 319 319 319 319 319 320
322 322 320 319 321 323 325 325 326 324 317 320 318 319 318 320 321 321 319 319 319 325 327 327 327 333 334 333 333 332 330 330 325 322 314 314 316 317 318 319 319 320 320 323
321 320 319 320 322 324 324 327 327 328 315 317 319 319 320 320 321 322 323 322 323 320 325 327 327 328 330 331 332 331 328 325 322 317 314 314 318 320 320 319 319 320 323 325
319 318 320 320 322 322 325 324 324 321 323 326 318 323 320 321 321 320 320 321 321 320 319 325 325 327 328 325 330 331 330 327 325 319 316 315 316 316 316 317 319 321 323 325
321 318 319 321 321 321 322 322 320 321 320 322 323 323 320 318 320 320 322 322 321 320 318 319 324 323 323 325 323 329 330 330 329 327 321 317 317 317 318 318 319 322 325 325
318 317 318 320 319 319 316 319 319 319 321 326 323 324 322 321 321 319 320 324 324 322 319 318 318 319 321 324 325 324 329 331 331 330 328 325 320 319 319 319 320 323 325 326
319 319 316 319 319 318 320 323 324 325 326 324 319 322 324 318 317 317 319 319 323 324 322 320 318 318 320 322 324 324 326 330 331 331 330 329 327 324 322 321 321 322 325 326
320 320 318 317 321 320 322 322 318 320 321 318 312 320 319 319 320 320 321 321 319 318 318 321 321 320 317 320 323 324 326 327 330 331 330 330 330 329 327 327 327 327 327 326
319 319 315 317 316 319 320 323 315 313 302 312 314 314 314 314 315 314 314 314 317 317 316 316 319 319 317 317 319 321 322 322 323 323 326 329 329 329 328 328 328 328 327 327
315 318 315 313 317 316 319 317 321 314 315 318 316 315 316 314 315 313 312 314 315 314 313 313 313 316 316 317 318 320 322 322 322 323 325 325 326 326 327 328 327 326 325 325
314 316 314 314 319 320 319 320 318 318 315 317 316 315 311 312 315 313 310 312 312 313 313 311 311 311 312 313 313 315 316 317 318 321 324 326 327 327 327 327 326 326 327 327
314 314 316 319 310 312 317 319 320 321 319 315 314 315 310 309 309 308 309 310 311 310 312 313 313 312 312 312 311 310 309 310 311 313 318 320 324 326 328 328 328 330 328 328
312 314 316 314 314 312 318 318 319 315 313 317 316 315 308 306 306 309 310 311 311 312 312 313 313 311 311 311 311 311 311 310 309 309 309 311 314 319 324 327 327 327 327 327
312 313 316 319 318 316 319 319 319 314 314 314 318 314 307 307 307 307 310 311 311 313 314 313 311 311 311 310 310 310 310 311 309 309 309 309 309 309 311 315 321 323 324 325
312 313 312 313 314 315 316 317 319 318 316 317 317 314 308 307 306 308 311 311 314 314 313 313 311 311 311 310 310 310 310 309 309 309 309 309 309 308 309 310 313 313 316 323
311 314 310 308 312 315 316 316 318 318 318 317 314 314 312 310 312 310 312 313 314 313 312 311 311 310 310 309 309 309 309 310 309 309 309 309 309 309 309 310 311 313 313 314
313 310 310 307 309 311 312 316 317 317 317 317 316 315 310 310 310 312 314 313 312 312 312 311 311 310 309 309 308 308 308 308 308 308 308 309 309 309 309 309 309 310 310 310
313 311 309 311 313 317 312 312 315 316 316 315 315 311 310 311 314 314 314 313 312 312 311 311 310 309 308 308 308 308 308 308 308 308 308 308 309 308 309 309 309 309 309 310
312 309 310 313 314 308 309 307 313 315 315 314 315 312 310 312 312 312 313 313 312 312 311 310 309 308 307 308 307 307 307 307 307 307 308 308 308 308 308 308 308 308 310 311
311 311 311 307 313 312 309 307 311 311 314 313 313 313 311 311 312 310 311 311 311 309 307 307 307 307 307 307 307 307 307 307 307 307 307 307 307 307 308 307 307 308 310 310
312 311 314 312 305 305 305 304 311 313 312 310 312 312 312 311 312 312 312 310 308 306 307 307 307 307 308 308 307 307 307 307 307 307 307 307 307 307 307 307 306 306 307 308
313 313 312 302 299 311 304 308 312 309 308 309 310 312 311 311 312 312 309 307 306 307 307 307 306 307 307 307 306 307 307 307 306 306 307 307 306 306 306 306 306 306 306 305
310 311 311 312 310 305 305 309 312 309 309 308 310 312 312 312 310 308 305 305 306 306 305 305 305 305 305 304 304 305 304 305 305 305 305 306 306 305 305 305 304 304 304 304
306 305 306 307 306 304 306 307 309 309 309 309 310 310 311 310 307 305 305 304 304 304 304 303 303 303 304 304 304 304 304 304 304 304 304 304 304 303 303 302 302 302 302 302
304 304 302 302 304 303 305 308 309 309 308 308 308 310 310 310 305 305 304 303 303 303 303 303 303 303 303 303 302 302 302 302 303 303 303 303 303 302 302 302 301 301 300 299
301 306 307 306 304 305 306 309 309 308 308 308 308 307 307 307 306 304 303 302 302 302 302 302 302 301 301 300 300 300 299 298 297 297 297 297 296 297 298 299 299 300 300 298

GFSCGP_850_thetae_120.txt.gz
Theta_e
321 322 325 324 322 322 321 322 323 322 320 318 317 318 316 319 319 317 316 316 324 325 322 326 325 326 331 331 331 331 331 330 324 328 328 327 321 320 317 316 317 318 319 319
321 323 319 318 320 321 322 323 323 322 318 320 320 319 317 318 318 320 321 320 318 320 324 325 327 325 329 330 331 332 331 331 329 325 326 326 322 315 316 316 317 318 319 319
321 319 318 320 321 322 322 323 324 325 316 318 319 320 318 317 318 320 321 322 322 319 319 322 326 326 326 329 329 332 331 331 331 329 325 326 324 320 320 318 318 319 318 318
319 319 319 319 321 321 323 320 324 324 319 326 321 330 319 318 321 319 319 320 322 322 319 321 323 326 326 325 326 330 330 331 332 331 328 325 324 318 314 315 316 317 318 318
320 318 319 320 320 320 320 320 321 321 321 323 321 322 320 317 319 319 319 321 323 322 323 321 321 323 324 325 325 327 327 330 331 329 328 325 323 317 315 316 316 317 317 318
319 317 318 319 318 320 316 317 318 318 321 327 322 323 323 320 319 318 319 321 323 323 322 322 321 320 323 324 325 326 325 326 328 329 328 324 322 318 315 316 317 317 318 318
321 318 315 318 318 317 319 322 321 325 326 323 318 321 324 318 317 317 318 322 322 324 324 323 320 319 320 322 323 325 326 325 324 327 328 329 328 327 324 321 319 318 318 319
322 320 318 316 319 320 321 322 318 319 321 319 315 321 320 317 320 319 320 321 320 321 323 324 323 319 318 318 319 323 325 324 324 324 323 324 328 329 328 327 326 324 323 322
322 321 317 315 316 318 321 324 314 313 300 312 314 313 313 313 312 316 319 320 320 319 319 316 319 321 320 318 317 319 322 324 325 324 326 328 329 330 329 329 329 328 327 326
319 320 316 315 316 316 319 318 320 313 314 316 315 314 317 315 316 313 311 314 317 316 315 314 314 315 318 319 317 317 321 323 324 325 326 327 328 329 329 330 330 329 328 328
316 317 316 315 320 321 319 321 318 317 313 316 313 314 310 314 316 314 311 314 313 314 313 313 313 313 314 316 316 317 319 321 324 326 327 327 327 328 329 330 330 330 330 330
317 317 318 320 311 313 318 321 320 322 318 313 313 313 310 309 310 313 312 314 313 313 312 312 312 311 311 311 311 311 312 313 316 320 323 325 326 328 329 329 330 330 328 327
315 316 320 319 315 313 320 318 320 317 312 318 315 315 306 305 306 310 310 310 311 311 313 313 313 312 312 312 311 311 312 311 310 309 309 310 311 314 316 321 324 326 326 326
313 315 319 322 321 319 320 319 319 319 320 318 317 316 310 307 305 306 309 310 310 312 312 313 312 312 311 311 311 311 311 311 311 311 310 309 309 309 309 311 313 317 320 323
316 313 317 314 315 317 317 319 319 320 319 318 318 315 313 306 305 307 310 310 310 311 313 313 312 311 311 310 310 310 311 311 311 311 310 309 309 309 309 309 309 310 312 319
316 313 314 311 313 316 318 318 318 319 318 317 316 315 313 312 307 306 309 310 310 313 314 313 311 311 310 310 310 309 309 309 310 309 309 309 309 309 308 309 309 309 310 312
317 315 313 317 310 315 317 317 318 318 318 318 318 317 309 306 306 307 308 309 311 314 313 311 311 311 310 310 309 308 308 308 308 308 308 308 308 309 309 309 309 309 310 310
317 314 315 315 314 319 315 314 316 317 317 317 317 315 313 311 309 310 311 312 313 312 312 311 311 311 310 309 308 308 308 308 308 308 307 308 308 308 308 308 309 309 309 309
314 313 312 314 317 311 309 307 316 316 317 316 316 313 311 313 311 311 314 314 314 312 311 312 311 310 309 308 307 307 307 307 307 307 307 307 307 308 308 308 308 308 308 308
315 314 313 308 317 318 313 306 313 313 316 314 315 315 308 309 312 311 313 313 312 312 312 311 310 309 307 307 307 306 306 306 307 307 307 307 307 307 308 308 308 307 307 307
315 313 314 316 315 309 307 305 313 317 316 313 314 315 313 311 313 313 313 312 312 312 311 308 307 307 307 307 307 307 307 307 307 307 307 307 307 306 306 306 307 307 307 306
312 313 312 311 312 316 303 310 313 313 313 310 313 314 313 313 313 314 312 311 312 311 307 306 307 307 307 307 307 307 307 307 307 306 306 306 306 306 306 306 306 306 306 306
310 314 312 312 314 305 308 311 313 311 311 308 310 313 314 313 312 311 310 310 309 307 307 307 307 307 307 307 306 306 306 305 305 305 305 305 305 305 305 305 305 305 305 305
307 305 308 309 306 304 305 308 310 309 310 310 309 310 312 312 311 311 310 307 306 306 306 306 306 305 305 304 304 304 305 305 304 304 305 305 305 305 305 305 305 305 303 302
305 305 303 303 304 303 304 307 310 310 308 309 309 309 311 311 309 311 307 305 305 305 304 304 304 304 304 304 303 303 303 303 303 302 302 302 302 302 301 302 302 302 302 303
297 299 309 308 303 305 306 308 309 310 308 308 309 309 309 311 311 308 305 304 304 303 303 302 302 303 303 302 302 302 301 300 299 299 297 296 295 295 295 295 295 295 296 297

GFSCGP_850_thetae_123.txt.gz
Theta_e
318 320 323 324 322 320 318 320 321 319 319 317 317 316 315 317 316 317 318 319 322 325 321 324 325 326 323 328 330 330 329 328 326 327 329 330 329 326 323 319 317 317 318 318
320 321 319 321 321 321 321 322 321 320 319 318 319 319 315 315 317 318 320 320 318 319 321 321 324 326 325 323 328 330 331 330 329 328 327 327 327 326 325 320 318 317 317 318
321 319 318 320 321 322 320 321 321 322 317 316 317 319 318 315 319 320 321 322 322 322 320 319 320 323 326 324 324 327 329 331 331 331 329 326 328 328 326 324 318 316 317 318
319 318 319 320 322 321 322 319 322 323 320 323 317 322 321 318 318 316 319 321 323 323 323 323 320 319 323 324 324 324 327 329 331 331 331 330 326 326 326 325 321 314 316 317
320 318 319 320 320 319 320 320 322 321 319 320 322 325 320 317 318 318 319 320 322 323 324 323 322 321 320 323 324 323 325 327 328 331 331 331 331 329 326 326 325 318 315 315
318 318 318 318 318 318 317 318 318 317 319 324 321 322 319 319 318 317 318 322 323 323 323 323 324 322 322 322 324 324 325 326 328 329 330 331 331 330 329 327 325 321 315 316
319 318 316 318 319 319 319 321 323 325 324 321 315 318 320 316 316 317 319 321 322 322 322 323 324 322 322 322 321 324 325 325 325 327 328 328 330 329 327 325 323 320 317 316
318 319 317 317 318 319 320 320 317 320 320 317 314 320 318 316 318 319 320 320 321 321 322 322 323 324 322 321 320 320 324 324 325 326 326 326 328 328 328 327 326 327 325 323
320 319 316 316 316 318 320 321 314 312 299 311 314 313 312 311 312 314 315 319 320 320 320 320 322 323 324 322 320 319 320 322 323 324 325 325 326 327 327 327 328 329 329 328
317 319 316 316 316 316 319 318 320 314 313 315 314 313 315 313 316 315 312 314 318 320 319 317 316 317 319 321 322 319 317 318 319 322 325 325 325 326 327 328 328 328 329 329
316 317 316 316 318 320 318 321 318 317 312 315 313 313 309 314 314 314 314 315 317 319 320 318 315 316 316 316 318 319 318 317 317 319 322 325 326 326 327 328 329 329 330 330
315 316 316 319 317 316 318 319 319 321 318 312 311 315 309 309 310 312 314 316 318 318 318 316 314 313 313 314 315 316 317 317 317 319 321 322 324 325 326 326 326 325 328 327
314 315 317 318 317 313 319 319 319 319 312 317 318 317 307 304 305 308 312 315 315 314 312 312 312 312 311 311 311 311 311 311 310 311 312 313 315 317 318 320 322 325 326 325
313 312 314 317 317 318 319 319 318 320 320 319 317 316 311 308 307 306 309 313 315 314 311 312 312 312 312 311 312 311 311 311 311 310 310 309 309 309 310 313 316 319 322 324
314 314 311 312 314 316 319 319 319 320 319 319 318 316 315 312 306 307 311 310 310 310 312 313 312 312 311 311 311 311 311 311 311 311 311 310 309 309 309 309 309 309 310 311
311 315 313 314 313 314 317 318 319 318 319 319 318 317 314 314 313 307 309 309 309 310 312 312 312 311 311 311 311 311 310 310 310 310 309 309 308 308 308 308 308 308 309 309
311 314 314 316 313 313 316 318 318 319 318 318 319 317 310 309 307 307 309 309 310 311 311 312 313 312 311 311 310 310 310 309 309 309 309 309 308 308 308 308 308 309 309 310
307 309 313 316 315 318 315 312 316 318 318 317 318 317 315 313 314 315 313 312 311 311 311 313 313 311 311 310 310 310 309 309 309 308 308 308 308 308 308 308 308 308 309 309
306 306 308 312 315 315 312 310 315 316 317 316 317 317 316 314 313 312 316 316 316 312 311 314 313 311 311 311 310 309 308 308 308 308 307 307 307 307 308 308 308 308 308 308
307 307 307 309 314 316 314 312 313 314 318 315 316 316 316 312 313 314 314 315 310 310 311 313 311 311 311 310 309 308 308 307 307 307 307 307 307 307 307 307 307 307 307 307
308 308 308 310 311 312 309 306 313 317 317 315 315 315 316 313 315 316 315 314 310 310 311 310 311 311 311 309 308 307 307 307 307 307 307 307 307 307 307 307 307 307 307 307
313 314 313 312 316 317 304 310 315 315 314 313 314 315 315 316 315 314 315 314 311 311 311 311 312 312 309 307 306 307 306 307 307 307 307 307 306 306 306 306 306 306 306 306
311 312 313 313 314 304 311 312 313 315 313 314 313 313 314 314 314 314 314 313 312 311 311 312 311 308 307 306 306 306 307 307 306 305 305 305 305 305 305 305 305 305 305 304
308 307 311 310 312 305 306 310 313 311 312 312 312 312 313 313 313 312 313 312 311 310 311 311 308 306 306 307 306 306 306 305 304 304 304 305 304 304 304 304 304 304 304 304
304 305 308 309 304 304 305 308 309 310 309 308 309 309 310 312 312 311 310 310 310 310 309 307 306 306 306 306 305 304 304 304 304 304 304 304 303 303 302 301 301 300 300 300
291 293 306 311 292 292 304 304 306 307 310 310 309 309 309 310 312 310 310 310 310 308 306 306 305 305 306 304 304 303 303 303 303 302 302 300 299 297 296 296 296 295 294 294

GFSCGP_850_thetae_129.txt.gz
Theta_e
320 322 323 323 323 320 316 318 318 317 318 315 315 314 315 317 315 316 319 319 319 320 323 323 322 322 323 325 326 327 326 329 330 330 330 330 330 330 329 328 325 318 316 317
320 324 320 321 322 323 321 321 320 318 317 317 318 318 317 315 315 317 319 320 320 321 322 322 322 322 322 322 324 324 325 325 329 330 331 331 330 329 329 328 328 326 323 319
322 320 319 321 322 324 322 323 322 321 318 316 315 317 317 314 317 319 319 320 321 322 323 323 324 324 322 322 322 322 324 323 322 328 330 330 330 330 328 327 327 326 326 323
320 318 320 321 322 322 323 319 321 321 322 323 315 319 317 311 313 314 316 316 316 316 320 323 323 323 324 323 321 320 322 324 323 322 328 329 329 329 327 326 326 327 326 326
319 318 319 321 320 320 321 319 320 320 322 321 320 322 320 315 315 314 315 316 318 317 317 317 318 318 323 325 323 319 320 321 324 323 324 328 329 329 328 328 328 329 328 326
317 316 317 318 317 318 317 319 318 318 320 324 323 322 317 317 317 316 316 318 318 317 318 319 322 321 321 323 324 324 322 322 320 324 323 323 324 327 329 329 329 329 329 329
318 318 316 317 318 318 319 319 323 323 322 323 311 319 321 313 313 314 316 317 317 316 317 318 321 323 324 324 324 324 323 323 321 320 324 323 323 323 324 326 328 329 329 329
319 320 317 315 318 320 321 320 322 322 321 317 312 318 316 313 316 316 316 317 317 317 318 319 320 321 322 323 323 323 323 323 322 320 322 323 324 324 324 325 325 325 326 327
317 317 314 315 315 317 319 321 315 313 298 310 312 312 311 310 311 313 314 316 317 317 317 316 317 319 321 321 321 322 323 323 323 322 321 322 324 324 325 325 326 327 327 326
313 314 313 314 316 316 318 317 321 316 320 316 314 312 315 312 312 312 312 315 317 316 317 317 318 318 320 321 321 322 323 323 323 322 322 322 322 323 325 326 326 327 327 327
314 313 315 314 317 318 318 320 318 319 316 318 313 315 308 313 312 312 311 314 314 315 315 315 316 316 319 319 321 321 322 323 322 321 321 320 320 322 324 326 326 327 328 327
312 313 315 314 314 312 315 318 318 320 317 312 312 319 308 308 308 309 312 314 314 313 314 315 316 316 319 317 318 321 322 323 323 321 319 319 320 322 323 323 324 325 326 326
310 312 308 313 314 314 317 317 317 317 315 315 315 318 308 308 308 312 310 312 311 312 314 315 316 316 318 318 316 316 316 316 318 319 319 318 318 318 318 320 322 324 324 325
312 308 310 309 311 312 317 317 318 318 320 319 318 317 315 310 309 310 313 314 315 315 315 315 316 317 317 315 315 315 315 315 315 317 317 317 317 317 317 318 318 319 320 321
309 311 308 308 309 310 313 314 316 318 318 320 318 316 316 315 314 314 315 316 316 316 315 315 314 313 315 314 313 313 313 313 314 314 314 312 312 311 311 311 311 312 312 313
306 307 309 310 308 308 309 309 310 312 314 314 317 317 315 315 315 314 314 315 315 316 315 313 314 314 312 311 311 311 311 311 311 311 311 311 311 311 310 310 309 309 308 308
310 308 306 309 307 307 310 309 309 309 309 310 312 312 312 313 313 312 314 315 314 315 316 315 314 314 315 313 311 311 311 311 311 311 311 310 310 310 309 309 308 308 308 308
305 304 306 305 308 310 307 307 307 308 308 307 308 308 309 309 310 313 316 316 315 315 316 317 316 317 314 313 311 310 310 310 310 310 310 310 309 309 308 308 308 308 308 308
305 305 304 300 298 304 303 303 306 309 311 309 309 309 309 310 310 310 311 312 314 315 316 314 313 317 316 313 311 311 311 310 310 311 310 309 308 308 307 307 307 307 308 308
302 305 305 297 297 297 302 302 304 308 308 306 308 309 310 310 311 311 311 312 312 313 313 313 314 316 317 312 311 310 311 310 310 310 309 308 307 307 307 307 307 307 307 307
303 304 305 303 302 297 300 301 305 307 306 306 307 308 309 309 310 310 311 311 313 314 314 314 315 316 316 313 311 311 311 311 311 310 309 307 307 307 306 306 307 307 307 306
301 303 304 305 305 305 303 302 303 304 305 305 305 306 307 307 309 310 311 312 313 314 314 315 315 316 316 314 310 311 310 310 310 309 308 307 306 306 306 306 306 306 306 306
299 303 302 303 302 303 305 303 305 305 305 305 304 303 306 308 310 310 310 311 312 313 314 314 315 315 315 313 310 310 311 310 310 308 307 305 305 305 306 306 306 305 305 305
297 299 301 302 302 303 305 306 305 301 298 300 301 300 301 304 306 308 309 310 311 312 313 314 314 315 314 312 310 309 310 310 308 307 306 305 305 305 305 305 304 304 304 304
297 301 300 301 302 302 304 301 296 298 297 297 298 297 298 300 304 305 306 307 308 310 311 313 313 314 314 312 309 309 308 308 306 305 305 305 305 305 305 304 304 303 302 302
289 290 298 302 283 283 289 290 291 288 290 291 288 295 301 298 298 301 307 307 308 309 310 310 309 311 312 310 307 307 306 306 305 305 304 305 304 304 303 303 302 300 300 299

GFSCGP_850_thetae_132.txt.gz
Theta_e
321 321 319 319 322 322 322 322 322 320 321 321 323 323 322 321 321 320 321 321 320 320 321 322 320 320 322 322 324 325 325 326 330 330 330 329 330 330 329 328 328 321 315 314
322 321 319 318 321 323 322 323 321 321 319 319 322 323 322 321 321 321 322 322 322 321 322 322 321 322 322 322 322 323 324 325 326 328 330 330 330 330 330 330 329 329 325 319
323 321 320 321 322 324 323 322 321 322 320 321 321 324 323 322 320 320 320 321 322 324 324 324 322 324 324 323 323 322 323 324 323 323 328 330 330 330 330 330 329 329 328 327
322 318 321 322 323 323 324 320 321 321 320 325 320 326 323 321 320 318 317 319 319 319 321 323 324 324 325 324 324 323 323 322 322 324 325 324 327 329 330 330 329 328 328 327
320 321 322 323 323 321 322 321 322 321 322 322 321 323 321 321 321 321 320 320 318 317 317 317 317 318 320 323 323 324 323 322 322 324 324 323 323 326 329 330 329 328 327 326
319 318 320 321 320 321 319 321 321 322 323 325 322 322 321 322 322 321 320 320 319 318 318 316 316 317 317 317 319 322 323 321 320 321 323 325 323 322 326 328 328 328 327 327
319 318 317 318 321 320 321 322 325 326 325 322 317 322 322 321 320 319 319 319 319 318 317 316 317 317 317 320 321 320 320 323 322 319 320 321 323 323 322 324 326 328 328 328
319 321 319 318 320 321 321 321 322 322 324 321 316 322 322 320 320 320 318 317 317 317 316 317 317 317 319 319 321 322 323 323 323 323 322 322 320 324 323 323 324 324 325 326
319 317 317 318 317 319 321 321 319 317 308 319 319 319 317 317 317 316 315 316 317 317 316 316 317 317 317 318 318 321 322 322 322 322 323 322 321 321 323 323 324 324 324 324
314 317 315 317 317 318 320 318 321 318 325 323 320 319 319 317 316 317 317 316 316 315 314 314 315 315 316 317 318 318 321 321 321 321 321 322 322 320 322 324 324 324 325 326
315 315 316 317 319 319 319 320 318 320 320 324 323 320 318 319 318 317 315 314 313 313 312 314 315 315 316 316 316 319 319 319 320 321 321 321 322 321 321 323 324 325 325 326
314 314 316 316 316 315 318 318 319 321 320 319 319 319 315 316 314 311 314 314 312 312 313 314 315 316 317 315 316 318 318 319 319 320 321 321 321 321 321 322 323 324 325 327
314 314 315 314 314 314 318 318 318 318 317 320 320 319 315 315 314 314 311 314 315 315 315 315 315 315 315 316 317 316 315 316 319 320 320 320 320 320 320 321 322 324 325 324
312 312 312 312 311 312 314 315 317 319 319 319 319 318 317 316 317 317 315 315 316 315 315 315 315 316 315 315 316 316 315 315 315 315 317 320 320 320 320 320 322 322 322 323
312 313 311 312 310 313 315 315 314 316 318 317 317 318 317 317 317 316 314 314 315 315 316 316 316 316 316 316 314 316 317 314 314 314 315 316 317 318 319 319 320 321 322 321
310 314 311 311 311 311 311 311 312 313 315 317 318 319 318 316 315 315 315 315 315 315 314 314 314 316 316 316 315 315 313 312 311 313 315 317 317 318 318 318 318 317 315 314
310 310 310 311 310 311 312 311 310 311 311 313 316 316 315 314 313 311 310 310 311 311 312 313 313 313 313 312 316 315 313 311 311 310 310 310 311 311 310 310 310 309 309 309
307 308 309 310 308 311 309 308 309 310 310 310 311 311 311 310 309 309 310 310 310 310 310 311 311 312 312 312 313 314 315 312 310 310 310 310 310 310 310 310 309 309 308 308
306 307 308 308 308 307 306 305 307 309 309 310 311 311 310 310 311 311 310 309 309 310 310 311 311 311 312 312 312 312 315 313 310 310 310 310 310 310 310 309 309 308 308 308
306 306 306 304 307 307 306 306 306 309 309 308 310 311 310 309 309 310 309 309 310 310 310 310 310 311 312 313 313 313 313 314 311 310 310 310 310 309 309 308 308 308 307 307
304 305 307 307 306 305 303 303 304 306 306 306 306 307 307 308 308 307 307 307 308 309 310 311 311 311 312 313 313 314 313 313 313 310 309 309 310 309 308 307 307 307 307 307
304 305 305 304 305 305 303 303 304 305 305 304 303 303 301 301 303 304 304 304 305 307 309 309 309 310 311 312 313 314 314 314 312 310 309 309 309 308 307 306 306 306 307 307
304 305 306 306 306 304 303 304 302 302 302 297 295 299 297 298 299 298 299 301 303 304 307 307 306 308 310 310 312 313 314 313 312 309 309 309 308 307 306 306 306 306 306 306
299 299 303 303 303 303 303 302 298 296 294 290 289 288 292 293 297 297 299 301 302 304 306 308 308 308 311 311 311 312 313 312 310 308 308 308 307 306 305 305 305 306 306 305
300 300 301 301 301 300 300 294 287 288 288 288 287 286 286 289 294 292 295 297 300 303 305 305 308 306 310 310 311 310 312 310 309 307 307 307 306 305 305 305 305 305 305 304
288 289 299 302 281 282 288 283 281 282 281 283 283 287 285 284 287 290 294 293 298 302 303 304 308 307 309 307 307 308 309 307 306 306 306 305 305 304 304 304 303 303 302 302